<?xml version="1.0" encoding="UTF-8" standalone="no" ?>
<gpx xmlns="http://www.topografix.com/GPX/1/1" xmlns:xsi="http://www.w3.org/2001/XMLSchema-instance" xsi:schemaLocation="http://www.topografix.com/GPX/1/1 http://www.topografix.com/GPX/1/1/gpx.xsd" version="1.1" creator="VisuGPX - https://www.visugpx.com">
  <metadata>
    <name>Autour de Lhuis (01)</name>
    <desc><![CDATA[petit tout au départ de Lhuis avec un début trés physique]]></desc>
  </metadata>
  <trk>
    <name><![CDATA[Autour de Lhuis (01)_1]]></name>
    <trkseg>
      <trkpt lat="45.74595" lon="5.53486">
        <ele>399</ele>
        <time>2016-09-27T08:33:20.114Z</time>
      </trkpt>
      <trkpt lat="45.74591" lon="5.53497">
        <ele>399</ele>
        <time>2016-09-27T08:33:31.114Z</time>
      </trkpt>
      <trkpt lat="45.74576" lon="5.53517">
        <ele>399</ele>
        <time>2016-09-27T08:33:41.114Z</time>
      </trkpt>
      <trkpt lat="45.74567" lon="5.53524">
        <ele>399</ele>
        <time>2016-09-27T08:33:46.114Z</time>
      </trkpt>
      <trkpt lat="45.74558" lon="5.53533">
        <ele>399</ele>
        <time>2016-09-27T08:33:52.114Z</time>
      </trkpt>
      <trkpt lat="45.74534" lon="5.53577">
        <ele>399</ele>
        <time>2016-09-27T08:34:06.114Z</time>
      </trkpt>
      <trkpt lat="45.74468" lon="5.53726">
        <ele>404</ele>
        <time>2016-09-27T08:34:56.114Z</time>
      </trkpt>
      <trkpt lat="45.74466" lon="5.5374">
        <ele>405</ele>
        <time>2016-09-27T08:35:01.114Z</time>
      </trkpt>
      <trkpt lat="45.74466" lon="5.53756">
        <ele>405</ele>
        <time>2016-09-27T08:35:06.114Z</time>
      </trkpt>
      <trkpt lat="45.74462" lon="5.53806">
        <ele>409</ele>
        <time>2016-09-27T08:35:21.114Z</time>
      </trkpt>
      <trkpt lat="45.74461" lon="5.53899">
        <ele>417</ele>
        <time>2016-09-27T08:35:48.114Z</time>
      </trkpt>
      <trkpt lat="45.74462" lon="5.53914">
        <ele>417</ele>
        <time>2016-09-27T08:35:53.114Z</time>
      </trkpt>
      <trkpt lat="45.74461" lon="5.53947">
        <ele>420</ele>
        <time>2016-09-27T08:36:03.114Z</time>
      </trkpt>
      <trkpt lat="45.74447" lon="5.54022">
        <ele>424</ele>
        <time>2016-09-27T08:36:25.114Z</time>
      </trkpt>
      <trkpt lat="45.74441" lon="5.54101">
        <ele>431</ele>
        <time>2016-09-27T08:36:48.114Z</time>
      </trkpt>
      <trkpt lat="45.74433" lon="5.54132">
        <ele>433</ele>
        <time>2016-09-27T08:36:56.114Z</time>
      </trkpt>
      <trkpt lat="45.74363" lon="5.54271">
        <ele>435</ele>
        <time>2016-09-27T08:37:31.114Z</time>
      </trkpt>
      <trkpt lat="45.74331" lon="5.54367">
        <ele>438</ele>
        <time>2016-09-27T08:37:52.114Z</time>
      </trkpt>
      <trkpt lat="45.74328" lon="5.54382">
        <ele>438</ele>
        <time>2016-09-27T08:37:56.114Z</time>
      </trkpt>
      <trkpt lat="45.74326" lon="5.54385">
        <ele>439</ele>
        <time>2016-09-27T08:38:03.114Z</time>
      </trkpt>
      <trkpt lat="45.74328" lon="5.5438">
        <ele>440</ele>
        <time>2016-09-27T08:38:50.114Z</time>
      </trkpt>
      <trkpt lat="45.74329" lon="5.5437">
        <ele>440</ele>
        <time>2016-09-27T08:38:54.114Z</time>
      </trkpt>
      <trkpt lat="45.74329" lon="5.54369">
        <ele>440</ele>
        <time>2016-09-27T08:38:59.114Z</time>
      </trkpt>
      <trkpt lat="45.74329" lon="5.54376">
        <ele>439</ele>
        <time>2016-09-27T08:39:24.114Z</time>
      </trkpt>
      <trkpt lat="45.74327" lon="5.54384">
        <ele>439</ele>
        <time>2016-09-27T08:39:27.114Z</time>
      </trkpt>
      <trkpt lat="45.74325" lon="5.54391">
        <ele>440</ele>
        <time>2016-09-27T08:39:37.114Z</time>
      </trkpt>
      <trkpt lat="45.74323" lon="5.54394">
        <ele>440</ele>
        <time>2016-09-27T08:40:42.114Z</time>
      </trkpt>
      <trkpt lat="45.74321" lon="5.54402">
        <ele>440</ele>
        <time>2016-09-27T08:40:45.114Z</time>
      </trkpt>
      <trkpt lat="45.74318" lon="5.54412">
        <ele>440</ele>
        <time>2016-09-27T08:40:48.114Z</time>
      </trkpt>
      <trkpt lat="45.74306" lon="5.54443">
        <ele>440</ele>
        <time>2016-09-27T08:40:56.114Z</time>
      </trkpt>
      <trkpt lat="45.74233" lon="5.54569">
        <ele>439</ele>
        <time>2016-09-27T08:41:28.114Z</time>
      </trkpt>
      <trkpt lat="45.7423" lon="5.54577">
        <ele>439</ele>
        <time>2016-09-27T08:41:30.114Z</time>
      </trkpt>
      <trkpt lat="45.7421" lon="5.5466">
        <ele>440</ele>
        <time>2016-09-27T08:42:46.114Z</time>
      </trkpt>
      <trkpt lat="45.74166" lon="5.54738">
        <ele>441</ele>
        <time>2016-09-27T08:43:05.114Z</time>
      </trkpt>
      <trkpt lat="45.74152" lon="5.54757">
        <ele>441</ele>
        <time>2016-09-27T08:43:13.114Z</time>
      </trkpt>
      <trkpt lat="45.74128" lon="5.54785">
        <ele>441</ele>
        <time>2016-09-27T08:43:23.114Z</time>
      </trkpt>
      <trkpt lat="45.74119" lon="5.54797">
        <ele>441</ele>
        <time>2016-09-27T08:43:27.114Z</time>
      </trkpt>
      <trkpt lat="45.74109" lon="5.54825">
        <ele>437</ele>
        <time>2016-09-27T08:43:36.114Z</time>
      </trkpt>
      <trkpt lat="45.74082" lon="5.54844">
        <ele>436</ele>
        <time>2016-09-27T08:43:46.114Z</time>
      </trkpt>
      <trkpt lat="45.74055" lon="5.54885">
        <ele>436</ele>
        <time>2016-09-27T08:43:58.114Z</time>
      </trkpt>
      <trkpt lat="45.74047" lon="5.54894">
        <ele>437</ele>
        <time>2016-09-27T08:44:01.114Z</time>
      </trkpt>
      <trkpt lat="45.74038" lon="5.54901">
        <ele>437</ele>
        <time>2016-09-27T08:44:04.114Z</time>
      </trkpt>
      <trkpt lat="45.74013" lon="5.54913">
        <ele>437.2</ele>
        <time>2016-09-27T08:44:10.114Z</time>
      </trkpt>
      <trkpt lat="45.74002" lon="5.54922">
        <ele>439</ele>
        <time>2016-09-27T08:44:13.114Z</time>
      </trkpt>
      <trkpt lat="45.73996" lon="5.5493">
        <ele>439</ele>
        <time>2016-09-27T08:44:15.114Z</time>
      </trkpt>
      <trkpt lat="45.73923" lon="5.55054">
        <ele>443</ele>
        <time>2016-09-27T08:44:45.114Z</time>
      </trkpt>
      <trkpt lat="45.73919" lon="5.55063">
        <ele>443</ele>
        <time>2016-09-27T08:44:47.114Z</time>
      </trkpt>
      <trkpt lat="45.73916" lon="5.55077">
        <ele>443</ele>
        <time>2016-09-27T08:44:51.114Z</time>
      </trkpt>
      <trkpt lat="45.73913" lon="5.55106">
        <ele>443.3</ele>
        <time>2016-09-27T08:45:00.114Z</time>
      </trkpt>
      <trkpt lat="45.73905" lon="5.55135">
        <ele>447</ele>
        <time>2016-09-27T08:45:08.114Z</time>
      </trkpt>
      <trkpt lat="45.73911" lon="5.55149">
        <ele>448</ele>
        <time>2016-09-27T08:45:18.114Z</time>
      </trkpt>
      <trkpt lat="45.73929" lon="5.55163">
        <ele>455</ele>
        <time>2016-09-27T08:45:33.114Z</time>
      </trkpt>
      <trkpt lat="45.73939" lon="5.55168">
        <ele>458.2</ele>
        <time>2016-09-27T08:45:40.114Z</time>
      </trkpt>
      <trkpt lat="45.7395" lon="5.55173">
        <ele>461</ele>
        <time>2016-09-27T08:45:46.114Z</time>
      </trkpt>
      <trkpt lat="45.7396" lon="5.5518">
        <ele>462.2</ele>
        <time>2016-09-27T08:45:55.114Z</time>
      </trkpt>
      <trkpt lat="45.73969" lon="5.55187">
        <ele>466</ele>
        <time>2016-09-27T08:46:03.114Z</time>
      </trkpt>
      <trkpt lat="45.7398" lon="5.55192">
        <ele>468</ele>
        <time>2016-09-27T08:46:11.114Z</time>
      </trkpt>
      <trkpt lat="45.7399" lon="5.55196">
        <ele>469</ele>
        <time>2016-09-27T08:46:19.114Z</time>
      </trkpt>
      <trkpt lat="45.74001" lon="5.55197">
        <ele>472</ele>
        <time>2016-09-27T08:46:26.114Z</time>
      </trkpt>
      <trkpt lat="45.74023" lon="5.55194">
        <ele>476</ele>
        <time>2016-09-27T08:46:44.114Z</time>
      </trkpt>
      <trkpt lat="45.74041" lon="5.55204">
        <ele>480</ele>
        <time>2016-09-27T08:47:02.114Z</time>
      </trkpt>
      <trkpt lat="45.7405" lon="5.55211">
        <ele>483</ele>
        <time>2016-09-27T08:47:12.114Z</time>
      </trkpt>
      <trkpt lat="45.74056" lon="5.55224">
        <ele>484</ele>
        <time>2016-09-27T08:47:21.114Z</time>
      </trkpt>
      <trkpt lat="45.74061" lon="5.55238">
        <ele>485</ele>
        <time>2016-09-27T08:47:31.114Z</time>
      </trkpt>
      <trkpt lat="45.74062" lon="5.55254">
        <ele>488</ele>
        <time>2016-09-27T08:47:41.114Z</time>
      </trkpt>
      <trkpt lat="45.74059" lon="5.55269">
        <ele>490</ele>
        <time>2016-09-27T08:47:51.114Z</time>
      </trkpt>
      <trkpt lat="45.74054" lon="5.55282">
        <ele>490</ele>
        <time>2016-09-27T08:47:57.114Z</time>
      </trkpt>
      <trkpt lat="45.74035" lon="5.5532">
        <ele>492</ele>
        <time>2016-09-27T08:48:13.114Z</time>
      </trkpt>
      <trkpt lat="45.74023" lon="5.55338">
        <ele>493</ele>
        <time>2016-09-27T08:51:09.114Z</time>
      </trkpt>
      <trkpt lat="45.73993" lon="5.55405">
        <ele>496</ele>
        <time>2016-09-27T08:51:33.114Z</time>
      </trkpt>
      <trkpt lat="45.73986" lon="5.55416">
        <ele>496</ele>
        <time>2016-09-27T08:51:37.114Z</time>
      </trkpt>
      <trkpt lat="45.73979" lon="5.55429">
        <ele>497</ele>
        <time>2016-09-27T08:51:42.114Z</time>
      </trkpt>
      <trkpt lat="45.73964" lon="5.5547">
        <ele>502</ele>
        <time>2016-09-27T08:51:59.114Z</time>
      </trkpt>
      <trkpt lat="45.73958" lon="5.55483">
        <ele>503</ele>
        <time>2016-09-27T08:52:05.114Z</time>
      </trkpt>
      <trkpt lat="45.73949" lon="5.55494">
        <ele>503</ele>
        <time>2016-09-27T08:52:09.114Z</time>
      </trkpt>
      <trkpt lat="45.73897" lon="5.55578">
        <ele>509</ele>
        <time>2016-09-27T08:52:49.114Z</time>
      </trkpt>
      <trkpt lat="45.73866" lon="5.55639">
        <ele>519</ele>
        <time>2016-09-27T08:53:26.114Z</time>
      </trkpt>
      <trkpt lat="45.73862" lon="5.55653">
        <ele>522.3</ele>
        <time>2016-09-27T08:53:35.114Z</time>
      </trkpt>
      <trkpt lat="45.73855" lon="5.55663">
        <ele>526</ele>
        <time>2016-09-27T08:53:43.114Z</time>
      </trkpt>
      <trkpt lat="45.73847" lon="5.5568">
        <ele>529</ele>
        <time>2016-09-27T08:54:03.114Z</time>
      </trkpt>
      <trkpt lat="45.73841" lon="5.55704">
        <ele>533</ele>
        <time>2016-09-27T08:54:25.114Z</time>
      </trkpt>
      <trkpt lat="45.73829" lon="5.55729">
        <ele>539</ele>
        <time>2016-09-27T08:54:47.114Z</time>
      </trkpt>
      <trkpt lat="45.73825" lon="5.55742">
        <ele>540</ele>
        <time>2016-09-27T08:54:55.114Z</time>
      </trkpt>
      <trkpt lat="45.73811" lon="5.55766">
        <ele>546</ele>
        <time>2016-09-27T08:55:16.114Z</time>
      </trkpt>
      <trkpt lat="45.73807" lon="5.55778">
        <ele>546.1</ele>
        <time>2016-09-27T08:55:30.114Z</time>
      </trkpt>
      <trkpt lat="45.738" lon="5.55789">
        <ele>547</ele>
        <time>2016-09-27T08:55:38.114Z</time>
      </trkpt>
      <trkpt lat="45.73796" lon="5.55803">
        <ele>549</ele>
        <time>2016-09-27T08:55:48.114Z</time>
      </trkpt>
      <trkpt lat="45.7379" lon="5.55816">
        <ele>551</ele>
        <time>2016-09-27T08:55:57.114Z</time>
      </trkpt>
      <trkpt lat="45.7376" lon="5.55859">
        <ele>557</ele>
        <time>2016-09-27T08:56:35.114Z</time>
      </trkpt>
      <trkpt lat="45.73756" lon="5.55867">
        <ele>558</ele>
        <time>2016-09-27T08:56:45.114Z</time>
      </trkpt>
      <trkpt lat="45.73732" lon="5.55938">
        <ele>567</ele>
        <time>2016-09-27T08:57:38.114Z</time>
      </trkpt>
      <trkpt lat="45.73729" lon="5.55968">
        <ele>574</ele>
        <time>2016-09-27T08:57:59.114Z</time>
      </trkpt>
      <trkpt lat="45.73725" lon="5.55982">
        <ele>577</ele>
        <time>2016-09-27T08:58:11.114Z</time>
      </trkpt>
      <trkpt lat="45.73723" lon="5.55996">
        <ele>579</ele>
        <time>2016-09-27T08:58:23.114Z</time>
      </trkpt>
      <trkpt lat="45.73723" lon="5.55996">
        <ele>579</ele>
        <time>2016-09-27T08:58:27.114Z</time>
      </trkpt>
      <trkpt lat="45.73716" lon="5.56054">
        <ele>588</ele>
        <time>2016-09-27T08:59:11.114Z</time>
      </trkpt>
      <trkpt lat="45.73711" lon="5.56074">
        <ele>591</ele>
        <time>2016-09-27T08:59:31.114Z</time>
      </trkpt>
      <trkpt lat="45.73708" lon="5.56081">
        <ele>591</ele>
        <time>2016-09-27T09:00:14.114Z</time>
      </trkpt>
      <trkpt lat="45.73707" lon="5.56083">
        <ele>591</ele>
        <time>2016-09-27T09:00:15.114Z</time>
      </trkpt>
      <trkpt lat="45.73702" lon="5.56096">
        <ele>593</ele>
        <time>2016-09-27T09:00:23.114Z</time>
      </trkpt>
      <trkpt lat="45.73696" lon="5.56107">
        <ele>595.1</ele>
        <time>2016-09-27T09:00:30.114Z</time>
      </trkpt>
      <trkpt lat="45.73688" lon="5.56116">
        <ele>598</ele>
        <time>2016-09-27T09:00:38.114Z</time>
      </trkpt>
      <trkpt lat="45.73664" lon="5.56146">
        <ele>605</ele>
        <time>2016-09-27T09:01:04.114Z</time>
      </trkpt>
      <trkpt lat="45.73645" lon="5.5618">
        <ele>608</ele>
        <time>2016-09-27T09:01:29.114Z</time>
      </trkpt>
      <trkpt lat="45.73636" lon="5.56187">
        <ele>610</ele>
        <time>2016-09-27T09:02:30.114Z</time>
      </trkpt>
      <trkpt lat="45.73621" lon="5.5621">
        <ele>611</ele>
        <time>2016-09-27T09:02:41.114Z</time>
      </trkpt>
      <trkpt lat="45.73597" lon="5.56239">
        <ele>616.1</ele>
        <time>2016-09-27T09:03:00.114Z</time>
      </trkpt>
      <trkpt lat="45.73588" lon="5.56245">
        <ele>618</ele>
        <time>2016-09-27T09:03:06.114Z</time>
      </trkpt>
      <trkpt lat="45.7357" lon="5.56262">
        <ele>618.1</ele>
        <time>2016-09-27T09:03:20.114Z</time>
      </trkpt>
      <trkpt lat="45.73542" lon="5.56281">
        <ele>624</ele>
        <time>2016-09-27T09:03:44.114Z</time>
      </trkpt>
      <trkpt lat="45.73534" lon="5.56286">
        <ele>626</ele>
        <time>2016-09-27T09:03:52.114Z</time>
      </trkpt>
      <trkpt lat="45.73493" lon="5.56329">
        <ele>639</ele>
        <time>2016-09-27T09:10:32.114Z</time>
      </trkpt>
      <trkpt lat="45.73486" lon="5.56342">
        <ele>640</ele>
        <time>2016-09-27T09:10:41.114Z</time>
      </trkpt>
      <trkpt lat="45.73479" lon="5.56372">
        <ele>645</ele>
        <time>2016-09-27T09:10:56.114Z</time>
      </trkpt>
      <trkpt lat="45.73459" lon="5.56409">
        <ele>650</ele>
        <time>2016-09-27T09:11:16.114Z</time>
      </trkpt>
      <trkpt lat="45.73451" lon="5.56419">
        <ele>652</ele>
        <time>2016-09-27T09:11:24.114Z</time>
      </trkpt>
      <trkpt lat="45.7345" lon="5.56427">
        <ele>656</ele>
        <time>2016-09-27T09:11:35.114Z</time>
      </trkpt>
      <trkpt lat="45.73454" lon="5.56426">
        <ele>657</ele>
        <time>2016-09-27T09:11:44.114Z</time>
      </trkpt>
      <trkpt lat="45.73461" lon="5.56424">
        <ele>659</ele>
        <time>2016-09-27T09:11:52.114Z</time>
      </trkpt>
      <trkpt lat="45.7347" lon="5.56418">
        <ele>662.2</ele>
        <time>2016-09-27T09:12:05.114Z</time>
      </trkpt>
      <trkpt lat="45.73478" lon="5.56409">
        <ele>665.1</ele>
        <time>2016-09-27T09:12:15.114Z</time>
      </trkpt>
      <trkpt lat="45.73489" lon="5.56407">
        <ele>666</ele>
        <time>2016-09-27T09:12:24.114Z</time>
      </trkpt>
      <trkpt lat="45.73508" lon="5.56396">
        <ele>670</ele>
        <time>2016-09-27T09:12:43.114Z</time>
      </trkpt>
      <trkpt lat="45.73526" lon="5.56381">
        <ele>674</ele>
        <time>2016-09-27T09:13:03.114Z</time>
      </trkpt>
      <trkpt lat="45.73536" lon="5.56376">
        <ele>675</ele>
        <time>2016-09-27T09:13:13.114Z</time>
      </trkpt>
      <trkpt lat="45.73555" lon="5.56363">
        <ele>679</ele>
        <time>2016-09-27T09:13:34.114Z</time>
      </trkpt>
      <trkpt lat="45.73565" lon="5.56358">
        <ele>681</ele>
        <time>2016-09-27T09:13:46.114Z</time>
      </trkpt>
      <trkpt lat="45.73574" lon="5.56352">
        <ele>683</ele>
        <time>2016-09-27T09:13:56.114Z</time>
      </trkpt>
      <trkpt lat="45.73594" lon="5.56345">
        <ele>688</ele>
        <time>2016-09-27T09:14:13.114Z</time>
      </trkpt>
      <trkpt lat="45.73604" lon="5.56343">
        <ele>690</ele>
        <time>2016-09-27T09:14:21.114Z</time>
      </trkpt>
      <trkpt lat="45.73625" lon="5.56334">
        <ele>693</ele>
        <time>2016-09-27T09:14:41.114Z</time>
      </trkpt>
      <trkpt lat="45.73635" lon="5.56331">
        <ele>695</ele>
        <time>2016-09-27T09:14:51.114Z</time>
      </trkpt>
      <trkpt lat="45.73645" lon="5.56331">
        <ele>695</ele>
        <time>2016-09-27T09:14:58.114Z</time>
      </trkpt>
      <trkpt lat="45.73665" lon="5.56328">
        <ele>701</ele>
        <time>2016-09-27T09:15:11.114Z</time>
      </trkpt>
      <trkpt lat="45.73687" lon="5.5633">
        <ele>702.2</ele>
        <time>2016-09-27T09:15:30.114Z</time>
      </trkpt>
      <trkpt lat="45.73695" lon="5.56337">
        <ele>704.3</ele>
        <time>2016-09-27T09:15:40.114Z</time>
      </trkpt>
      <trkpt lat="45.73703" lon="5.56346">
        <ele>708</ele>
        <time>2016-09-27T09:15:50.114Z</time>
      </trkpt>
      <trkpt lat="45.73713" lon="5.56352">
        <ele>708</ele>
        <time>2016-09-27T09:19:50.114Z</time>
      </trkpt>
      <trkpt lat="45.73722" lon="5.56389">
        <ele>714</ele>
        <time>2016-09-27T09:20:12.114Z</time>
      </trkpt>
      <trkpt lat="45.73726" lon="5.56402">
        <ele>714</ele>
        <time>2016-09-27T09:20:18.114Z</time>
      </trkpt>
      <trkpt lat="45.73721" lon="5.56432">
        <ele>718</ele>
        <time>2016-09-27T09:20:37.114Z</time>
      </trkpt>
      <trkpt lat="45.73714" lon="5.56444">
        <ele>722</ele>
        <time>2016-09-27T09:20:47.114Z</time>
      </trkpt>
      <trkpt lat="45.73712" lon="5.56458">
        <ele>724</ele>
        <time>2016-09-27T09:20:59.114Z</time>
      </trkpt>
      <trkpt lat="45.73705" lon="5.56469">
        <ele>725</ele>
        <time>2016-09-27T09:21:09.114Z</time>
      </trkpt>
      <trkpt lat="45.73671" lon="5.56505">
        <ele>732</ele>
        <time>2016-09-27T09:21:47.114Z</time>
      </trkpt>
      <trkpt lat="45.73666" lon="5.56517">
        <ele>734</ele>
        <time>2016-09-27T09:21:56.114Z</time>
      </trkpt>
      <trkpt lat="45.73657" lon="5.56526">
        <ele>737</ele>
        <time>2016-09-27T09:22:03.114Z</time>
      </trkpt>
      <trkpt lat="45.73651" lon="5.56538">
        <ele>738</ele>
        <time>2016-09-27T09:22:11.114Z</time>
      </trkpt>
      <trkpt lat="45.73619" lon="5.56561">
        <ele>740</ele>
        <time>2016-09-27T09:22:23.114Z</time>
      </trkpt>
      <trkpt lat="45.7361" lon="5.56568">
        <ele>740</ele>
        <time>2016-09-27T09:22:26.114Z</time>
      </trkpt>
      <trkpt lat="45.73576" lon="5.56611">
        <ele>743</ele>
        <time>2016-09-27T09:26:49.114Z</time>
      </trkpt>
      <trkpt lat="45.73562" lon="5.56624">
        <ele>741</ele>
        <time>2016-09-27T09:26:53.114Z</time>
      </trkpt>
      <trkpt lat="45.73515" lon="5.56664">
        <ele>731.9</ele>
        <time>2016-09-27T09:27:01.114Z</time>
      </trkpt>
      <trkpt lat="45.73473" lon="5.56717">
        <ele>726.9</ele>
        <time>2016-09-27T09:27:07.114Z</time>
      </trkpt>
      <trkpt lat="45.7345" lon="5.56736">
        <ele>725.9</ele>
        <time>2016-09-27T09:27:09.114Z</time>
      </trkpt>
      <trkpt lat="45.7343" lon="5.56749">
        <ele>723.9</ele>
        <time>2016-09-27T09:27:11.114Z</time>
      </trkpt>
      <trkpt lat="45.73415" lon="5.56763">
        <ele>722</ele>
        <time>2016-09-27T09:27:13.114Z</time>
      </trkpt>
      <trkpt lat="45.73379" lon="5.56813">
        <ele>717.9</ele>
        <time>2016-09-27T09:27:18.114Z</time>
      </trkpt>
      <trkpt lat="45.7335" lon="5.5686">
        <ele>713</ele>
        <time>2016-09-27T09:27:23.114Z</time>
      </trkpt>
      <trkpt lat="45.73311" lon="5.56894">
        <ele>706</ele>
        <time>2016-09-27T09:27:29.114Z</time>
      </trkpt>
      <trkpt lat="45.73305" lon="5.56906">
        <ele>704.9</ele>
        <time>2016-09-27T09:27:31.114Z</time>
      </trkpt>
      <trkpt lat="45.73298" lon="5.56935">
        <ele>703</ele>
        <time>2016-09-27T09:27:35.114Z</time>
      </trkpt>
      <trkpt lat="45.73291" lon="5.56949">
        <ele>702.9</ele>
        <time>2016-09-27T09:27:37.114Z</time>
      </trkpt>
      <trkpt lat="45.73253" lon="5.57004">
        <ele>699</ele>
        <time>2016-09-27T09:27:45.114Z</time>
      </trkpt>
      <trkpt lat="45.73246" lon="5.57018">
        <ele>698.9</ele>
        <time>2016-09-27T09:27:47.114Z</time>
      </trkpt>
      <trkpt lat="45.73229" lon="5.57066">
        <ele>696</ele>
        <time>2016-09-27T09:27:53.114Z</time>
      </trkpt>
      <trkpt lat="45.73206" lon="5.57098">
        <ele>695</ele>
        <time>2016-09-27T09:27:57.114Z</time>
      </trkpt>
      <trkpt lat="45.73199" lon="5.57117">
        <ele>695</ele>
        <time>2016-09-27T09:27:59.114Z</time>
      </trkpt>
      <trkpt lat="45.73192" lon="5.57163">
        <ele>687.9</ele>
        <time>2016-09-27T09:28:03.114Z</time>
      </trkpt>
      <trkpt lat="45.73203" lon="5.57302">
        <ele>678.9</ele>
        <time>2016-09-27T09:28:13.114Z</time>
      </trkpt>
      <trkpt lat="45.732" lon="5.57345">
        <ele>676.9</ele>
        <time>2016-09-27T09:28:16.114Z</time>
      </trkpt>
      <trkpt lat="45.73193" lon="5.5737">
        <ele>673.9</ele>
        <time>2016-09-27T09:28:18.114Z</time>
      </trkpt>
      <trkpt lat="45.7318" lon="5.57388">
        <ele>672.9</ele>
        <time>2016-09-27T09:28:20.114Z</time>
      </trkpt>
      <trkpt lat="45.73172" lon="5.57409">
        <ele>671</ele>
        <time>2016-09-27T09:28:22.114Z</time>
      </trkpt>
      <trkpt lat="45.73172" lon="5.5743">
        <ele>670</ele>
        <time>2016-09-27T09:28:24.114Z</time>
      </trkpt>
      <trkpt lat="45.73173" lon="5.57453">
        <ele>668.9</ele>
        <time>2016-09-27T09:28:26.114Z</time>
      </trkpt>
      <trkpt lat="45.73179" lon="5.57476">
        <ele>668</ele>
        <time>2016-09-27T09:28:28.114Z</time>
      </trkpt>
      <trkpt lat="45.73186" lon="5.57494">
        <ele>668</ele>
        <time>2016-09-27T09:28:30.114Z</time>
      </trkpt>
      <trkpt lat="45.7319" lon="5.57529">
        <ele>668</ele>
        <time>2016-09-27T09:28:34.114Z</time>
      </trkpt>
      <trkpt lat="45.73194" lon="5.57605">
        <ele>668</ele>
        <time>2016-09-27T09:28:45.114Z</time>
      </trkpt>
      <trkpt lat="45.73192" lon="5.57619">
        <ele>668.1</ele>
        <time>2016-09-27T09:28:50.114Z</time>
      </trkpt>
      <trkpt lat="45.73191" lon="5.57622">
        <ele>669</ele>
        <time>2016-09-27T09:29:00.114Z</time>
      </trkpt>
      <trkpt lat="45.7319" lon="5.57629">
        <ele>669</ele>
        <time>2016-09-27T09:31:03.114Z</time>
      </trkpt>
      <trkpt lat="45.73187" lon="5.57633">
        <ele>669</ele>
        <time>2016-09-27T09:31:05.114Z</time>
      </trkpt>
      <trkpt lat="45.73179" lon="5.57658">
        <ele>671</ele>
        <time>2016-09-27T09:31:13.114Z</time>
      </trkpt>
      <trkpt lat="45.73181" lon="5.57674">
        <ele>671</ele>
        <time>2016-09-27T09:31:17.114Z</time>
      </trkpt>
      <trkpt lat="45.73193" lon="5.57696">
        <ele>674.2</ele>
        <time>2016-09-27T09:31:25.114Z</time>
      </trkpt>
      <trkpt lat="45.73224" lon="5.57712">
        <ele>681</ele>
        <time>2016-09-27T09:31:43.114Z</time>
      </trkpt>
      <trkpt lat="45.73232" lon="5.57719">
        <ele>683</ele>
        <time>2016-09-27T09:31:48.114Z</time>
      </trkpt>
      <trkpt lat="45.73238" lon="5.5773">
        <ele>684.1</ele>
        <time>2016-09-27T09:31:55.114Z</time>
      </trkpt>
      <trkpt lat="45.73249" lon="5.57759">
        <ele>687</ele>
        <time>2016-09-27T09:32:09.114Z</time>
      </trkpt>
      <trkpt lat="45.73252" lon="5.57774">
        <ele>690</ele>
        <time>2016-09-27T09:32:16.114Z</time>
      </trkpt>
      <trkpt lat="45.73254" lon="5.57788">
        <ele>691</ele>
        <time>2016-09-27T09:32:23.114Z</time>
      </trkpt>
      <trkpt lat="45.7326" lon="5.57802">
        <ele>691</ele>
        <time>2016-09-27T09:32:29.114Z</time>
      </trkpt>
      <trkpt lat="45.73257" lon="5.57816">
        <ele>693</ele>
        <time>2016-09-27T09:32:36.114Z</time>
      </trkpt>
      <trkpt lat="45.73237" lon="5.57854">
        <ele>696</ele>
        <time>2016-09-27T09:32:57.114Z</time>
      </trkpt>
      <trkpt lat="45.73232" lon="5.57868">
        <ele>699.1</ele>
        <time>2016-09-27T09:33:05.114Z</time>
      </trkpt>
      <trkpt lat="45.73234" lon="5.57898">
        <ele>700</ele>
        <time>2016-09-27T09:33:19.114Z</time>
      </trkpt>
      <trkpt lat="45.73237" lon="5.57914">
        <ele>702</ele>
        <time>2016-09-27T09:33:26.114Z</time>
      </trkpt>
      <trkpt lat="45.73241" lon="5.57927">
        <ele>704</ele>
        <time>2016-09-27T09:33:31.114Z</time>
      </trkpt>
      <trkpt lat="45.73244" lon="5.57944">
        <ele>706</ele>
        <time>2016-09-27T09:33:37.114Z</time>
      </trkpt>
      <trkpt lat="45.73243" lon="5.5796">
        <ele>707</ele>
        <time>2016-09-27T09:33:43.114Z</time>
      </trkpt>
      <trkpt lat="45.73239" lon="5.57973">
        <ele>709</ele>
        <time>2016-09-27T09:33:49.114Z</time>
      </trkpt>
      <trkpt lat="45.73238" lon="5.57988">
        <ele>710</ele>
        <time>2016-09-27T09:33:56.114Z</time>
      </trkpt>
      <trkpt lat="45.73238" lon="5.58002">
        <ele>711</ele>
        <time>2016-09-27T09:34:03.114Z</time>
      </trkpt>
      <trkpt lat="45.73239" lon="5.58005">
        <ele>711</ele>
        <time>2016-09-27T09:34:10.114Z</time>
      </trkpt>
      <trkpt lat="45.73237" lon="5.58002">
        <ele>715</ele>
        <time>2016-09-27T09:37:51.114Z</time>
      </trkpt>
      <trkpt lat="45.73236" lon="5.57988">
        <ele>715</ele>
        <time>2016-09-27T09:37:54.114Z</time>
      </trkpt>
      <trkpt lat="45.73248" lon="5.57956">
        <ele>715</ele>
        <time>2016-09-27T09:37:59.114Z</time>
      </trkpt>
      <trkpt lat="45.73232" lon="5.57893">
        <ele>704.9</ele>
        <time>2016-09-27T09:38:04.114Z</time>
      </trkpt>
      <trkpt lat="45.73234" lon="5.57868">
        <ele>702</ele>
        <time>2016-09-27T09:38:06.114Z</time>
      </trkpt>
      <trkpt lat="45.73241" lon="5.57846">
        <ele>699.9</ele>
        <time>2016-09-27T09:38:08.114Z</time>
      </trkpt>
      <trkpt lat="45.73261" lon="5.57811">
        <ele>695.9</ele>
        <time>2016-09-27T09:38:12.114Z</time>
      </trkpt>
      <trkpt lat="45.73259" lon="5.57795">
        <ele>694</ele>
        <time>2016-09-27T09:38:15.114Z</time>
      </trkpt>
      <trkpt lat="45.73253" lon="5.57782">
        <ele>691.8</ele>
        <time>2016-09-27T09:38:17.114Z</time>
      </trkpt>
      <trkpt lat="45.73248" lon="5.57765">
        <ele>688</ele>
        <time>2016-09-27T09:38:19.114Z</time>
      </trkpt>
      <trkpt lat="45.73239" lon="5.57748">
        <ele>685.9</ele>
        <time>2016-09-27T09:38:21.114Z</time>
      </trkpt>
      <trkpt lat="45.73226" lon="5.57733">
        <ele>684.8</ele>
        <time>2016-09-27T09:38:23.114Z</time>
      </trkpt>
      <trkpt lat="45.73193" lon="5.57709">
        <ele>678.9</ele>
        <time>2016-09-27T09:38:27.114Z</time>
      </trkpt>
      <trkpt lat="45.73182" lon="5.57691">
        <ele>676.9</ele>
        <time>2016-09-27T09:38:29.114Z</time>
      </trkpt>
      <trkpt lat="45.73181" lon="5.57669">
        <ele>675</ele>
        <time>2016-09-27T09:38:31.114Z</time>
      </trkpt>
      <trkpt lat="45.73186" lon="5.57648">
        <ele>673.9</ele>
        <time>2016-09-27T09:38:33.114Z</time>
      </trkpt>
      <trkpt lat="45.73192" lon="5.57632">
        <ele>671.9</ele>
        <time>2016-09-27T09:38:35.114Z</time>
      </trkpt>
      <trkpt lat="45.73189" lon="5.57624">
        <ele>670</ele>
        <time>2016-09-27T09:38:49.114Z</time>
      </trkpt>
      <trkpt lat="45.73189" lon="5.57628">
        <ele>670</ele>
        <time>2016-09-27T09:39:16.114Z</time>
      </trkpt>
      <trkpt lat="45.73183" lon="5.5764">
        <ele>670</ele>
        <time>2016-09-27T09:39:20.114Z</time>
      </trkpt>
      <trkpt lat="45.73175" lon="5.57649">
        <ele>670</ele>
        <time>2016-09-27T09:39:23.114Z</time>
      </trkpt>
      <trkpt lat="45.73166" lon="5.5766">
        <ele>670</ele>
        <time>2016-09-27T09:39:26.114Z</time>
      </trkpt>
      <trkpt lat="45.7316" lon="5.57674">
        <ele>670</ele>
        <time>2016-09-27T09:39:28.114Z</time>
      </trkpt>
      <trkpt lat="45.73158" lon="5.57693">
        <ele>669.8</ele>
        <time>2016-09-27T09:39:30.114Z</time>
      </trkpt>
      <trkpt lat="45.73164" lon="5.57709">
        <ele>667</ele>
        <time>2016-09-27T09:39:32.114Z</time>
      </trkpt>
      <trkpt lat="45.73174" lon="5.57723">
        <ele>667</ele>
        <time>2016-09-27T09:39:34.114Z</time>
      </trkpt>
      <trkpt lat="45.73183" lon="5.57739">
        <ele>664</ele>
        <time>2016-09-27T09:39:36.114Z</time>
      </trkpt>
      <trkpt lat="45.73186" lon="5.5776">
        <ele>664</ele>
        <time>2016-09-27T09:39:38.114Z</time>
      </trkpt>
      <trkpt lat="45.73185" lon="5.57778">
        <ele>663.7</ele>
        <time>2016-09-27T09:39:40.114Z</time>
      </trkpt>
      <trkpt lat="45.73172" lon="5.57807">
        <ele>658.9</ele>
        <time>2016-09-27T09:39:44.114Z</time>
      </trkpt>
      <trkpt lat="45.73162" lon="5.57822">
        <ele>657.9</ele>
        <time>2016-09-27T09:39:46.114Z</time>
      </trkpt>
      <trkpt lat="45.73133" lon="5.57849">
        <ele>654.9</ele>
        <time>2016-09-27T09:39:50.114Z</time>
      </trkpt>
      <trkpt lat="45.73098" lon="5.57906">
        <ele>649.9</ele>
        <time>2016-09-27T09:39:56.114Z</time>
      </trkpt>
      <trkpt lat="45.73091" lon="5.57931">
        <ele>648.9</ele>
        <time>2016-09-27T09:39:58.114Z</time>
      </trkpt>
      <trkpt lat="45.73085" lon="5.58051">
        <ele>641.9</ele>
        <time>2016-09-27T09:40:08.114Z</time>
      </trkpt>
      <trkpt lat="45.73072" lon="5.58093">
        <ele>638.9</ele>
        <time>2016-09-27T09:40:12.114Z</time>
      </trkpt>
      <trkpt lat="45.73067" lon="5.58173">
        <ele>633.9</ele>
        <time>2016-09-27T09:40:18.114Z</time>
      </trkpt>
      <trkpt lat="45.73074" lon="5.58199">
        <ele>631</ele>
        <time>2016-09-27T09:40:20.114Z</time>
      </trkpt>
      <trkpt lat="45.73085" lon="5.58219">
        <ele>630</ele>
        <time>2016-09-27T09:40:22.114Z</time>
      </trkpt>
      <trkpt lat="45.731" lon="5.58234">
        <ele>629.9</ele>
        <time>2016-09-27T09:40:24.114Z</time>
      </trkpt>
      <trkpt lat="45.73113" lon="5.58243">
        <ele>628</ele>
        <time>2016-09-27T09:40:26.114Z</time>
      </trkpt>
      <trkpt lat="45.7312" lon="5.58256">
        <ele>627</ele>
        <time>2016-09-27T09:40:30.114Z</time>
      </trkpt>
      <trkpt lat="45.73119" lon="5.58258">
        <ele>627</ele>
        <time>2016-09-27T09:40:36.114Z</time>
      </trkpt>
      <trkpt lat="45.7312" lon="5.58266">
        <ele>626</ele>
        <time>2016-09-27T09:41:39.114Z</time>
      </trkpt>
      <trkpt lat="45.73116" lon="5.58283">
        <ele>626</ele>
        <time>2016-09-27T09:41:42.114Z</time>
      </trkpt>
      <trkpt lat="45.73102" lon="5.58322">
        <ele>626</ele>
        <time>2016-09-27T09:41:46.114Z</time>
      </trkpt>
      <trkpt lat="45.73089" lon="5.58346">
        <ele>626</ele>
        <time>2016-09-27T09:41:48.114Z</time>
      </trkpt>
      <trkpt lat="45.73021" lon="5.5843">
        <ele>603.8</ele>
        <time>2016-09-27T09:41:56.114Z</time>
      </trkpt>
      <trkpt lat="45.72963" lon="5.58487">
        <ele>591.9</ele>
        <time>2016-09-27T09:42:02.114Z</time>
      </trkpt>
      <trkpt lat="45.72939" lon="5.58518">
        <ele>586.9</ele>
        <time>2016-09-27T09:42:05.114Z</time>
      </trkpt>
      <trkpt lat="45.7293" lon="5.58527">
        <ele>585.7</ele>
        <time>2016-09-27T09:42:06.114Z</time>
      </trkpt>
      <trkpt lat="45.72905" lon="5.58559">
        <ele>579.9</ele>
        <time>2016-09-27T09:42:09.114Z</time>
      </trkpt>
      <trkpt lat="45.7289" lon="5.58571">
        <ele>576.8</ele>
        <time>2016-09-27T09:42:11.114Z</time>
      </trkpt>
      <trkpt lat="45.72885" lon="5.58565">
        <ele>575</ele>
        <time>2016-09-27T09:42:21.114Z</time>
      </trkpt>
      <trkpt lat="45.72883" lon="5.58572">
        <ele>575</ele>
        <time>2016-09-27T09:45:54.114Z</time>
      </trkpt>
      <trkpt lat="45.72883" lon="5.58577">
        <ele>575</ele>
        <time>2016-09-27T09:45:56.114Z</time>
      </trkpt>
      <trkpt lat="45.72869" lon="5.58606">
        <ele>574</ele>
        <time>2016-09-27T09:46:04.114Z</time>
      </trkpt>
      <trkpt lat="45.72863" lon="5.58625">
        <ele>574</ele>
        <time>2016-09-27T09:46:07.114Z</time>
      </trkpt>
      <trkpt lat="45.72831" lon="5.58678">
        <ele>573</ele>
        <time>2016-09-27T09:46:17.114Z</time>
      </trkpt>
      <trkpt lat="45.72818" lon="5.58707">
        <ele>570</ele>
        <time>2016-09-27T09:46:21.114Z</time>
      </trkpt>
      <trkpt lat="45.72814" lon="5.5872">
        <ele>570</ele>
        <time>2016-09-27T09:46:23.114Z</time>
      </trkpt>
      <trkpt lat="45.72734" lon="5.58877">
        <ele>564</ele>
        <time>2016-09-27T09:46:43.114Z</time>
      </trkpt>
      <trkpt lat="45.72723" lon="5.58889">
        <ele>563.8</ele>
        <time>2016-09-27T09:46:45.114Z</time>
      </trkpt>
      <trkpt lat="45.7271" lon="5.589">
        <ele>562</ele>
        <time>2016-09-27T09:46:47.114Z</time>
      </trkpt>
      <trkpt lat="45.727" lon="5.58914">
        <ele>562</ele>
        <time>2016-09-27T09:46:49.114Z</time>
      </trkpt>
      <trkpt lat="45.7266" lon="5.58947">
        <ele>560.8</ele>
        <time>2016-09-27T09:46:55.114Z</time>
      </trkpt>
      <trkpt lat="45.72651" lon="5.58959">
        <ele>559</ele>
        <time>2016-09-27T09:46:57.114Z</time>
      </trkpt>
      <trkpt lat="45.72628" lon="5.58982">
        <ele>556</ele>
        <time>2016-09-27T09:47:01.114Z</time>
      </trkpt>
      <trkpt lat="45.72618" lon="5.58995">
        <ele>556</ele>
        <time>2016-09-27T09:47:03.114Z</time>
      </trkpt>
      <trkpt lat="45.72601" lon="5.59022">
        <ele>556</ele>
        <time>2016-09-27T09:47:07.114Z</time>
      </trkpt>
      <trkpt lat="45.72594" lon="5.59035">
        <ele>556</ele>
        <time>2016-09-27T09:47:09.114Z</time>
      </trkpt>
      <trkpt lat="45.72586" lon="5.59049">
        <ele>555</ele>
        <time>2016-09-27T09:47:11.114Z</time>
      </trkpt>
      <trkpt lat="45.72565" lon="5.59074">
        <ele>555</ele>
        <time>2016-09-27T09:47:15.114Z</time>
      </trkpt>
      <trkpt lat="45.72543" lon="5.5911">
        <ele>555</ele>
        <time>2016-09-27T09:47:19.114Z</time>
      </trkpt>
      <trkpt lat="45.72532" lon="5.59125">
        <ele>552</ele>
        <time>2016-09-27T09:47:21.114Z</time>
      </trkpt>
      <trkpt lat="45.72519" lon="5.59136">
        <ele>552</ele>
        <time>2016-09-27T09:47:23.114Z</time>
      </trkpt>
      <trkpt lat="45.72506" lon="5.59143">
        <ele>551.8</ele>
        <time>2016-09-27T09:47:25.114Z</time>
      </trkpt>
      <trkpt lat="45.72497" lon="5.59152">
        <ele>550</ele>
        <time>2016-09-27T09:47:27.114Z</time>
      </trkpt>
      <trkpt lat="45.72483" lon="5.59162">
        <ele>550</ele>
        <time>2016-09-27T09:47:30.114Z</time>
      </trkpt>
      <trkpt lat="45.72472" lon="5.59167">
        <ele>550</ele>
        <time>2016-09-27T09:47:32.114Z</time>
      </trkpt>
      <trkpt lat="45.72463" lon="5.59172">
        <ele>550</ele>
        <time>2016-09-27T09:47:35.114Z</time>
      </trkpt>
      <trkpt lat="45.72462" lon="5.59174">
        <ele>550</ele>
        <time>2016-09-27T09:47:45.114Z</time>
      </trkpt>
      <trkpt lat="45.72454" lon="5.59175">
        <ele>549</ele>
        <time>2016-09-27T09:48:42.114Z</time>
      </trkpt>
      <trkpt lat="45.72452" lon="5.59177">
        <ele>549</ele>
        <time>2016-09-27T09:48:43.114Z</time>
      </trkpt>
      <trkpt lat="45.72442" lon="5.59191">
        <ele>549</ele>
        <time>2016-09-27T09:48:47.114Z</time>
      </trkpt>
      <trkpt lat="45.72434" lon="5.59199">
        <ele>548</ele>
        <time>2016-09-27T09:48:55.114Z</time>
      </trkpt>
      <trkpt lat="45.72434" lon="5.59198">
        <ele>548</ele>
        <time>2016-09-27T09:48:59.114Z</time>
      </trkpt>
      <trkpt lat="45.72439" lon="5.59192">
        <ele>548</ele>
        <time>2016-09-27T09:49:04.114Z</time>
      </trkpt>
      <trkpt lat="45.72442" lon="5.59187">
        <ele>548</ele>
        <time>2016-09-27T09:49:06.114Z</time>
      </trkpt>
      <trkpt lat="45.72451" lon="5.59178">
        <ele>548.1</ele>
        <time>2016-09-27T09:49:10.114Z</time>
      </trkpt>
      <trkpt lat="45.72453" lon="5.59193">
        <ele>550</ele>
        <time>2016-09-27T09:49:25.114Z</time>
      </trkpt>
      <trkpt lat="45.72437" lon="5.59214">
        <ele>550</ele>
        <time>2016-09-27T09:49:36.114Z</time>
      </trkpt>
      <trkpt lat="45.72431" lon="5.59227">
        <ele>550</ele>
        <time>2016-09-27T09:49:41.114Z</time>
      </trkpt>
      <trkpt lat="45.72406" lon="5.59261">
        <ele>552</ele>
        <time>2016-09-27T09:49:54.114Z</time>
      </trkpt>
      <trkpt lat="45.72395" lon="5.59268">
        <ele>552</ele>
        <time>2016-09-27T09:49:58.114Z</time>
      </trkpt>
      <trkpt lat="45.72386" lon="5.59278">
        <ele>553</ele>
        <time>2016-09-27T09:50:02.114Z</time>
      </trkpt>
      <trkpt lat="45.72371" lon="5.593">
        <ele>553.1</ele>
        <time>2016-09-27T09:50:10.114Z</time>
      </trkpt>
      <trkpt lat="45.72362" lon="5.59307">
        <ele>554</ele>
        <time>2016-09-27T09:50:14.114Z</time>
      </trkpt>
      <trkpt lat="45.72354" lon="5.59318">
        <ele>554</ele>
        <time>2016-09-27T09:50:18.114Z</time>
      </trkpt>
      <trkpt lat="45.72348" lon="5.5933">
        <ele>555</ele>
        <time>2016-09-27T09:50:22.114Z</time>
      </trkpt>
      <trkpt lat="45.72318" lon="5.59352">
        <ele>557</ele>
        <time>2016-09-27T09:50:36.114Z</time>
      </trkpt>
      <trkpt lat="45.72311" lon="5.59364">
        <ele>558</ele>
        <time>2016-09-27T09:50:41.114Z</time>
      </trkpt>
      <trkpt lat="45.72295" lon="5.59384">
        <ele>558</ele>
        <time>2016-09-27T09:50:49.114Z</time>
      </trkpt>
      <trkpt lat="45.72261" lon="5.59432">
        <ele>561</ele>
        <time>2016-09-27T09:51:04.114Z</time>
      </trkpt>
      <trkpt lat="45.72256" lon="5.59447">
        <ele>561</ele>
        <time>2016-09-27T09:51:07.114Z</time>
      </trkpt>
      <trkpt lat="45.72241" lon="5.59469">
        <ele>562</ele>
        <time>2016-09-27T09:51:13.114Z</time>
      </trkpt>
      <trkpt lat="45.7223" lon="5.59478">
        <ele>562</ele>
        <time>2016-09-27T09:51:16.114Z</time>
      </trkpt>
      <trkpt lat="45.72213" lon="5.59488">
        <ele>562.2</ele>
        <time>2016-09-27T09:51:20.114Z</time>
      </trkpt>
      <trkpt lat="45.7216" lon="5.59539">
        <ele>566</ele>
        <time>2016-09-27T09:51:44.114Z</time>
      </trkpt>
      <trkpt lat="45.72159" lon="5.59539">
        <ele>566</ele>
        <time>2016-09-27T09:51:49.114Z</time>
      </trkpt>
      <trkpt lat="45.72155" lon="5.5954">
        <ele>567</ele>
        <time>2016-09-27T09:51:58.114Z</time>
      </trkpt>
      <trkpt lat="45.72148" lon="5.59547">
        <ele>568</ele>
        <time>2016-09-27T09:52:03.114Z</time>
      </trkpt>
      <trkpt lat="45.72141" lon="5.59551">
        <ele>568</ele>
        <time>2016-09-27T09:52:06.114Z</time>
      </trkpt>
      <trkpt lat="45.72113" lon="5.59561">
        <ele>568</ele>
        <time>2016-09-27T09:52:16.114Z</time>
      </trkpt>
      <trkpt lat="45.7208" lon="5.59569">
        <ele>568</ele>
        <time>2016-09-27T09:52:28.114Z</time>
      </trkpt>
      <trkpt lat="45.72074" lon="5.59571">
        <ele>568</ele>
        <time>2016-09-27T09:52:30.114Z</time>
      </trkpt>
      <trkpt lat="45.72061" lon="5.59574">
        <ele>568</ele>
        <time>2016-09-27T09:52:34.114Z</time>
      </trkpt>
      <trkpt lat="45.72055" lon="5.59576">
        <ele>568</ele>
        <time>2016-09-27T09:52:36.114Z</time>
      </trkpt>
      <trkpt lat="45.72026" lon="5.5959">
        <ele>569</ele>
        <time>2016-09-27T09:52:47.114Z</time>
      </trkpt>
      <trkpt lat="45.72013" lon="5.59603">
        <ele>570</ele>
        <time>2016-09-27T09:52:53.114Z</time>
      </trkpt>
      <trkpt lat="45.72007" lon="5.59609">
        <ele>570</ele>
        <time>2016-09-27T09:52:56.114Z</time>
      </trkpt>
      <trkpt lat="45.72001" lon="5.59614">
        <ele>570</ele>
        <time>2016-09-27T09:52:59.114Z</time>
      </trkpt>
      <trkpt lat="45.71998" lon="5.59615">
        <ele>573</ele>
        <time>2016-09-27T09:53:05.114Z</time>
      </trkpt>
      <trkpt lat="45.71996" lon="5.59627">
        <ele>572</ele>
        <time>2016-09-27T09:53:33.114Z</time>
      </trkpt>
      <trkpt lat="45.71993" lon="5.59635">
        <ele>572</ele>
        <time>2016-09-27T09:53:38.114Z</time>
      </trkpt>
      <trkpt lat="45.71989" lon="5.59642">
        <ele>573</ele>
        <time>2016-09-27T09:53:43.114Z</time>
      </trkpt>
      <trkpt lat="45.7198" lon="5.5965">
        <ele>573</ele>
        <time>2016-09-27T09:53:47.114Z</time>
      </trkpt>
      <trkpt lat="45.71973" lon="5.59655">
        <ele>573</ele>
        <time>2016-09-27T09:53:49.114Z</time>
      </trkpt>
      <trkpt lat="45.71948" lon="5.59667">
        <ele>572</ele>
        <time>2016-09-27T09:53:57.114Z</time>
      </trkpt>
      <trkpt lat="45.71934" lon="5.59678">
        <ele>571</ele>
        <time>2016-09-27T09:54:01.114Z</time>
      </trkpt>
      <trkpt lat="45.71927" lon="5.5968">
        <ele>571</ele>
        <time>2016-09-27T09:54:03.114Z</time>
      </trkpt>
      <trkpt lat="45.71921" lon="5.5968">
        <ele>571</ele>
        <time>2016-09-27T09:54:05.114Z</time>
      </trkpt>
      <trkpt lat="45.71882" lon="5.59688">
        <ele>568</ele>
        <time>2016-09-27T09:54:13.114Z</time>
      </trkpt>
      <trkpt lat="45.71872" lon="5.59694">
        <ele>567.7</ele>
        <time>2016-09-27T09:54:15.114Z</time>
      </trkpt>
      <trkpt lat="45.71864" lon="5.59701">
        <ele>565</ele>
        <time>2016-09-27T09:54:17.114Z</time>
      </trkpt>
      <trkpt lat="45.71855" lon="5.59707">
        <ele>565</ele>
        <time>2016-09-27T09:54:19.114Z</time>
      </trkpt>
      <trkpt lat="45.71829" lon="5.59732">
        <ele>555.9</ele>
        <time>2016-09-27T09:54:24.114Z</time>
      </trkpt>
      <trkpt lat="45.71816" lon="5.59743">
        <ele>554</ele>
        <time>2016-09-27T09:54:27.114Z</time>
      </trkpt>
      <trkpt lat="45.7181" lon="5.59746">
        <ele>552.9</ele>
        <time>2016-09-27T09:54:29.114Z</time>
      </trkpt>
      <trkpt lat="45.71809" lon="5.59746">
        <ele>552</ele>
        <time>2016-09-27T09:54:34.114Z</time>
      </trkpt>
      <trkpt lat="45.71812" lon="5.59747">
        <ele>553</ele>
        <time>2016-09-27T09:57:03.114Z</time>
      </trkpt>
      <trkpt lat="45.71814" lon="5.59746">
        <ele>553</ele>
        <time>2016-09-27T09:57:04.114Z</time>
      </trkpt>
      <trkpt lat="45.71819" lon="5.59741">
        <ele>553</ele>
        <time>2016-09-27T09:57:07.114Z</time>
      </trkpt>
      <trkpt lat="45.71824" lon="5.59736">
        <ele>553.1</ele>
        <time>2016-09-27T09:57:10.114Z</time>
      </trkpt>
      <trkpt lat="45.7183" lon="5.59732">
        <ele>554</ele>
        <time>2016-09-27T09:57:13.114Z</time>
      </trkpt>
      <trkpt lat="45.71835" lon="5.59726">
        <ele>554</ele>
        <time>2016-09-27T09:57:16.114Z</time>
      </trkpt>
      <trkpt lat="45.71843" lon="5.5972">
        <ele>554.3</ele>
        <time>2016-09-27T09:57:20.114Z</time>
      </trkpt>
      <trkpt lat="45.71848" lon="5.59712">
        <ele>557</ele>
        <time>2016-09-27T09:57:24.114Z</time>
      </trkpt>
      <trkpt lat="45.71854" lon="5.59705">
        <ele>559</ele>
        <time>2016-09-27T09:57:28.114Z</time>
      </trkpt>
      <trkpt lat="45.71873" lon="5.59695">
        <ele>563</ele>
        <time>2016-09-27T09:57:43.114Z</time>
      </trkpt>
      <trkpt lat="45.71878" lon="5.59689">
        <ele>564</ele>
        <time>2016-09-27T09:57:47.114Z</time>
      </trkpt>
      <trkpt lat="45.71884" lon="5.59687">
        <ele>565</ele>
        <time>2016-09-27T09:57:51.114Z</time>
      </trkpt>
      <trkpt lat="45.71891" lon="5.59688">
        <ele>565</ele>
        <time>2016-09-27T09:57:55.114Z</time>
      </trkpt>
      <trkpt lat="45.71908" lon="5.59686">
        <ele>569</ele>
        <time>2016-09-27T09:58:08.114Z</time>
      </trkpt>
      <trkpt lat="45.71921" lon="5.59681">
        <ele>570</ele>
        <time>2016-09-27T09:58:17.114Z</time>
      </trkpt>
      <trkpt lat="45.71934" lon="5.59676">
        <ele>570</ele>
        <time>2016-09-27T09:58:24.114Z</time>
      </trkpt>
      <trkpt lat="45.71942" lon="5.59671">
        <ele>570</ele>
        <time>2016-09-27T09:58:27.114Z</time>
      </trkpt>
      <trkpt lat="45.71961" lon="5.59663">
        <ele>571</ele>
        <time>2016-09-27T09:58:36.114Z</time>
      </trkpt>
      <trkpt lat="45.71966" lon="5.5966">
        <ele>571</ele>
        <time>2016-09-27T09:58:39.114Z</time>
      </trkpt>
      <trkpt lat="45.71972" lon="5.59655">
        <ele>571</ele>
        <time>2016-09-27T09:58:42.114Z</time>
      </trkpt>
      <trkpt lat="45.71989" lon="5.59633">
        <ele>573</ele>
        <time>2016-09-27T09:58:53.114Z</time>
      </trkpt>
      <trkpt lat="45.71998" lon="5.59619">
        <ele>573</ele>
        <time>2016-09-27T09:58:58.114Z</time>
      </trkpt>
      <trkpt lat="45.72009" lon="5.59607">
        <ele>571</ele>
        <time>2016-09-27T09:59:02.114Z</time>
      </trkpt>
      <trkpt lat="45.72013" lon="5.59599">
        <ele>571</ele>
        <time>2016-09-27T09:59:04.114Z</time>
      </trkpt>
      <trkpt lat="45.7202" lon="5.59591">
        <ele>571</ele>
        <time>2016-09-27T09:59:06.114Z</time>
      </trkpt>
      <trkpt lat="45.72044" lon="5.59579">
        <ele>569</ele>
        <time>2016-09-27T09:59:12.114Z</time>
      </trkpt>
      <trkpt lat="45.72074" lon="5.5957">
        <ele>569</ele>
        <time>2016-09-27T09:59:18.114Z</time>
      </trkpt>
      <trkpt lat="45.72083" lon="5.59569">
        <ele>568.9</ele>
        <time>2016-09-27T09:59:20.114Z</time>
      </trkpt>
      <trkpt lat="45.72097" lon="5.59565">
        <ele>568</ele>
        <time>2016-09-27T09:59:24.114Z</time>
      </trkpt>
      <trkpt lat="45.72101" lon="5.59565">
        <ele>568</ele>
        <time>2016-09-27T09:59:25.114Z</time>
      </trkpt>
      <trkpt lat="45.72117" lon="5.59561">
        <ele>568</ele>
        <time>2016-09-27T09:59:29.114Z</time>
      </trkpt>
      <trkpt lat="45.72137" lon="5.59553">
        <ele>567</ele>
        <time>2016-09-27T09:59:34.114Z</time>
      </trkpt>
      <trkpt lat="45.72144" lon="5.5955">
        <ele>567</ele>
        <time>2016-09-27T09:59:36.114Z</time>
      </trkpt>
      <trkpt lat="45.72177" lon="5.59527">
        <ele>566</ele>
        <time>2016-09-27T09:59:46.114Z</time>
      </trkpt>
      <trkpt lat="45.72184" lon="5.5952">
        <ele>564</ele>
        <time>2016-09-27T09:59:54.114Z</time>
      </trkpt>
      <trkpt lat="45.72184" lon="5.5952">
        <ele>564</ele>
        <time>2016-09-27T09:59:56.114Z</time>
      </trkpt>
      <trkpt lat="45.7218" lon="5.59521">
        <ele>562</ele>
        <time>2016-09-27T10:00:08.114Z</time>
      </trkpt>
      <trkpt lat="45.72184" lon="5.59519">
        <ele>562</ele>
        <time>2016-09-27T10:01:25.114Z</time>
      </trkpt>
      <trkpt lat="45.72186" lon="5.59517">
        <ele>562</ele>
        <time>2016-09-27T10:01:26.114Z</time>
      </trkpt>
      <trkpt lat="45.72191" lon="5.59512">
        <ele>562</ele>
        <time>2016-09-27T10:01:29.114Z</time>
      </trkpt>
      <trkpt lat="45.72197" lon="5.59504">
        <ele>562</ele>
        <time>2016-09-27T10:01:33.114Z</time>
      </trkpt>
      <trkpt lat="45.72204" lon="5.59503">
        <ele>562</ele>
        <time>2016-09-27T10:01:37.114Z</time>
      </trkpt>
      <trkpt lat="45.72214" lon="5.59504">
        <ele>564</ele>
        <time>2016-09-27T10:01:43.114Z</time>
      </trkpt>
      <trkpt lat="45.7222" lon="5.59513">
        <ele>566</ele>
        <time>2016-09-27T10:01:51.114Z</time>
      </trkpt>
      <trkpt lat="45.72223" lon="5.59523">
        <ele>569</ele>
        <time>2016-09-27T10:01:57.114Z</time>
      </trkpt>
      <trkpt lat="45.72241" lon="5.5956">
        <ele>575</ele>
        <time>2016-09-27T10:02:19.114Z</time>
      </trkpt>
      <trkpt lat="45.72243" lon="5.59568">
        <ele>575</ele>
        <time>2016-09-27T10:02:23.114Z</time>
      </trkpt>
      <trkpt lat="45.72244" lon="5.59569">
        <ele>574</ele>
        <time>2016-09-27T10:02:28.114Z</time>
      </trkpt>
      <trkpt lat="45.72242" lon="5.59554">
        <ele>571</ele>
        <time>2016-09-27T10:10:23.114Z</time>
      </trkpt>
      <trkpt lat="45.7222" lon="5.59509">
        <ele>570</ele>
        <time>2016-09-27T10:10:36.114Z</time>
      </trkpt>
      <trkpt lat="45.72212" lon="5.59503">
        <ele>570</ele>
        <time>2016-09-27T10:10:39.114Z</time>
      </trkpt>
      <trkpt lat="45.72206" lon="5.59502">
        <ele>562.7</ele>
        <time>2016-09-27T10:10:41.114Z</time>
      </trkpt>
      <trkpt lat="45.72193" lon="5.59508">
        <ele>559</ele>
        <time>2016-09-27T10:10:44.114Z</time>
      </trkpt>
      <trkpt lat="45.7218" lon="5.5952">
        <ele>559</ele>
        <time>2016-09-27T10:10:50.114Z</time>
      </trkpt>
      <trkpt lat="45.72152" lon="5.59516">
        <ele>558</ele>
        <time>2016-09-27T10:11:03.114Z</time>
      </trkpt>
      <trkpt lat="45.72141" lon="5.59516">
        <ele>558</ele>
        <time>2016-09-27T10:11:05.114Z</time>
      </trkpt>
      <trkpt lat="45.72129" lon="5.59513">
        <ele>558</ele>
        <time>2016-09-27T10:11:07.114Z</time>
      </trkpt>
      <trkpt lat="45.72123" lon="5.5951">
        <ele>558</ele>
        <time>2016-09-27T10:11:08.114Z</time>
      </trkpt>
      <trkpt lat="45.72113" lon="5.595">
        <ele>557.7</ele>
        <time>2016-09-27T10:11:10.114Z</time>
      </trkpt>
      <trkpt lat="45.72105" lon="5.59485">
        <ele>554</ele>
        <time>2016-09-27T10:11:12.114Z</time>
      </trkpt>
      <trkpt lat="45.72099" lon="5.59465">
        <ele>554</ele>
        <time>2016-09-27T10:11:14.114Z</time>
      </trkpt>
      <trkpt lat="45.721" lon="5.59444">
        <ele>550</ele>
        <time>2016-09-27T10:11:16.114Z</time>
      </trkpt>
      <trkpt lat="45.72107" lon="5.59429">
        <ele>550</ele>
        <time>2016-09-27T10:11:19.114Z</time>
      </trkpt>
      <trkpt lat="45.72109" lon="5.59427">
        <ele>548</ele>
        <time>2016-09-27T10:11:26.114Z</time>
      </trkpt>
      <trkpt lat="45.72108" lon="5.59422">
        <ele>548</ele>
        <time>2016-09-27T10:11:33.114Z</time>
      </trkpt>
      <trkpt lat="45.7211" lon="5.59418">
        <ele>548</ele>
        <time>2016-09-27T10:11:37.114Z</time>
      </trkpt>
      <trkpt lat="45.72113" lon="5.59408">
        <ele>548</ele>
        <time>2016-09-27T10:11:42.114Z</time>
      </trkpt>
      <trkpt lat="45.72116" lon="5.59403">
        <ele>549</ele>
        <time>2016-09-27T10:11:52.114Z</time>
      </trkpt>
      <trkpt lat="45.72117" lon="5.59398">
        <ele>549</ele>
        <time>2016-09-27T10:11:57.114Z</time>
      </trkpt>
      <trkpt lat="45.72116" lon="5.59388">
        <ele>549</ele>
        <time>2016-09-27T10:12:12.114Z</time>
      </trkpt>
      <trkpt lat="45.72118" lon="5.59384">
        <ele>549</ele>
        <time>2016-09-27T10:12:29.114Z</time>
      </trkpt>
      <trkpt lat="45.72112" lon="5.59351">
        <ele>551</ele>
        <time>2016-09-27T10:12:49.114Z</time>
      </trkpt>
      <trkpt lat="45.72108" lon="5.59344">
        <ele>554</ele>
        <time>2016-09-27T10:12:54.114Z</time>
      </trkpt>
      <trkpt lat="45.72088" lon="5.59326">
        <ele>559</ele>
        <time>2016-09-27T10:13:06.114Z</time>
      </trkpt>
      <trkpt lat="45.72083" lon="5.5932">
        <ele>559</ele>
        <time>2016-09-27T10:13:09.114Z</time>
      </trkpt>
      <trkpt lat="45.72079" lon="5.59311">
        <ele>559</ele>
        <time>2016-09-27T10:13:12.114Z</time>
      </trkpt>
      <trkpt lat="45.72075" lon="5.59302">
        <ele>559</ele>
        <time>2016-09-27T10:13:14.114Z</time>
      </trkpt>
      <trkpt lat="45.72071" lon="5.59294">
        <ele>559</ele>
        <time>2016-09-27T10:13:16.114Z</time>
      </trkpt>
      <trkpt lat="45.72069" lon="5.59283">
        <ele>559</ele>
        <time>2016-09-27T10:13:19.114Z</time>
      </trkpt>
      <trkpt lat="45.72078" lon="5.59188">
        <ele>571</ele>
        <time>2016-09-27T10:14:11.114Z</time>
      </trkpt>
      <trkpt lat="45.72079" lon="5.59186">
        <ele>571</ele>
        <time>2016-09-27T10:14:16.114Z</time>
      </trkpt>
      <trkpt lat="45.72077" lon="5.59191">
        <ele>570</ele>
        <time>2016-09-27T10:19:13.114Z</time>
      </trkpt>
      <trkpt lat="45.72052" lon="5.59214">
        <ele>571</ele>
        <time>2016-09-27T10:19:24.114Z</time>
      </trkpt>
      <trkpt lat="45.72011" lon="5.59261">
        <ele>572</ele>
        <time>2016-09-27T10:19:38.114Z</time>
      </trkpt>
      <trkpt lat="45.71961" lon="5.59307">
        <ele>574</ele>
        <time>2016-09-27T10:19:56.114Z</time>
      </trkpt>
      <trkpt lat="45.71933" lon="5.59326">
        <ele>572</ele>
        <time>2016-09-27T10:20:02.114Z</time>
      </trkpt>
      <trkpt lat="45.7192" lon="5.59338">
        <ele>572</ele>
        <time>2016-09-27T10:20:05.114Z</time>
      </trkpt>
      <trkpt lat="45.71912" lon="5.59342">
        <ele>572</ele>
        <time>2016-09-27T10:20:07.114Z</time>
      </trkpt>
      <trkpt lat="45.71905" lon="5.59342">
        <ele>572.3</ele>
        <time>2016-09-27T10:20:09.114Z</time>
      </trkpt>
      <trkpt lat="45.71898" lon="5.59339">
        <ele>575</ele>
        <time>2016-09-27T10:20:11.114Z</time>
      </trkpt>
      <trkpt lat="45.71892" lon="5.59335">
        <ele>575</ele>
        <time>2016-09-27T10:20:13.114Z</time>
      </trkpt>
      <trkpt lat="45.71887" lon="5.59333">
        <ele>576</ele>
        <time>2016-09-27T10:20:15.114Z</time>
      </trkpt>
      <trkpt lat="45.7188" lon="5.59332">
        <ele>576</ele>
        <time>2016-09-27T10:20:17.114Z</time>
      </trkpt>
      <trkpt lat="45.71865" lon="5.59334">
        <ele>575</ele>
        <time>2016-09-27T10:20:21.114Z</time>
      </trkpt>
      <trkpt lat="45.71857" lon="5.59337">
        <ele>575</ele>
        <time>2016-09-27T10:20:23.114Z</time>
      </trkpt>
      <trkpt lat="45.71845" lon="5.59346">
        <ele>575</ele>
        <time>2016-09-27T10:20:26.114Z</time>
      </trkpt>
      <trkpt lat="45.71834" lon="5.59355">
        <ele>574.8</ele>
        <time>2016-09-27T10:20:29.114Z</time>
      </trkpt>
      <trkpt lat="45.7176" lon="5.59437">
        <ele>571</ele>
        <time>2016-09-27T10:20:47.114Z</time>
      </trkpt>
      <trkpt lat="45.71745" lon="5.59457">
        <ele>571</ele>
        <time>2016-09-27T10:20:51.114Z</time>
      </trkpt>
      <trkpt lat="45.7174" lon="5.59467">
        <ele>571</ele>
        <time>2016-09-27T10:20:53.114Z</time>
      </trkpt>
      <trkpt lat="45.71738" lon="5.59479">
        <ele>571</ele>
        <time>2016-09-27T10:20:55.114Z</time>
      </trkpt>
      <trkpt lat="45.71737" lon="5.59505">
        <ele>570.7</ele>
        <time>2016-09-27T10:20:59.114Z</time>
      </trkpt>
      <trkpt lat="45.71733" lon="5.59518">
        <ele>567</ele>
        <time>2016-09-27T10:21:01.114Z</time>
      </trkpt>
      <trkpt lat="45.71726" lon="5.59527">
        <ele>567</ele>
        <time>2016-09-27T10:21:03.114Z</time>
      </trkpt>
      <trkpt lat="45.71682" lon="5.59564">
        <ele>567</ele>
        <time>2016-09-27T10:21:14.114Z</time>
      </trkpt>
      <trkpt lat="45.71672" lon="5.59571">
        <ele>567</ele>
        <time>2016-09-27T10:21:16.114Z</time>
      </trkpt>
      <trkpt lat="45.71667" lon="5.59573">
        <ele>567</ele>
        <time>2016-09-27T10:21:17.114Z</time>
      </trkpt>
      <trkpt lat="45.71656" lon="5.59578">
        <ele>566.9</ele>
        <time>2016-09-27T10:21:19.114Z</time>
      </trkpt>
      <trkpt lat="45.71648" lon="5.59583">
        <ele>566</ele>
        <time>2016-09-27T10:21:21.114Z</time>
      </trkpt>
      <trkpt lat="45.7164" lon="5.59589">
        <ele>566</ele>
        <time>2016-09-27T10:21:23.114Z</time>
      </trkpt>
      <trkpt lat="45.71634" lon="5.59596">
        <ele>566</ele>
        <time>2016-09-27T10:21:25.114Z</time>
      </trkpt>
      <trkpt lat="45.71628" lon="5.59604">
        <ele>566</ele>
        <time>2016-09-27T10:21:27.114Z</time>
      </trkpt>
      <trkpt lat="45.71622" lon="5.59609">
        <ele>566.3</ele>
        <time>2016-09-27T10:21:29.114Z</time>
      </trkpt>
      <trkpt lat="45.71609" lon="5.59618">
        <ele>569</ele>
        <time>2016-09-27T10:21:33.114Z</time>
      </trkpt>
      <trkpt lat="45.71603" lon="5.59624">
        <ele>571</ele>
        <time>2016-09-27T10:21:35.114Z</time>
      </trkpt>
      <trkpt lat="45.71583" lon="5.59654">
        <ele>572</ele>
        <time>2016-09-27T10:21:43.114Z</time>
      </trkpt>
      <trkpt lat="45.71577" lon="5.59661">
        <ele>574</ele>
        <time>2016-09-27T10:21:45.114Z</time>
      </trkpt>
      <trkpt lat="45.71571" lon="5.59666">
        <ele>574</ele>
        <time>2016-09-27T10:21:47.114Z</time>
      </trkpt>
      <trkpt lat="45.71541" lon="5.59681">
        <ele>577.1</ele>
        <time>2016-09-27T10:21:59.114Z</time>
      </trkpt>
      <trkpt lat="45.71518" lon="5.59699">
        <ele>579</ele>
        <time>2016-09-27T10:22:10.114Z</time>
      </trkpt>
      <trkpt lat="45.71513" lon="5.59702">
        <ele>579</ele>
        <time>2016-09-27T10:22:13.114Z</time>
      </trkpt>
      <trkpt lat="45.71508" lon="5.59706">
        <ele>579</ele>
        <time>2016-09-27T10:22:16.114Z</time>
      </trkpt>
      <trkpt lat="45.71503" lon="5.5971">
        <ele>579.1</ele>
        <time>2016-09-27T10:22:19.114Z</time>
      </trkpt>
      <trkpt lat="45.71499" lon="5.59716">
        <ele>580</ele>
        <time>2016-09-27T10:22:22.114Z</time>
      </trkpt>
      <trkpt lat="45.71489" lon="5.59725">
        <ele>580</ele>
        <time>2016-09-27T10:22:28.114Z</time>
      </trkpt>
      <trkpt lat="45.71485" lon="5.5973">
        <ele>583</ele>
        <time>2016-09-27T10:22:31.114Z</time>
      </trkpt>
      <trkpt lat="45.71478" lon="5.59746">
        <ele>585</ele>
        <time>2016-09-27T10:22:37.114Z</time>
      </trkpt>
      <trkpt lat="45.71475" lon="5.59751">
        <ele>585</ele>
        <time>2016-09-27T10:22:39.114Z</time>
      </trkpt>
      <trkpt lat="45.71466" lon="5.59762">
        <ele>585</ele>
        <time>2016-09-27T10:22:44.114Z</time>
      </trkpt>
      <trkpt lat="45.7146" lon="5.59772">
        <ele>585</ele>
        <time>2016-09-27T10:22:48.114Z</time>
      </trkpt>
      <trkpt lat="45.71457" lon="5.5978">
        <ele>588</ele>
        <time>2016-09-27T10:22:51.114Z</time>
      </trkpt>
      <trkpt lat="45.7145" lon="5.59804">
        <ele>591</ele>
        <time>2016-09-27T10:23:00.114Z</time>
      </trkpt>
      <trkpt lat="45.71448" lon="5.59812">
        <ele>591</ele>
        <time>2016-09-27T10:23:03.114Z</time>
      </trkpt>
      <trkpt lat="45.71437" lon="5.5983">
        <ele>592</ele>
        <time>2016-09-27T10:23:12.114Z</time>
      </trkpt>
      <trkpt lat="45.71428" lon="5.59839">
        <ele>592</ele>
        <time>2016-09-27T10:23:17.114Z</time>
      </trkpt>
      <trkpt lat="45.71421" lon="5.59845">
        <ele>592</ele>
        <time>2016-09-27T10:23:21.114Z</time>
      </trkpt>
      <trkpt lat="45.71412" lon="5.59851">
        <ele>592</ele>
        <time>2016-09-27T10:23:26.114Z</time>
      </trkpt>
      <trkpt lat="45.71407" lon="5.59855">
        <ele>592</ele>
        <time>2016-09-27T10:23:29.114Z</time>
      </trkpt>
      <trkpt lat="45.71397" lon="5.59861">
        <ele>592</ele>
        <time>2016-09-27T10:23:34.114Z</time>
      </trkpt>
      <trkpt lat="45.71392" lon="5.59863">
        <ele>592</ele>
        <time>2016-09-27T10:23:36.114Z</time>
      </trkpt>
      <trkpt lat="45.71387" lon="5.59865">
        <ele>592</ele>
        <time>2016-09-27T10:23:38.114Z</time>
      </trkpt>
      <trkpt lat="45.71346" lon="5.59888">
        <ele>592</ele>
        <time>2016-09-27T10:23:52.114Z</time>
      </trkpt>
      <trkpt lat="45.71317" lon="5.59909">
        <ele>592</ele>
        <time>2016-09-27T10:24:03.114Z</time>
      </trkpt>
      <trkpt lat="45.71307" lon="5.59915">
        <ele>592</ele>
        <time>2016-09-27T10:24:06.114Z</time>
      </trkpt>
      <trkpt lat="45.71292" lon="5.59925">
        <ele>592</ele>
        <time>2016-09-27T10:24:10.114Z</time>
      </trkpt>
      <trkpt lat="45.71281" lon="5.5993">
        <ele>592</ele>
        <time>2016-09-27T10:24:13.114Z</time>
      </trkpt>
      <trkpt lat="45.71277" lon="5.59932">
        <ele>592</ele>
        <time>2016-09-27T10:24:14.114Z</time>
      </trkpt>
      <trkpt lat="45.71273" lon="5.59932">
        <ele>592</ele>
        <time>2016-09-27T10:24:15.114Z</time>
      </trkpt>
      <trkpt lat="45.71269" lon="5.59931">
        <ele>592</ele>
        <time>2016-09-27T10:24:16.114Z</time>
      </trkpt>
      <trkpt lat="45.71257" lon="5.59928">
        <ele>591.9</ele>
        <time>2016-09-27T10:24:19.114Z</time>
      </trkpt>
      <trkpt lat="45.71241" lon="5.59923">
        <ele>591</ele>
        <time>2016-09-27T10:24:23.114Z</time>
      </trkpt>
      <trkpt lat="45.71236" lon="5.59922">
        <ele>591</ele>
        <time>2016-09-27T10:24:24.114Z</time>
      </trkpt>
      <trkpt lat="45.71232" lon="5.59922">
        <ele>591</ele>
        <time>2016-09-27T10:24:25.114Z</time>
      </trkpt>
      <trkpt lat="45.71224" lon="5.59923">
        <ele>591</ele>
        <time>2016-09-27T10:24:27.114Z</time>
      </trkpt>
      <trkpt lat="45.71216" lon="5.59924">
        <ele>587</ele>
        <time>2016-09-27T10:24:36.114Z</time>
      </trkpt>
      <trkpt lat="45.71213" lon="5.59927">
        <ele>588</ele>
        <time>2016-09-27T10:26:45.114Z</time>
      </trkpt>
      <trkpt lat="45.71127" lon="5.59958">
        <ele>585.2</ele>
        <time>2016-09-27T10:26:59.114Z</time>
      </trkpt>
      <trkpt lat="45.71111" lon="5.59967">
        <ele>575.9</ele>
        <time>2016-09-27T10:27:01.114Z</time>
      </trkpt>
      <trkpt lat="45.71031" lon="5.60021">
        <ele>567</ele>
        <time>2016-09-27T10:27:10.114Z</time>
      </trkpt>
      <trkpt lat="45.71014" lon="5.6003">
        <ele>565.9</ele>
        <time>2016-09-27T10:27:12.114Z</time>
      </trkpt>
      <trkpt lat="45.71004" lon="5.60036">
        <ele>565</ele>
        <time>2016-09-27T10:27:14.114Z</time>
      </trkpt>
      <trkpt lat="45.70981" lon="5.60059">
        <ele>564</ele>
        <time>2016-09-27T10:27:27.114Z</time>
      </trkpt>
      <trkpt lat="45.70933" lon="5.6011">
        <ele>558</ele>
        <time>2016-09-27T10:27:36.114Z</time>
      </trkpt>
      <trkpt lat="45.70909" lon="5.6014">
        <ele>553.9</ele>
        <time>2016-09-27T10:27:40.114Z</time>
      </trkpt>
      <trkpt lat="45.7084" lon="5.60247">
        <ele>544.9</ele>
        <time>2016-09-27T10:27:52.114Z</time>
      </trkpt>
      <trkpt lat="45.70833" lon="5.60255">
        <ele>544</ele>
        <time>2016-09-27T10:27:56.114Z</time>
      </trkpt>
      <trkpt lat="45.70835" lon="5.60246">
        <ele>544</ele>
        <time>2016-09-27T10:28:04.114Z</time>
      </trkpt>
      <trkpt lat="45.70836" lon="5.60244">
        <ele>544</ele>
        <time>2016-09-27T10:28:09.114Z</time>
      </trkpt>
      <trkpt lat="45.70835" lon="5.60247">
        <ele>544</ele>
        <time>2016-09-27T10:28:12.114Z</time>
      </trkpt>
      <trkpt lat="45.70833" lon="5.60255">
        <ele>544</ele>
        <time>2016-09-27T10:28:16.114Z</time>
      </trkpt>
      <trkpt lat="45.70835" lon="5.60258">
        <ele>544</ele>
        <time>2016-09-27T10:28:23.114Z</time>
      </trkpt>
      <trkpt lat="45.70831" lon="5.60263">
        <ele>544</ele>
        <time>2016-09-27T10:28:37.114Z</time>
      </trkpt>
      <trkpt lat="45.70831" lon="5.60263">
        <ele>544</ele>
        <time>2016-09-27T10:28:43.114Z</time>
      </trkpt>
      <trkpt lat="45.70829" lon="5.60266">
        <ele>543</ele>
        <time>2016-09-27T10:29:00.114Z</time>
      </trkpt>
      <trkpt lat="45.70824" lon="5.60278">
        <ele>543</ele>
        <time>2016-09-27T10:29:03.114Z</time>
      </trkpt>
      <trkpt lat="45.70818" lon="5.60288">
        <ele>543</ele>
        <time>2016-09-27T10:29:05.114Z</time>
      </trkpt>
      <trkpt lat="45.7081" lon="5.60299">
        <ele>543</ele>
        <time>2016-09-27T10:29:07.114Z</time>
      </trkpt>
      <trkpt lat="45.70788" lon="5.60322">
        <ele>540</ele>
        <time>2016-09-27T10:29:11.114Z</time>
      </trkpt>
      <trkpt lat="45.70745" lon="5.60357">
        <ele>540</ele>
        <time>2016-09-27T10:29:23.114Z</time>
      </trkpt>
      <trkpt lat="45.70698" lon="5.60383">
        <ele>538</ele>
        <time>2016-09-27T10:29:32.114Z</time>
      </trkpt>
      <trkpt lat="45.7061" lon="5.60403">
        <ele>536</ele>
        <time>2016-09-27T10:29:46.114Z</time>
      </trkpt>
      <trkpt lat="45.70601" lon="5.60404">
        <ele>536</ele>
        <time>2016-09-27T10:29:48.114Z</time>
      </trkpt>
      <trkpt lat="45.70592" lon="5.60404">
        <ele>537</ele>
        <time>2016-09-27T10:29:50.114Z</time>
      </trkpt>
      <trkpt lat="45.70583" lon="5.60406">
        <ele>537</ele>
        <time>2016-09-27T10:29:52.114Z</time>
      </trkpt>
      <trkpt lat="45.70573" lon="5.60411">
        <ele>537</ele>
        <time>2016-09-27T10:29:55.114Z</time>
      </trkpt>
      <trkpt lat="45.70567" lon="5.60424">
        <ele>537</ele>
        <time>2016-09-27T10:30:00.114Z</time>
      </trkpt>
      <trkpt lat="45.70536" lon="5.60546">
        <ele>542</ele>
        <time>2016-09-27T10:30:32.114Z</time>
      </trkpt>
      <trkpt lat="45.7053" lon="5.60555">
        <ele>542</ele>
        <time>2016-09-27T10:30:35.114Z</time>
      </trkpt>
      <trkpt lat="45.70523" lon="5.60559">
        <ele>542</ele>
        <time>2016-09-27T10:30:38.114Z</time>
      </trkpt>
      <trkpt lat="45.70515" lon="5.60557">
        <ele>544</ele>
        <time>2016-09-27T10:30:41.114Z</time>
      </trkpt>
      <trkpt lat="45.7051" lon="5.6055">
        <ele>544.1</ele>
        <time>2016-09-27T10:30:44.114Z</time>
      </trkpt>
      <trkpt lat="45.70504" lon="5.60539">
        <ele>545</ele>
        <time>2016-09-27T10:30:47.114Z</time>
      </trkpt>
      <trkpt lat="45.70495" lon="5.60528">
        <ele>545</ele>
        <time>2016-09-27T10:30:50.114Z</time>
      </trkpt>
      <trkpt lat="45.70486" lon="5.60523">
        <ele>545</ele>
        <time>2016-09-27T10:30:52.114Z</time>
      </trkpt>
      <trkpt lat="45.70478" lon="5.60524">
        <ele>545</ele>
        <time>2016-09-27T10:30:54.114Z</time>
      </trkpt>
      <trkpt lat="45.70434" lon="5.60534">
        <ele>545</ele>
        <time>2016-09-27T10:31:04.114Z</time>
      </trkpt>
      <trkpt lat="45.70429" lon="5.60536">
        <ele>545</ele>
        <time>2016-09-27T10:31:05.114Z</time>
      </trkpt>
      <trkpt lat="45.70409" lon="5.60548">
        <ele>544.9</ele>
        <time>2016-09-27T10:31:09.114Z</time>
      </trkpt>
      <trkpt lat="45.70399" lon="5.60554">
        <ele>544</ele>
        <time>2016-09-27T10:31:11.114Z</time>
      </trkpt>
      <trkpt lat="45.70365" lon="5.60583">
        <ele>544</ele>
        <time>2016-09-27T10:31:18.114Z</time>
      </trkpt>
      <trkpt lat="45.70359" lon="5.60586">
        <ele>544</ele>
        <time>2016-09-27T10:31:19.114Z</time>
      </trkpt>
      <trkpt lat="45.70353" lon="5.60589">
        <ele>544</ele>
        <time>2016-09-27T10:31:20.114Z</time>
      </trkpt>
      <trkpt lat="45.70342" lon="5.60593">
        <ele>544</ele>
        <time>2016-09-27T10:31:22.114Z</time>
      </trkpt>
      <trkpt lat="45.70324" lon="5.60595">
        <ele>544</ele>
        <time>2016-09-27T10:31:25.114Z</time>
      </trkpt>
      <trkpt lat="45.70307" lon="5.60596">
        <ele>544</ele>
        <time>2016-09-27T10:31:28.114Z</time>
      </trkpt>
      <trkpt lat="45.70269" lon="5.60604">
        <ele>542</ele>
        <time>2016-09-27T10:31:35.114Z</time>
      </trkpt>
      <trkpt lat="45.70251" lon="5.60605">
        <ele>542</ele>
        <time>2016-09-27T10:31:38.114Z</time>
      </trkpt>
      <trkpt lat="45.70245" lon="5.60607">
        <ele>541.8</ele>
        <time>2016-09-27T10:31:39.114Z</time>
      </trkpt>
      <trkpt lat="45.70239" lon="5.6061">
        <ele>540</ele>
        <time>2016-09-27T10:31:40.114Z</time>
      </trkpt>
      <trkpt lat="45.70228" lon="5.60619">
        <ele>540</ele>
        <time>2016-09-27T10:31:42.114Z</time>
      </trkpt>
      <trkpt lat="45.70217" lon="5.60627">
        <ele>540</ele>
        <time>2016-09-27T10:31:44.114Z</time>
      </trkpt>
      <trkpt lat="45.70205" lon="5.6063">
        <ele>540</ele>
        <time>2016-09-27T10:31:47.114Z</time>
      </trkpt>
      <trkpt lat="45.70197" lon="5.6063">
        <ele>540</ele>
        <time>2016-09-27T10:31:50.114Z</time>
      </trkpt>
      <trkpt lat="45.70186" lon="5.60626">
        <ele>540</ele>
        <time>2016-09-27T10:31:54.114Z</time>
      </trkpt>
      <trkpt lat="45.70177" lon="5.60621">
        <ele>540.4</ele>
        <time>2016-09-27T10:31:59.114Z</time>
      </trkpt>
      <trkpt lat="45.7017" lon="5.60615">
        <ele>546.1</ele>
        <time>2016-09-27T10:32:04.114Z</time>
      </trkpt>
      <trkpt lat="45.70162" lon="5.6061">
        <ele>548</ele>
        <time>2016-09-27T10:32:08.114Z</time>
      </trkpt>
      <trkpt lat="45.70144" lon="5.60586">
        <ele>553</ele>
        <time>2016-09-27T10:32:26.114Z</time>
      </trkpt>
      <trkpt lat="45.70137" lon="5.60575">
        <ele>553</ele>
        <time>2016-09-27T10:32:31.114Z</time>
      </trkpt>
      <trkpt lat="45.70132" lon="5.60568">
        <ele>553</ele>
        <time>2016-09-27T10:32:36.114Z</time>
      </trkpt>
      <trkpt lat="45.70126" lon="5.60558">
        <ele>556</ele>
        <time>2016-09-27T10:32:42.114Z</time>
      </trkpt>
      <trkpt lat="45.70118" lon="5.6055">
        <ele>557</ele>
        <time>2016-09-27T10:32:47.114Z</time>
      </trkpt>
      <trkpt lat="45.70113" lon="5.60542">
        <ele>558</ele>
        <time>2016-09-27T10:32:52.114Z</time>
      </trkpt>
      <trkpt lat="45.70093" lon="5.60518">
        <ele>562</ele>
        <time>2016-09-27T10:33:11.114Z</time>
      </trkpt>
      <trkpt lat="45.70086" lon="5.60513">
        <ele>562</ele>
        <time>2016-09-27T10:33:15.114Z</time>
      </trkpt>
      <trkpt lat="45.70074" lon="5.60496">
        <ele>564</ele>
        <time>2016-09-27T10:33:25.114Z</time>
      </trkpt>
      <trkpt lat="45.70069" lon="5.60488">
        <ele>566</ele>
        <time>2016-09-27T10:33:31.114Z</time>
      </trkpt>
      <trkpt lat="45.70052" lon="5.6044">
        <ele>571.1</ele>
        <time>2016-09-27T10:33:54.114Z</time>
      </trkpt>
      <trkpt lat="45.70036" lon="5.60418">
        <ele>573</ele>
        <time>2016-09-27T10:34:06.114Z</time>
      </trkpt>
      <trkpt lat="45.70027" lon="5.60399">
        <ele>575</ele>
        <time>2016-09-27T10:34:14.114Z</time>
      </trkpt>
      <trkpt lat="45.70021" lon="5.60393">
        <ele>575</ele>
        <time>2016-09-27T10:34:18.114Z</time>
      </trkpt>
      <trkpt lat="45.70018" lon="5.60402">
        <ele>577</ele>
        <time>2016-09-27T10:34:24.114Z</time>
      </trkpt>
      <trkpt lat="45.70028" lon="5.6043">
        <ele>578</ele>
        <time>2016-09-27T10:34:37.114Z</time>
      </trkpt>
      <trkpt lat="45.70033" lon="5.6044">
        <ele>580</ele>
        <time>2016-09-27T10:34:41.114Z</time>
      </trkpt>
      <trkpt lat="45.70039" lon="5.60465">
        <ele>580.2</ele>
        <time>2016-09-27T10:34:49.114Z</time>
      </trkpt>
      <trkpt lat="45.70038" lon="5.60475">
        <ele>582</ele>
        <time>2016-09-27T10:34:53.114Z</time>
      </trkpt>
      <trkpt lat="45.70035" lon="5.60483">
        <ele>584</ele>
        <time>2016-09-27T10:34:57.114Z</time>
      </trkpt>
      <trkpt lat="45.7003" lon="5.60492">
        <ele>586</ele>
        <time>2016-09-27T10:35:01.114Z</time>
      </trkpt>
      <trkpt lat="45.70027" lon="5.605">
        <ele>586</ele>
        <time>2016-09-27T10:35:05.114Z</time>
      </trkpt>
      <trkpt lat="45.70023" lon="5.60519">
        <ele>588</ele>
        <time>2016-09-27T10:35:12.114Z</time>
      </trkpt>
      <trkpt lat="45.70023" lon="5.60539">
        <ele>589</ele>
        <time>2016-09-27T10:35:20.114Z</time>
      </trkpt>
      <trkpt lat="45.70026" lon="5.60549">
        <ele>589</ele>
        <time>2016-09-27T10:35:25.114Z</time>
      </trkpt>
      <trkpt lat="45.70031" lon="5.60558">
        <ele>591</ele>
        <time>2016-09-27T10:35:30.114Z</time>
      </trkpt>
      <trkpt lat="45.70037" lon="5.60565">
        <ele>591</ele>
        <time>2016-09-27T10:35:35.114Z</time>
      </trkpt>
      <trkpt lat="45.70041" lon="5.60573">
        <ele>591.2</ele>
        <time>2016-09-27T10:35:39.114Z</time>
      </trkpt>
      <trkpt lat="45.70049" lon="5.60593">
        <ele>593.2</ele>
        <time>2016-09-27T10:35:49.114Z</time>
      </trkpt>
      <trkpt lat="45.70057" lon="5.60627">
        <ele>598.1</ele>
        <time>2016-09-27T10:36:04.114Z</time>
      </trkpt>
      <trkpt lat="45.70054" lon="5.60676">
        <ele>603</ele>
        <time>2016-09-27T10:36:28.114Z</time>
      </trkpt>
      <trkpt lat="45.70051" lon="5.60688">
        <ele>605</ele>
        <time>2016-09-27T10:36:34.114Z</time>
      </trkpt>
      <trkpt lat="45.70049" lon="5.60712">
        <ele>607</ele>
        <time>2016-09-27T10:36:45.114Z</time>
      </trkpt>
      <trkpt lat="45.70055" lon="5.60772">
        <ele>614</ele>
        <time>2016-09-27T10:37:13.114Z</time>
      </trkpt>
      <trkpt lat="45.7006" lon="5.60782">
        <ele>616</ele>
        <time>2016-09-27T10:37:20.114Z</time>
      </trkpt>
      <trkpt lat="45.70068" lon="5.60787">
        <ele>616</ele>
        <time>2016-09-27T10:37:27.114Z</time>
      </trkpt>
      <trkpt lat="45.70076" lon="5.60792">
        <ele>617</ele>
        <time>2016-09-27T10:37:32.114Z</time>
      </trkpt>
      <trkpt lat="45.70082" lon="5.60796">
        <ele>617</ele>
        <time>2016-09-27T10:37:36.114Z</time>
      </trkpt>
      <trkpt lat="45.70088" lon="5.60805">
        <ele>619</ele>
        <time>2016-09-27T10:37:41.114Z</time>
      </trkpt>
      <trkpt lat="45.70093" lon="5.60815">
        <ele>619</ele>
        <time>2016-09-27T10:37:46.114Z</time>
      </trkpt>
      <trkpt lat="45.70095" lon="5.60827">
        <ele>621</ele>
        <time>2016-09-27T10:37:51.114Z</time>
      </trkpt>
      <trkpt lat="45.70091" lon="5.60837">
        <ele>621</ele>
        <time>2016-09-27T10:37:58.114Z</time>
      </trkpt>
      <trkpt lat="45.70082" lon="5.60856">
        <ele>626</ele>
        <time>2016-09-27T10:38:10.114Z</time>
      </trkpt>
      <trkpt lat="45.7008" lon="5.60865">
        <ele>627</ele>
        <time>2016-09-27T10:38:16.114Z</time>
      </trkpt>
      <trkpt lat="45.70076" lon="5.60874">
        <ele>628</ele>
        <time>2016-09-27T10:38:22.114Z</time>
      </trkpt>
      <trkpt lat="45.70066" lon="5.6089">
        <ele>630</ele>
        <time>2016-09-27T10:38:34.114Z</time>
      </trkpt>
      <trkpt lat="45.7006" lon="5.60896">
        <ele>632</ele>
        <time>2016-09-27T10:38:40.114Z</time>
      </trkpt>
      <trkpt lat="45.70052" lon="5.609">
        <ele>632</ele>
        <time>2016-09-27T10:38:46.114Z</time>
      </trkpt>
      <trkpt lat="45.70045" lon="5.60901">
        <ele>634</ele>
        <time>2016-09-27T10:38:52.114Z</time>
      </trkpt>
      <trkpt lat="45.70037" lon="5.60901">
        <ele>634</ele>
        <time>2016-09-27T10:38:57.114Z</time>
      </trkpt>
      <trkpt lat="45.7003" lon="5.60902">
        <ele>636</ele>
        <time>2016-09-27T10:39:02.114Z</time>
      </trkpt>
      <trkpt lat="45.70022" lon="5.60901">
        <ele>638</ele>
        <time>2016-09-27T10:39:08.114Z</time>
      </trkpt>
      <trkpt lat="45.70014" lon="5.60902">
        <ele>639</ele>
        <time>2016-09-27T10:39:13.114Z</time>
      </trkpt>
      <trkpt lat="45.70006" lon="5.60899">
        <ele>640.2</ele>
        <time>2016-09-27T10:39:19.114Z</time>
      </trkpt>
      <trkpt lat="45.69998" lon="5.60898">
        <ele>643</ele>
        <time>2016-09-27T10:39:25.114Z</time>
      </trkpt>
      <trkpt lat="45.6999" lon="5.60895">
        <ele>643</ele>
        <time>2016-09-27T10:39:30.114Z</time>
      </trkpt>
      <trkpt lat="45.69972" lon="5.60885">
        <ele>643</ele>
        <time>2016-09-27T10:39:39.114Z</time>
      </trkpt>
      <trkpt lat="45.69955" lon="5.6087">
        <ele>643</ele>
        <time>2016-09-27T10:39:48.114Z</time>
      </trkpt>
      <trkpt lat="45.69949" lon="5.60867">
        <ele>645</ele>
        <time>2016-09-27T10:39:52.114Z</time>
      </trkpt>
      <trkpt lat="45.69943" lon="5.60869">
        <ele>645</ele>
        <time>2016-09-27T10:39:56.114Z</time>
      </trkpt>
      <trkpt lat="45.69945" lon="5.60879">
        <ele>648</ele>
        <time>2016-09-27T10:40:04.114Z</time>
      </trkpt>
      <trkpt lat="45.69952" lon="5.60884">
        <ele>648</ele>
        <time>2016-09-27T10:40:08.114Z</time>
      </trkpt>
      <trkpt lat="45.6996" lon="5.60892">
        <ele>648</ele>
        <time>2016-09-27T10:40:13.114Z</time>
      </trkpt>
      <trkpt lat="45.69968" lon="5.60898">
        <ele>648</ele>
        <time>2016-09-27T10:40:18.114Z</time>
      </trkpt>
      <trkpt lat="45.69992" lon="5.60923">
        <ele>652</ele>
        <time>2016-09-27T10:40:31.114Z</time>
      </trkpt>
      <trkpt lat="45.70041" lon="5.60963">
        <ele>654</ele>
        <time>2016-09-27T10:40:52.114Z</time>
      </trkpt>
      <trkpt lat="45.70047" lon="5.6097">
        <ele>654</ele>
        <time>2016-09-27T10:40:55.114Z</time>
      </trkpt>
      <trkpt lat="45.70051" lon="5.6098">
        <ele>654</ele>
        <time>2016-09-27T10:40:58.114Z</time>
      </trkpt>
      <trkpt lat="45.70051" lon="5.60983">
        <ele>654</ele>
        <time>2016-09-27T10:41:04.114Z</time>
      </trkpt>
      <trkpt lat="45.70052" lon="5.60985">
        <ele>657</ele>
        <time>2016-09-27T11:37:39.114Z</time>
      </trkpt>
      <trkpt lat="45.70051" lon="5.60985">
        <ele>657</ele>
        <time>2016-09-27T11:37:50.114Z</time>
      </trkpt>
      <trkpt lat="45.70049" lon="5.60986">
        <ele>657</ele>
        <time>2016-09-27T11:38:12.114Z</time>
      </trkpt>
      <trkpt lat="45.70046" lon="5.60981">
        <ele>657</ele>
        <time>2016-09-27T11:47:45.114Z</time>
      </trkpt>
      <trkpt lat="45.70041" lon="5.60978">
        <ele>657</ele>
        <time>2016-09-27T11:47:48.114Z</time>
      </trkpt>
      <trkpt lat="45.70026" lon="5.60962">
        <ele>657</ele>
        <time>2016-09-27T11:47:57.114Z</time>
      </trkpt>
      <trkpt lat="45.70021" lon="5.60958">
        <ele>657</ele>
        <time>2016-09-27T11:48:00.114Z</time>
      </trkpt>
      <trkpt lat="45.69978" lon="5.60937">
        <ele>657</ele>
        <time>2016-09-27T11:48:21.114Z</time>
      </trkpt>
      <trkpt lat="45.6997" lon="5.60932">
        <ele>657</ele>
        <time>2016-09-27T11:48:25.114Z</time>
      </trkpt>
      <trkpt lat="45.69961" lon="5.60928">
        <ele>657</ele>
        <time>2016-09-27T11:48:30.114Z</time>
      </trkpt>
      <trkpt lat="45.69951" lon="5.60926">
        <ele>657</ele>
        <time>2016-09-27T11:48:34.114Z</time>
      </trkpt>
      <trkpt lat="45.69932" lon="5.60929">
        <ele>665</ele>
        <time>2016-09-27T11:48:42.114Z</time>
      </trkpt>
      <trkpt lat="45.69916" lon="5.60932">
        <ele>667</ele>
        <time>2016-09-27T11:48:50.114Z</time>
      </trkpt>
      <trkpt lat="45.69897" lon="5.60943">
        <ele>668</ele>
        <time>2016-09-27T11:49:01.114Z</time>
      </trkpt>
      <trkpt lat="45.6989" lon="5.60949">
        <ele>668</ele>
        <time>2016-09-27T11:49:06.114Z</time>
      </trkpt>
      <trkpt lat="45.6988" lon="5.60955">
        <ele>670</ele>
        <time>2016-09-27T11:49:10.114Z</time>
      </trkpt>
      <trkpt lat="45.69873" lon="5.60961">
        <ele>670</ele>
        <time>2016-09-27T11:49:13.114Z</time>
      </trkpt>
      <trkpt lat="45.69866" lon="5.60969">
        <ele>670</ele>
        <time>2016-09-27T11:49:16.114Z</time>
      </trkpt>
      <trkpt lat="45.6986" lon="5.60978">
        <ele>671</ele>
        <time>2016-09-27T11:49:20.114Z</time>
      </trkpt>
      <trkpt lat="45.69851" lon="5.60997">
        <ele>671</ele>
        <time>2016-09-27T11:49:28.114Z</time>
      </trkpt>
      <trkpt lat="45.69846" lon="5.61005">
        <ele>674</ele>
        <time>2016-09-27T11:49:31.114Z</time>
      </trkpt>
      <trkpt lat="45.69832" lon="5.61025">
        <ele>677</ele>
        <time>2016-09-27T11:49:40.114Z</time>
      </trkpt>
      <trkpt lat="45.69791" lon="5.61061">
        <ele>682</ele>
        <time>2016-09-27T11:50:05.114Z</time>
      </trkpt>
      <trkpt lat="45.69778" lon="5.6107">
        <ele>683</ele>
        <time>2016-09-27T11:50:12.114Z</time>
      </trkpt>
      <trkpt lat="45.69767" lon="5.61074">
        <ele>683</ele>
        <time>2016-09-27T11:50:17.114Z</time>
      </trkpt>
      <trkpt lat="45.69743" lon="5.61078">
        <ele>685.1</ele>
        <time>2016-09-27T11:50:29.114Z</time>
      </trkpt>
      <trkpt lat="45.69712" lon="5.61091">
        <ele>690</ele>
        <time>2016-09-27T11:50:45.114Z</time>
      </trkpt>
      <trkpt lat="45.69684" lon="5.61107">
        <ele>691</ele>
        <time>2016-09-27T11:50:58.114Z</time>
      </trkpt>
      <trkpt lat="45.69663" lon="5.61113">
        <ele>693</ele>
        <time>2016-09-27T11:51:07.114Z</time>
      </trkpt>
      <trkpt lat="45.69655" lon="5.61113">
        <ele>695</ele>
        <time>2016-09-27T11:51:11.114Z</time>
      </trkpt>
      <trkpt lat="45.69639" lon="5.61116">
        <ele>697</ele>
        <time>2016-09-27T11:51:20.114Z</time>
      </trkpt>
      <trkpt lat="45.69591" lon="5.61172">
        <ele>703</ele>
        <time>2016-09-27T11:51:57.114Z</time>
      </trkpt>
      <trkpt lat="45.69584" lon="5.6118">
        <ele>706</ele>
        <time>2016-09-27T11:52:02.114Z</time>
      </trkpt>
      <trkpt lat="45.69575" lon="5.61185">
        <ele>706</ele>
        <time>2016-09-27T11:52:07.114Z</time>
      </trkpt>
      <trkpt lat="45.69556" lon="5.61192">
        <ele>707.1</ele>
        <time>2016-09-27T11:52:19.114Z</time>
      </trkpt>
      <trkpt lat="45.69546" lon="5.61198">
        <ele>708</ele>
        <time>2016-09-27T11:52:24.114Z</time>
      </trkpt>
      <trkpt lat="45.69525" lon="5.61233">
        <ele>713</ele>
        <time>2016-09-27T11:52:42.114Z</time>
      </trkpt>
      <trkpt lat="45.69523" lon="5.61242">
        <ele>714</ele>
        <time>2016-09-27T11:52:56.114Z</time>
      </trkpt>
      <trkpt lat="45.69523" lon="5.6125">
        <ele>713</ele>
        <time>2016-09-27T11:53:39.114Z</time>
      </trkpt>
      <trkpt lat="45.69533" lon="5.61313">
        <ele>719</ele>
        <time>2016-09-27T11:53:57.114Z</time>
      </trkpt>
      <trkpt lat="45.69531" lon="5.61329">
        <ele>720</ele>
        <time>2016-09-27T11:54:01.114Z</time>
      </trkpt>
      <trkpt lat="45.69526" lon="5.6134">
        <ele>721</ele>
        <time>2016-09-27T11:54:05.114Z</time>
      </trkpt>
      <trkpt lat="45.6952" lon="5.61349">
        <ele>721.1</ele>
        <time>2016-09-27T11:54:09.114Z</time>
      </trkpt>
      <trkpt lat="45.69515" lon="5.61351">
        <ele>722</ele>
        <time>2016-09-27T11:54:12.114Z</time>
      </trkpt>
      <trkpt lat="45.69509" lon="5.61351">
        <ele>722</ele>
        <time>2016-09-27T11:54:15.114Z</time>
      </trkpt>
      <trkpt lat="45.69503" lon="5.61352">
        <ele>722</ele>
        <time>2016-09-27T11:54:18.114Z</time>
      </trkpt>
      <trkpt lat="45.69495" lon="5.61352">
        <ele>724</ele>
        <time>2016-09-27T11:54:23.114Z</time>
      </trkpt>
      <trkpt lat="45.69488" lon="5.61355">
        <ele>724</ele>
        <time>2016-09-27T11:54:28.114Z</time>
      </trkpt>
      <trkpt lat="45.69466" lon="5.6137">
        <ele>731</ele>
        <time>2016-09-27T11:54:43.114Z</time>
      </trkpt>
      <trkpt lat="45.69429" lon="5.61389">
        <ele>735</ele>
        <time>2016-09-27T11:55:07.114Z</time>
      </trkpt>
      <trkpt lat="45.69424" lon="5.61391">
        <ele>737</ele>
        <time>2016-09-27T11:55:10.114Z</time>
      </trkpt>
      <trkpt lat="45.69419" lon="5.61392">
        <ele>737</ele>
        <time>2016-09-27T11:55:13.114Z</time>
      </trkpt>
      <trkpt lat="45.69404" lon="5.61394">
        <ele>738</ele>
        <time>2016-09-27T11:55:20.114Z</time>
      </trkpt>
      <trkpt lat="45.69399" lon="5.61394">
        <ele>738</ele>
        <time>2016-09-27T11:55:22.114Z</time>
      </trkpt>
      <trkpt lat="45.69387" lon="5.61392">
        <ele>738</ele>
        <time>2016-09-27T11:55:27.114Z</time>
      </trkpt>
      <trkpt lat="45.69379" lon="5.61389">
        <ele>738</ele>
        <time>2016-09-27T11:55:30.114Z</time>
      </trkpt>
      <trkpt lat="45.69371" lon="5.61388">
        <ele>738</ele>
        <time>2016-09-27T11:55:33.114Z</time>
      </trkpt>
      <trkpt lat="45.6936" lon="5.61386">
        <ele>738</ele>
        <time>2016-09-27T11:55:36.114Z</time>
      </trkpt>
      <trkpt lat="45.69318" lon="5.61373">
        <ele>739</ele>
        <time>2016-09-27T11:55:48.114Z</time>
      </trkpt>
      <trkpt lat="45.693" lon="5.61374">
        <ele>741</ele>
        <time>2016-09-27T11:55:54.114Z</time>
      </trkpt>
      <trkpt lat="45.69284" lon="5.61371">
        <ele>741.1</ele>
        <time>2016-09-27T11:55:59.114Z</time>
      </trkpt>
      <trkpt lat="45.69276" lon="5.61367">
        <ele>742</ele>
        <time>2016-09-27T11:56:02.114Z</time>
      </trkpt>
      <trkpt lat="45.69265" lon="5.61361">
        <ele>742</ele>
        <time>2016-09-27T11:56:06.114Z</time>
      </trkpt>
      <trkpt lat="45.69256" lon="5.61356">
        <ele>742.1</ele>
        <time>2016-09-27T11:56:09.114Z</time>
      </trkpt>
      <trkpt lat="45.69244" lon="5.61355">
        <ele>743</ele>
        <time>2016-09-27T11:56:13.114Z</time>
      </trkpt>
      <trkpt lat="45.69235" lon="5.61356">
        <ele>743</ele>
        <time>2016-09-27T11:56:15.114Z</time>
      </trkpt>
      <trkpt lat="45.69226" lon="5.6136">
        <ele>743</ele>
        <time>2016-09-27T11:56:17.114Z</time>
      </trkpt>
      <trkpt lat="45.69216" lon="5.61368">
        <ele>744</ele>
        <time>2016-09-27T11:56:20.114Z</time>
      </trkpt>
      <trkpt lat="45.69153" lon="5.61387">
        <ele>744</ele>
        <time>2016-09-27T11:56:37.114Z</time>
      </trkpt>
      <trkpt lat="45.69147" lon="5.61387">
        <ele>744.1</ele>
        <time>2016-09-27T11:56:39.114Z</time>
      </trkpt>
      <trkpt lat="45.69133" lon="5.61385">
        <ele>745</ele>
        <time>2016-09-27T11:56:43.114Z</time>
      </trkpt>
      <trkpt lat="45.69115" lon="5.61385">
        <ele>745</ele>
        <time>2016-09-27T11:56:47.114Z</time>
      </trkpt>
      <trkpt lat="45.69099" lon="5.61389">
        <ele>745</ele>
        <time>2016-09-27T11:56:51.114Z</time>
      </trkpt>
      <trkpt lat="45.69082" lon="5.61396">
        <ele>745</ele>
        <time>2016-09-27T11:56:55.114Z</time>
      </trkpt>
      <trkpt lat="45.69072" lon="5.61399">
        <ele>745</ele>
        <time>2016-09-27T11:56:57.114Z</time>
      </trkpt>
      <trkpt lat="45.69063" lon="5.61401">
        <ele>744.8</ele>
        <time>2016-09-27T11:56:59.114Z</time>
      </trkpt>
      <trkpt lat="45.69054" lon="5.61398">
        <ele>743</ele>
        <time>2016-09-27T11:57:01.114Z</time>
      </trkpt>
      <trkpt lat="45.69035" lon="5.61382">
        <ele>743</ele>
        <time>2016-09-27T11:57:07.114Z</time>
      </trkpt>
      <trkpt lat="45.69024" lon="5.61378">
        <ele>743</ele>
        <time>2016-09-27T11:57:10.114Z</time>
      </trkpt>
      <trkpt lat="45.69013" lon="5.61375">
        <ele>743</ele>
        <time>2016-09-27T11:57:12.114Z</time>
      </trkpt>
      <trkpt lat="45.68964" lon="5.61382">
        <ele>744</ele>
        <time>2016-09-27T11:57:22.114Z</time>
      </trkpt>
      <trkpt lat="45.68932" lon="5.61377">
        <ele>744</ele>
        <time>2016-09-27T11:57:30.114Z</time>
      </trkpt>
      <trkpt lat="45.68928" lon="5.61376">
        <ele>744</ele>
        <time>2016-09-27T11:57:38.114Z</time>
      </trkpt>
      <trkpt lat="45.68929" lon="5.61376">
        <ele>742</ele>
        <time>2016-09-27T11:58:29.114Z</time>
      </trkpt>
      <trkpt lat="45.68925" lon="5.61374">
        <ele>744</ele>
        <time>2016-09-27T11:58:33.114Z</time>
      </trkpt>
      <trkpt lat="45.68923" lon="5.61371">
        <ele>744</ele>
        <time>2016-09-27T11:58:42.114Z</time>
      </trkpt>
      <trkpt lat="45.68917" lon="5.6137">
        <ele>744</ele>
        <time>2016-09-27T12:02:07.114Z</time>
      </trkpt>
      <trkpt lat="45.68915" lon="5.61369">
        <ele>744</ele>
        <time>2016-09-27T12:02:08.114Z</time>
      </trkpt>
      <trkpt lat="45.68899" lon="5.61352">
        <ele>744</ele>
        <time>2016-09-27T12:02:14.114Z</time>
      </trkpt>
      <trkpt lat="45.68889" lon="5.61336">
        <ele>744</ele>
        <time>2016-09-27T12:02:16.114Z</time>
      </trkpt>
      <trkpt lat="45.68883" lon="5.61317">
        <ele>744</ele>
        <time>2016-09-27T12:02:18.114Z</time>
      </trkpt>
      <trkpt lat="45.68882" lon="5.61296">
        <ele>740</ele>
        <time>2016-09-27T12:02:20.114Z</time>
      </trkpt>
      <trkpt lat="45.68887" lon="5.61257">
        <ele>739.6</ele>
        <time>2016-09-27T12:02:24.114Z</time>
      </trkpt>
      <trkpt lat="45.68886" lon="5.61237">
        <ele>735</ele>
        <time>2016-09-27T12:02:26.114Z</time>
      </trkpt>
      <trkpt lat="45.68879" lon="5.61218">
        <ele>735</ele>
        <time>2016-09-27T12:02:28.114Z</time>
      </trkpt>
      <trkpt lat="45.6885" lon="5.61195">
        <ele>729.9</ele>
        <time>2016-09-27T12:02:32.114Z</time>
      </trkpt>
      <trkpt lat="45.68832" lon="5.61186">
        <ele>728</ele>
        <time>2016-09-27T12:02:34.114Z</time>
      </trkpt>
      <trkpt lat="45.68822" lon="5.61184">
        <ele>727.8</ele>
        <time>2016-09-27T12:02:35.114Z</time>
      </trkpt>
      <trkpt lat="45.68812" lon="5.61183">
        <ele>725.9</ele>
        <time>2016-09-27T12:02:36.114Z</time>
      </trkpt>
      <trkpt lat="45.68796" lon="5.6119">
        <ele>725</ele>
        <time>2016-09-27T12:02:38.114Z</time>
      </trkpt>
      <trkpt lat="45.6879" lon="5.61199">
        <ele>725</ele>
        <time>2016-09-27T12:02:40.114Z</time>
      </trkpt>
      <trkpt lat="45.68792" lon="5.61216">
        <ele>723.9</ele>
        <time>2016-09-27T12:02:43.114Z</time>
      </trkpt>
      <trkpt lat="45.68805" lon="5.61243">
        <ele>720.8</ele>
        <time>2016-09-27T12:02:47.114Z</time>
      </trkpt>
      <trkpt lat="45.68804" lon="5.61262">
        <ele>717.9</ele>
        <time>2016-09-27T12:02:49.114Z</time>
      </trkpt>
      <trkpt lat="45.68799" lon="5.61285">
        <ele>715</ele>
        <time>2016-09-27T12:02:51.114Z</time>
      </trkpt>
      <trkpt lat="45.688" lon="5.61306">
        <ele>714.9</ele>
        <time>2016-09-27T12:02:53.114Z</time>
      </trkpt>
      <trkpt lat="45.68805" lon="5.61319">
        <ele>712.9</ele>
        <time>2016-09-27T12:02:55.114Z</time>
      </trkpt>
      <trkpt lat="45.68813" lon="5.6133">
        <ele>709.9</ele>
        <time>2016-09-27T12:02:57.114Z</time>
      </trkpt>
      <trkpt lat="45.68818" lon="5.61348">
        <ele>707.8</ele>
        <time>2016-09-27T12:02:59.114Z</time>
      </trkpt>
      <trkpt lat="45.68823" lon="5.61375">
        <ele>705.9</ele>
        <time>2016-09-27T12:03:01.114Z</time>
      </trkpt>
      <trkpt lat="45.68824" lon="5.61413">
        <ele>702.9</ele>
        <time>2016-09-27T12:03:04.114Z</time>
      </trkpt>
      <trkpt lat="45.68817" lon="5.6143">
        <ele>699.9</ele>
        <time>2016-09-27T12:03:06.114Z</time>
      </trkpt>
      <trkpt lat="45.68801" lon="5.61436">
        <ele>697.9</ele>
        <time>2016-09-27T12:03:08.114Z</time>
      </trkpt>
      <trkpt lat="45.68791" lon="5.61444">
        <ele>695.9</ele>
        <time>2016-09-27T12:03:10.114Z</time>
      </trkpt>
      <trkpt lat="45.68786" lon="5.61458">
        <ele>694.9</ele>
        <time>2016-09-27T12:03:12.114Z</time>
      </trkpt>
      <trkpt lat="45.68786" lon="5.61474">
        <ele>692.8</ele>
        <time>2016-09-27T12:03:14.114Z</time>
      </trkpt>
      <trkpt lat="45.6879" lon="5.61519">
        <ele>688</ele>
        <time>2016-09-27T12:03:18.114Z</time>
      </trkpt>
      <trkpt lat="45.68788" lon="5.61535">
        <ele>686.9</ele>
        <time>2016-09-27T12:03:20.114Z</time>
      </trkpt>
      <trkpt lat="45.68775" lon="5.61539">
        <ele>685</ele>
        <time>2016-09-27T12:03:22.114Z</time>
      </trkpt>
      <trkpt lat="45.68762" lon="5.6153">
        <ele>683</ele>
        <time>2016-09-27T12:03:24.114Z</time>
      </trkpt>
      <trkpt lat="45.6875" lon="5.61514">
        <ele>682.9</ele>
        <time>2016-09-27T12:03:26.114Z</time>
      </trkpt>
      <trkpt lat="45.68738" lon="5.61475">
        <ele>680</ele>
        <time>2016-09-27T12:03:30.114Z</time>
      </trkpt>
      <trkpt lat="45.68724" lon="5.61448">
        <ele>678.9</ele>
        <time>2016-09-27T12:03:33.114Z</time>
      </trkpt>
      <trkpt lat="45.68712" lon="5.61431">
        <ele>676.8</ele>
        <time>2016-09-27T12:03:35.114Z</time>
      </trkpt>
      <trkpt lat="45.68698" lon="5.61417">
        <ele>675</ele>
        <time>2016-09-27T12:03:37.114Z</time>
      </trkpt>
      <trkpt lat="45.68691" lon="5.6141">
        <ele>674.8</ele>
        <time>2016-09-27T12:03:38.114Z</time>
      </trkpt>
      <trkpt lat="45.68669" lon="5.61375">
        <ele>670</ele>
        <time>2016-09-27T12:03:42.114Z</time>
      </trkpt>
      <trkpt lat="45.68654" lon="5.6136">
        <ele>669.9</ele>
        <time>2016-09-27T12:03:44.114Z</time>
      </trkpt>
      <trkpt lat="45.68632" lon="5.61339">
        <ele>668</ele>
        <time>2016-09-27T12:03:47.114Z</time>
      </trkpt>
      <trkpt lat="45.6862" lon="5.61324">
        <ele>667.9</ele>
        <time>2016-09-27T12:03:49.114Z</time>
      </trkpt>
      <trkpt lat="45.68609" lon="5.6132">
        <ele>666</ele>
        <time>2016-09-27T12:03:51.114Z</time>
      </trkpt>
      <trkpt lat="45.68608" lon="5.61338">
        <ele>665</ele>
        <time>2016-09-27T12:03:54.114Z</time>
      </trkpt>
      <trkpt lat="45.68625" lon="5.61362">
        <ele>663</ele>
        <time>2016-09-27T12:03:58.114Z</time>
      </trkpt>
      <trkpt lat="45.6863" lon="5.61372">
        <ele>662.9</ele>
        <time>2016-09-27T12:03:59.114Z</time>
      </trkpt>
      <trkpt lat="45.68634" lon="5.61391">
        <ele>662</ele>
        <time>2016-09-27T12:04:01.114Z</time>
      </trkpt>
      <trkpt lat="45.68635" lon="5.61409">
        <ele>662</ele>
        <time>2016-09-27T12:04:03.114Z</time>
      </trkpt>
      <trkpt lat="45.68641" lon="5.61426">
        <ele>662</ele>
        <time>2016-09-27T12:04:05.114Z</time>
      </trkpt>
      <trkpt lat="45.68652" lon="5.61437">
        <ele>662</ele>
        <time>2016-09-27T12:04:07.114Z</time>
      </trkpt>
      <trkpt lat="45.68657" lon="5.61444">
        <ele>662</ele>
        <time>2016-09-27T12:04:08.114Z</time>
      </trkpt>
      <trkpt lat="45.68679" lon="5.61501">
        <ele>661</ele>
        <time>2016-09-27T12:04:14.114Z</time>
      </trkpt>
      <trkpt lat="45.68684" lon="5.61523">
        <ele>661</ele>
        <time>2016-09-27T12:04:16.114Z</time>
      </trkpt>
      <trkpt lat="45.68701" lon="5.61568">
        <ele>656</ele>
        <time>2016-09-27T12:04:20.114Z</time>
      </trkpt>
      <trkpt lat="45.68718" lon="5.61606">
        <ele>655.8</ele>
        <time>2016-09-27T12:04:24.114Z</time>
      </trkpt>
      <trkpt lat="45.68725" lon="5.61616">
        <ele>654</ele>
        <time>2016-09-27T12:04:26.114Z</time>
      </trkpt>
      <trkpt lat="45.68735" lon="5.61626">
        <ele>654</ele>
        <time>2016-09-27T12:04:29.114Z</time>
      </trkpt>
      <trkpt lat="45.68754" lon="5.61632">
        <ele>654</ele>
        <time>2016-09-27T12:04:34.114Z</time>
      </trkpt>
      <trkpt lat="45.68775" lon="5.61645">
        <ele>653.8</ele>
        <time>2016-09-27T12:04:39.114Z</time>
      </trkpt>
      <trkpt lat="45.68782" lon="5.61656">
        <ele>652</ele>
        <time>2016-09-27T12:04:41.114Z</time>
      </trkpt>
      <trkpt lat="45.68782" lon="5.61671">
        <ele>652</ele>
        <time>2016-09-27T12:04:43.114Z</time>
      </trkpt>
      <trkpt lat="45.68769" lon="5.61672">
        <ele>652</ele>
        <time>2016-09-27T12:04:45.114Z</time>
      </trkpt>
      <trkpt lat="45.68755" lon="5.61663">
        <ele>652</ele>
        <time>2016-09-27T12:04:47.114Z</time>
      </trkpt>
      <trkpt lat="45.68732" lon="5.61642">
        <ele>648</ele>
        <time>2016-09-27T12:04:51.114Z</time>
      </trkpt>
      <trkpt lat="45.68708" lon="5.61629">
        <ele>645</ele>
        <time>2016-09-27T12:04:55.114Z</time>
      </trkpt>
      <trkpt lat="45.68696" lon="5.61629">
        <ele>645</ele>
        <time>2016-09-27T12:04:57.114Z</time>
      </trkpt>
      <trkpt lat="45.68683" lon="5.61631">
        <ele>644.6</ele>
        <time>2016-09-27T12:04:59.114Z</time>
      </trkpt>
      <trkpt lat="45.68675" lon="5.61632">
        <ele>640</ele>
        <time>2016-09-27T12:05:00.114Z</time>
      </trkpt>
      <trkpt lat="45.68662" lon="5.61623">
        <ele>641</ele>
        <time>2016-09-27T12:05:02.114Z</time>
      </trkpt>
      <trkpt lat="45.68633" lon="5.61593">
        <ele>635</ele>
        <time>2016-09-27T12:05:07.114Z</time>
      </trkpt>
      <trkpt lat="45.68627" lon="5.61586">
        <ele>635</ele>
        <time>2016-09-27T12:05:08.114Z</time>
      </trkpt>
      <trkpt lat="45.68612" lon="5.61561">
        <ele>633.9</ele>
        <time>2016-09-27T12:05:11.114Z</time>
      </trkpt>
      <trkpt lat="45.68582" lon="5.61523">
        <ele>629.9</ele>
        <time>2016-09-27T12:05:16.114Z</time>
      </trkpt>
      <trkpt lat="45.68574" lon="5.61517">
        <ele>629</ele>
        <time>2016-09-27T12:05:17.114Z</time>
      </trkpt>
      <trkpt lat="45.68551" lon="5.61502">
        <ele>627</ele>
        <time>2016-09-27T12:05:20.114Z</time>
      </trkpt>
      <trkpt lat="45.68533" lon="5.61485">
        <ele>625</ele>
        <time>2016-09-27T12:05:23.114Z</time>
      </trkpt>
      <trkpt lat="45.68519" lon="5.61482">
        <ele>623.9</ele>
        <time>2016-09-27T12:05:25.114Z</time>
      </trkpt>
      <trkpt lat="45.68503" lon="5.61483">
        <ele>622</ele>
        <time>2016-09-27T12:05:27.114Z</time>
      </trkpt>
      <trkpt lat="45.68494" lon="5.61481">
        <ele>621.9</ele>
        <time>2016-09-27T12:05:28.114Z</time>
      </trkpt>
      <trkpt lat="45.68464" lon="5.61461">
        <ele>616.9</ele>
        <time>2016-09-27T12:05:32.114Z</time>
      </trkpt>
      <trkpt lat="45.68448" lon="5.61453">
        <ele>616.1</ele>
        <time>2016-09-27T12:05:34.114Z</time>
      </trkpt>
      <trkpt lat="45.68433" lon="5.61456">
        <ele>616.9</ele>
        <time>2016-09-27T12:05:36.114Z</time>
      </trkpt>
      <trkpt lat="45.68419" lon="5.61464">
        <ele>616</ele>
        <time>2016-09-27T12:05:38.114Z</time>
      </trkpt>
      <trkpt lat="45.68398" lon="5.61482">
        <ele>616</ele>
        <time>2016-09-27T12:05:42.114Z</time>
      </trkpt>
      <trkpt lat="45.68387" lon="5.61485">
        <ele>616</ele>
        <time>2016-09-27T12:05:44.114Z</time>
      </trkpt>
      <trkpt lat="45.68363" lon="5.61486">
        <ele>616</ele>
        <time>2016-09-27T12:05:49.114Z</time>
      </trkpt>
      <trkpt lat="45.6835" lon="5.61488">
        <ele>616</ele>
        <time>2016-09-27T12:05:52.114Z</time>
      </trkpt>
      <trkpt lat="45.68337" lon="5.61495">
        <ele>616</ele>
        <time>2016-09-27T12:05:55.114Z</time>
      </trkpt>
      <trkpt lat="45.6832" lon="5.61508">
        <ele>616</ele>
        <time>2016-09-27T12:05:59.114Z</time>
      </trkpt>
      <trkpt lat="45.6831" lon="5.61512">
        <ele>616</ele>
        <time>2016-09-27T12:06:01.114Z</time>
      </trkpt>
      <trkpt lat="45.683" lon="5.61516">
        <ele>616</ele>
        <time>2016-09-27T12:06:03.114Z</time>
      </trkpt>
      <trkpt lat="45.6829" lon="5.61518">
        <ele>616</ele>
        <time>2016-09-27T12:06:05.114Z</time>
      </trkpt>
      <trkpt lat="45.68282" lon="5.61518">
        <ele>616</ele>
        <time>2016-09-27T12:06:07.114Z</time>
      </trkpt>
      <trkpt lat="45.68273" lon="5.61522">
        <ele>615.8</ele>
        <time>2016-09-27T12:06:09.114Z</time>
      </trkpt>
      <trkpt lat="45.68264" lon="5.61536">
        <ele>614</ele>
        <time>2016-09-27T12:06:12.114Z</time>
      </trkpt>
      <trkpt lat="45.68254" lon="5.61628">
        <ele>604</ele>
        <time>2016-09-27T12:06:23.114Z</time>
      </trkpt>
      <trkpt lat="45.68247" lon="5.61639">
        <ele>603</ele>
        <time>2016-09-27T12:06:26.114Z</time>
      </trkpt>
      <trkpt lat="45.68235" lon="5.61639">
        <ele>601.9</ele>
        <time>2016-09-27T12:06:30.114Z</time>
      </trkpt>
      <trkpt lat="45.68224" lon="5.61647">
        <ele>602</ele>
        <time>2016-09-27T12:06:33.114Z</time>
      </trkpt>
      <trkpt lat="45.68231" lon="5.61662">
        <ele>600</ele>
        <time>2016-09-27T12:06:36.114Z</time>
      </trkpt>
      <trkpt lat="45.68288" lon="5.61743">
        <ele>598</ele>
        <time>2016-09-27T12:07:10.114Z</time>
      </trkpt>
      <trkpt lat="45.68289" lon="5.61744">
        <ele>598</ele>
        <time>2016-09-27T12:07:21.114Z</time>
      </trkpt>
      <trkpt lat="45.68294" lon="5.61749">
        <ele>597</ele>
        <time>2016-09-27T12:08:44.114Z</time>
      </trkpt>
      <trkpt lat="45.68303" lon="5.61757">
        <ele>597</ele>
        <time>2016-09-27T12:08:48.114Z</time>
      </trkpt>
      <trkpt lat="45.68311" lon="5.61763">
        <ele>597</ele>
        <time>2016-09-27T12:08:50.114Z</time>
      </trkpt>
      <trkpt lat="45.68324" lon="5.6177">
        <ele>597</ele>
        <time>2016-09-27T12:08:53.114Z</time>
      </trkpt>
      <trkpt lat="45.68334" lon="5.61778">
        <ele>597</ele>
        <time>2016-09-27T12:08:55.114Z</time>
      </trkpt>
      <trkpt lat="45.68359" lon="5.61818">
        <ele>594</ele>
        <time>2016-09-27T12:09:02.114Z</time>
      </trkpt>
      <trkpt lat="45.68366" lon="5.61831">
        <ele>593.9</ele>
        <time>2016-09-27T12:09:04.114Z</time>
      </trkpt>
      <trkpt lat="45.68374" lon="5.6184">
        <ele>593</ele>
        <time>2016-09-27T12:09:06.114Z</time>
      </trkpt>
      <trkpt lat="45.68387" lon="5.61822">
        <ele>591</ele>
        <time>2016-09-27T12:09:12.114Z</time>
      </trkpt>
      <trkpt lat="45.68394" lon="5.61815">
        <ele>590.8</ele>
        <time>2016-09-27T12:09:14.114Z</time>
      </trkpt>
      <trkpt lat="45.68404" lon="5.61807">
        <ele>589</ele>
        <time>2016-09-27T12:09:16.114Z</time>
      </trkpt>
      <trkpt lat="45.68414" lon="5.61802">
        <ele>589</ele>
        <time>2016-09-27T12:09:18.114Z</time>
      </trkpt>
      <trkpt lat="45.68425" lon="5.61806">
        <ele>582.7</ele>
        <time>2016-09-27T12:09:20.114Z</time>
      </trkpt>
      <trkpt lat="45.68454" lon="5.6183">
        <ele>576.9</ele>
        <time>2016-09-27T12:09:24.114Z</time>
      </trkpt>
      <trkpt lat="45.68468" lon="5.61846">
        <ele>573.9</ele>
        <time>2016-09-27T12:09:26.114Z</time>
      </trkpt>
      <trkpt lat="45.68505" lon="5.61916">
        <ele>569</ele>
        <time>2016-09-27T12:09:32.114Z</time>
      </trkpt>
      <trkpt lat="45.6852" lon="5.61924">
        <ele>569</ele>
        <time>2016-09-27T12:09:34.114Z</time>
      </trkpt>
      <trkpt lat="45.68546" lon="5.61929">
        <ele>571</ele>
        <time>2016-09-27T12:09:38.114Z</time>
      </trkpt>
      <trkpt lat="45.68555" lon="5.61932">
        <ele>571</ele>
        <time>2016-09-27T12:09:40.114Z</time>
      </trkpt>
      <trkpt lat="45.68576" lon="5.61929">
        <ele>571</ele>
        <time>2016-09-27T12:09:46.114Z</time>
      </trkpt>
      <trkpt lat="45.68598" lon="5.61934">
        <ele>569</ele>
        <time>2016-09-27T12:09:50.114Z</time>
      </trkpt>
      <trkpt lat="45.68607" lon="5.61932">
        <ele>569</ele>
        <time>2016-09-27T12:09:52.114Z</time>
      </trkpt>
      <trkpt lat="45.68617" lon="5.61925">
        <ele>569</ele>
        <time>2016-09-27T12:09:54.114Z</time>
      </trkpt>
      <trkpt lat="45.68645" lon="5.61914">
        <ele>569</ele>
        <time>2016-09-27T12:09:58.114Z</time>
      </trkpt>
      <trkpt lat="45.68662" lon="5.61909">
        <ele>557</ele>
        <time>2016-09-27T12:10:00.114Z</time>
      </trkpt>
      <trkpt lat="45.68681" lon="5.6191">
        <ele>556.9</ele>
        <time>2016-09-27T12:10:02.114Z</time>
      </trkpt>
      <trkpt lat="45.68691" lon="5.61912">
        <ele>556</ele>
        <time>2016-09-27T12:10:03.114Z</time>
      </trkpt>
      <trkpt lat="45.68709" lon="5.61919">
        <ele>556</ele>
        <time>2016-09-27T12:10:05.114Z</time>
      </trkpt>
      <trkpt lat="45.68722" lon="5.61928">
        <ele>556.1</ele>
        <time>2016-09-27T12:10:07.114Z</time>
      </trkpt>
      <trkpt lat="45.68727" lon="5.61937">
        <ele>557</ele>
        <time>2016-09-27T12:10:13.114Z</time>
      </trkpt>
      <trkpt lat="45.68724" lon="5.61943">
        <ele>556</ele>
        <time>2016-09-27T12:11:36.114Z</time>
      </trkpt>
      <trkpt lat="45.68723" lon="5.61949">
        <ele>556</ele>
        <time>2016-09-27T12:11:38.114Z</time>
      </trkpt>
      <trkpt lat="45.68719" lon="5.61957">
        <ele>556</ele>
        <time>2016-09-27T12:11:41.114Z</time>
      </trkpt>
      <trkpt lat="45.68691" lon="5.61997">
        <ele>555.7</ele>
        <time>2016-09-27T12:11:49.114Z</time>
      </trkpt>
      <trkpt lat="45.68679" lon="5.62006">
        <ele>552</ele>
        <time>2016-09-27T12:11:51.114Z</time>
      </trkpt>
      <trkpt lat="45.68671" lon="5.62008">
        <ele>552</ele>
        <time>2016-09-27T12:11:52.114Z</time>
      </trkpt>
      <trkpt lat="45.68662" lon="5.62009">
        <ele>552</ele>
        <time>2016-09-27T12:11:53.114Z</time>
      </trkpt>
      <trkpt lat="45.68632" lon="5.62018">
        <ele>545</ele>
        <time>2016-09-27T12:11:57.114Z</time>
      </trkpt>
      <trkpt lat="45.68625" lon="5.62021">
        <ele>545</ele>
        <time>2016-09-27T12:11:58.114Z</time>
      </trkpt>
      <trkpt lat="45.68618" lon="5.62022">
        <ele>544.5</ele>
        <time>2016-09-27T12:11:59.114Z</time>
      </trkpt>
      <trkpt lat="45.68611" lon="5.62022">
        <ele>538.9</ele>
        <time>2016-09-27T12:12:00.114Z</time>
      </trkpt>
      <trkpt lat="45.68598" lon="5.62016">
        <ele>537</ele>
        <time>2016-09-27T12:12:02.114Z</time>
      </trkpt>
      <trkpt lat="45.68585" lon="5.62017">
        <ele>537</ele>
        <time>2016-09-27T12:12:04.114Z</time>
      </trkpt>
      <trkpt lat="45.68572" lon="5.62025">
        <ele>536</ele>
        <time>2016-09-27T12:12:06.114Z</time>
      </trkpt>
      <trkpt lat="45.68553" lon="5.62048">
        <ele>535</ele>
        <time>2016-09-27T12:12:10.114Z</time>
      </trkpt>
      <trkpt lat="45.68539" lon="5.62049">
        <ele>535</ele>
        <time>2016-09-27T12:12:12.114Z</time>
      </trkpt>
      <trkpt lat="45.68527" lon="5.62042">
        <ele>534.7</ele>
        <time>2016-09-27T12:12:14.114Z</time>
      </trkpt>
      <trkpt lat="45.68514" lon="5.62031">
        <ele>531</ele>
        <time>2016-09-27T12:12:16.114Z</time>
      </trkpt>
      <trkpt lat="45.68506" lon="5.62028">
        <ele>531</ele>
        <time>2016-09-27T12:12:17.114Z</time>
      </trkpt>
      <trkpt lat="45.6849" lon="5.62031">
        <ele>530.6</ele>
        <time>2016-09-27T12:12:19.114Z</time>
      </trkpt>
      <trkpt lat="45.68476" lon="5.62043">
        <ele>524.8</ele>
        <time>2016-09-27T12:12:21.114Z</time>
      </trkpt>
      <trkpt lat="45.68471" lon="5.62049">
        <ele>522.8</ele>
        <time>2016-09-27T12:12:22.114Z</time>
      </trkpt>
      <trkpt lat="45.68444" lon="5.62077">
        <ele>515.8</ele>
        <time>2016-09-27T12:12:26.114Z</time>
      </trkpt>
      <trkpt lat="45.6843" lon="5.62088">
        <ele>512.9</ele>
        <time>2016-09-27T12:12:28.114Z</time>
      </trkpt>
      <trkpt lat="45.68417" lon="5.62096">
        <ele>510.8</ele>
        <time>2016-09-27T12:12:30.114Z</time>
      </trkpt>
      <trkpt lat="45.68367" lon="5.6211">
        <ele>502.7</ele>
        <time>2016-09-27T12:12:36.114Z</time>
      </trkpt>
      <trkpt lat="45.68326" lon="5.62129">
        <ele>495.9</ele>
        <time>2016-09-27T12:12:41.114Z</time>
      </trkpt>
      <trkpt lat="45.68298" lon="5.62146">
        <ele>489.8</ele>
        <time>2016-09-27T12:12:45.114Z</time>
      </trkpt>
      <trkpt lat="45.68169" lon="5.62297">
        <ele>454.8</ele>
        <time>2016-09-27T12:13:05.114Z</time>
      </trkpt>
      <trkpt lat="45.68139" lon="5.62321">
        <ele>449.9</ele>
        <time>2016-09-27T12:13:09.114Z</time>
      </trkpt>
      <trkpt lat="45.68133" lon="5.62336">
        <ele>446.9</ele>
        <time>2016-09-27T12:13:11.114Z</time>
      </trkpt>
      <trkpt lat="45.68134" lon="5.6235">
        <ele>445</ele>
        <time>2016-09-27T12:13:13.114Z</time>
      </trkpt>
      <trkpt lat="45.68145" lon="5.62356">
        <ele>444</ele>
        <time>2016-09-27T12:13:16.114Z</time>
      </trkpt>
      <trkpt lat="45.68216" lon="5.62375">
        <ele>432.9</ele>
        <time>2016-09-27T12:13:26.114Z</time>
      </trkpt>
      <trkpt lat="45.68277" lon="5.62403">
        <ele>420.9</ele>
        <time>2016-09-27T12:13:34.114Z</time>
      </trkpt>
      <trkpt lat="45.68286" lon="5.62419">
        <ele>418.7</ele>
        <time>2016-09-27T12:13:36.114Z</time>
      </trkpt>
      <trkpt lat="45.6829" lon="5.62441">
        <ele>414.9</ele>
        <time>2016-09-27T12:13:38.114Z</time>
      </trkpt>
      <trkpt lat="45.68288" lon="5.62462">
        <ele>412.9</ele>
        <time>2016-09-27T12:13:40.114Z</time>
      </trkpt>
      <trkpt lat="45.68281" lon="5.62477">
        <ele>409.8</ele>
        <time>2016-09-27T12:13:42.114Z</time>
      </trkpt>
      <trkpt lat="45.68263" lon="5.62497">
        <ele>406.9</ele>
        <time>2016-09-27T12:13:45.114Z</time>
      </trkpt>
      <trkpt lat="45.68254" lon="5.62512">
        <ele>403.8</ele>
        <time>2016-09-27T12:13:47.114Z</time>
      </trkpt>
      <trkpt lat="45.6825" lon="5.62526">
        <ele>401.9</ele>
        <time>2016-09-27T12:13:49.114Z</time>
      </trkpt>
      <trkpt lat="45.68252" lon="5.62538">
        <ele>399.9</ele>
        <time>2016-09-27T12:13:51.114Z</time>
      </trkpt>
      <trkpt lat="45.68306" lon="5.62548">
        <ele>387</ele>
        <time>2016-09-27T12:14:00.114Z</time>
      </trkpt>
      <trkpt lat="45.68349" lon="5.62553">
        <ele>378.8</ele>
        <time>2016-09-27T12:14:06.114Z</time>
      </trkpt>
      <trkpt lat="45.68372" lon="5.6256">
        <ele>373.8</ele>
        <time>2016-09-27T12:14:09.114Z</time>
      </trkpt>
      <trkpt lat="45.6842" lon="5.62568">
        <ele>366.8</ele>
        <time>2016-09-27T12:14:15.114Z</time>
      </trkpt>
      <trkpt lat="45.68428" lon="5.62568">
        <ele>365</ele>
        <time>2016-09-27T12:14:16.114Z</time>
      </trkpt>
      <trkpt lat="45.68435" lon="5.62568">
        <ele>364.9</ele>
        <time>2016-09-27T12:14:17.114Z</time>
      </trkpt>
      <trkpt lat="45.68445" lon="5.62565">
        <ele>363.9</ele>
        <time>2016-09-27T12:14:19.114Z</time>
      </trkpt>
      <trkpt lat="45.68451" lon="5.62559">
        <ele>363</ele>
        <time>2016-09-27T12:14:22.114Z</time>
      </trkpt>
      <trkpt lat="45.68451" lon="5.62557">
        <ele>363</ele>
        <time>2016-09-27T12:14:27.114Z</time>
      </trkpt>
      <trkpt lat="45.68457" lon="5.62549">
        <ele>363</ele>
        <time>2016-09-27T12:17:10.114Z</time>
      </trkpt>
      <trkpt lat="45.68461" lon="5.62548">
        <ele>363</ele>
        <time>2016-09-27T12:17:12.114Z</time>
      </trkpt>
      <trkpt lat="45.68469" lon="5.62547">
        <ele>363</ele>
        <time>2016-09-27T12:17:15.114Z</time>
      </trkpt>
      <trkpt lat="45.68477" lon="5.6255">
        <ele>363</ele>
        <time>2016-09-27T12:17:18.114Z</time>
      </trkpt>
      <trkpt lat="45.68485" lon="5.62551">
        <ele>362</ele>
        <time>2016-09-27T12:17:20.114Z</time>
      </trkpt>
      <trkpt lat="45.68508" lon="5.62551">
        <ele>362</ele>
        <time>2016-09-27T12:17:24.114Z</time>
      </trkpt>
      <trkpt lat="45.6852" lon="5.6255">
        <ele>362</ele>
        <time>2016-09-27T12:17:26.114Z</time>
      </trkpt>
      <trkpt lat="45.68527" lon="5.62547">
        <ele>362</ele>
        <time>2016-09-27T12:17:27.114Z</time>
      </trkpt>
      <trkpt lat="45.68533" lon="5.62544">
        <ele>362</ele>
        <time>2016-09-27T12:17:28.114Z</time>
      </trkpt>
      <trkpt lat="45.68539" lon="5.6254">
        <ele>361.6</ele>
        <time>2016-09-27T12:17:29.114Z</time>
      </trkpt>
      <trkpt lat="45.68546" lon="5.62538">
        <ele>353.9</ele>
        <time>2016-09-27T12:17:31.114Z</time>
      </trkpt>
      <trkpt lat="45.68544" lon="5.62553">
        <ele>351.8</ele>
        <time>2016-09-27T12:17:34.114Z</time>
      </trkpt>
      <trkpt lat="45.68524" lon="5.62574">
        <ele>346.9</ele>
        <time>2016-09-27T12:17:38.114Z</time>
      </trkpt>
      <trkpt lat="45.68512" lon="5.62582">
        <ele>343.9</ele>
        <time>2016-09-27T12:17:40.114Z</time>
      </trkpt>
      <trkpt lat="45.68506" lon="5.62586">
        <ele>342.9</ele>
        <time>2016-09-27T12:17:41.114Z</time>
      </trkpt>
      <trkpt lat="45.685" lon="5.62593">
        <ele>340.9</ele>
        <time>2016-09-27T12:17:43.114Z</time>
      </trkpt>
      <trkpt lat="45.68572" lon="5.62575">
        <ele>328</ele>
        <time>2016-09-27T12:18:00.114Z</time>
      </trkpt>
      <trkpt lat="45.68584" lon="5.62574">
        <ele>327.9</ele>
        <time>2016-09-27T12:18:02.114Z</time>
      </trkpt>
      <trkpt lat="45.68596" lon="5.62581">
        <ele>325.9</ele>
        <time>2016-09-27T12:18:04.114Z</time>
      </trkpt>
      <trkpt lat="45.68604" lon="5.62592">
        <ele>324.9</ele>
        <time>2016-09-27T12:18:06.114Z</time>
      </trkpt>
      <trkpt lat="45.68611" lon="5.62608">
        <ele>324</ele>
        <time>2016-09-27T12:18:08.114Z</time>
      </trkpt>
      <trkpt lat="45.68619" lon="5.62622">
        <ele>324</ele>
        <time>2016-09-27T12:18:10.114Z</time>
      </trkpt>
      <trkpt lat="45.6863" lon="5.62621">
        <ele>324</ele>
        <time>2016-09-27T12:18:12.114Z</time>
      </trkpt>
      <trkpt lat="45.68643" lon="5.62614">
        <ele>324</ele>
        <time>2016-09-27T12:18:15.114Z</time>
      </trkpt>
      <trkpt lat="45.68654" lon="5.62609">
        <ele>324</ele>
        <time>2016-09-27T12:18:17.114Z</time>
      </trkpt>
      <trkpt lat="45.68674" lon="5.62606">
        <ele>322</ele>
        <time>2016-09-27T12:18:20.114Z</time>
      </trkpt>
      <trkpt lat="45.68682" lon="5.62604">
        <ele>322</ele>
        <time>2016-09-27T12:18:21.114Z</time>
      </trkpt>
      <trkpt lat="45.68688" lon="5.62601">
        <ele>322</ele>
        <time>2016-09-27T12:18:22.114Z</time>
      </trkpt>
      <trkpt lat="45.68711" lon="5.6258">
        <ele>321</ele>
        <time>2016-09-27T12:18:26.114Z</time>
      </trkpt>
      <trkpt lat="45.68722" lon="5.62576">
        <ele>321</ele>
        <time>2016-09-27T12:18:28.114Z</time>
      </trkpt>
      <trkpt lat="45.68754" lon="5.6257">
        <ele>319</ele>
        <time>2016-09-27T12:18:33.114Z</time>
      </trkpt>
      <trkpt lat="45.68766" lon="5.62571">
        <ele>317</ele>
        <time>2016-09-27T12:18:35.114Z</time>
      </trkpt>
      <trkpt lat="45.68774" lon="5.62588">
        <ele>317</ele>
        <time>2016-09-27T12:18:38.114Z</time>
      </trkpt>
      <trkpt lat="45.68775" lon="5.62604">
        <ele>316</ele>
        <time>2016-09-27T12:18:40.114Z</time>
      </trkpt>
      <trkpt lat="45.68779" lon="5.62619">
        <ele>316</ele>
        <time>2016-09-27T12:18:42.114Z</time>
      </trkpt>
      <trkpt lat="45.68788" lon="5.62641">
        <ele>316</ele>
        <time>2016-09-27T12:18:45.114Z</time>
      </trkpt>
      <trkpt lat="45.68791" lon="5.62661">
        <ele>316</ele>
        <time>2016-09-27T12:18:48.114Z</time>
      </trkpt>
      <trkpt lat="45.68789" lon="5.62674">
        <ele>316</ele>
        <time>2016-09-27T12:18:50.114Z</time>
      </trkpt>
      <trkpt lat="45.68784" lon="5.62686">
        <ele>316</ele>
        <time>2016-09-27T12:18:52.114Z</time>
      </trkpt>
      <trkpt lat="45.68778" lon="5.62697">
        <ele>316</ele>
        <time>2016-09-27T12:18:54.114Z</time>
      </trkpt>
      <trkpt lat="45.68769" lon="5.62709">
        <ele>316</ele>
        <time>2016-09-27T12:18:56.114Z</time>
      </trkpt>
      <trkpt lat="45.68726" lon="5.62791">
        <ele>313</ele>
        <time>2016-09-27T12:19:10.114Z</time>
      </trkpt>
      <trkpt lat="45.68721" lon="5.62805">
        <ele>313</ele>
        <time>2016-09-27T12:19:12.114Z</time>
      </trkpt>
      <trkpt lat="45.68726" lon="5.62822">
        <ele>313</ele>
        <time>2016-09-27T12:19:15.114Z</time>
      </trkpt>
      <trkpt lat="45.68741" lon="5.6285">
        <ele>314</ele>
        <time>2016-09-27T12:19:21.114Z</time>
      </trkpt>
      <trkpt lat="45.68757" lon="5.62871">
        <ele>314</ele>
        <time>2016-09-27T12:19:26.114Z</time>
      </trkpt>
      <trkpt lat="45.68768" lon="5.62881">
        <ele>314.2</ele>
        <time>2016-09-27T12:19:29.114Z</time>
      </trkpt>
      <trkpt lat="45.68775" lon="5.6289">
        <ele>316</ele>
        <time>2016-09-27T12:19:32.114Z</time>
      </trkpt>
      <trkpt lat="45.68777" lon="5.62898">
        <ele>319</ele>
        <time>2016-09-27T12:19:40.114Z</time>
      </trkpt>
      <trkpt lat="45.68781" lon="5.62902">
        <ele>321</ele>
        <time>2016-09-27T12:28:45.114Z</time>
      </trkpt>
      <trkpt lat="45.68785" lon="5.62898">
        <ele>321</ele>
        <time>2016-09-27T12:28:48.114Z</time>
      </trkpt>
      <trkpt lat="45.68792" lon="5.62894">
        <ele>321</ele>
        <time>2016-09-27T12:28:52.114Z</time>
      </trkpt>
      <trkpt lat="45.68802" lon="5.6289">
        <ele>321</ele>
        <time>2016-09-27T12:28:57.114Z</time>
      </trkpt>
      <trkpt lat="45.68811" lon="5.62886">
        <ele>322</ele>
        <time>2016-09-27T12:29:02.114Z</time>
      </trkpt>
      <trkpt lat="45.68841" lon="5.62876">
        <ele>324</ele>
        <time>2016-09-27T12:29:16.114Z</time>
      </trkpt>
      <trkpt lat="45.68852" lon="5.62874">
        <ele>325</ele>
        <time>2016-09-27T12:29:20.114Z</time>
      </trkpt>
      <trkpt lat="45.68889" lon="5.62865">
        <ele>326</ele>
        <time>2016-09-27T12:29:33.114Z</time>
      </trkpt>
      <trkpt lat="45.68914" lon="5.62854">
        <ele>328</ele>
        <time>2016-09-27T12:29:41.114Z</time>
      </trkpt>
      <trkpt lat="45.68924" lon="5.62851">
        <ele>328</ele>
        <time>2016-09-27T12:29:44.114Z</time>
      </trkpt>
      <trkpt lat="45.68931" lon="5.62851">
        <ele>328</ele>
        <time>2016-09-27T12:29:46.114Z</time>
      </trkpt>
      <trkpt lat="45.68943" lon="5.62852">
        <ele>328</ele>
        <time>2016-09-27T12:29:50.114Z</time>
      </trkpt>
      <trkpt lat="45.6896" lon="5.62857">
        <ele>328</ele>
        <time>2016-09-27T12:29:56.114Z</time>
      </trkpt>
      <trkpt lat="45.68997" lon="5.62872">
        <ele>329</ele>
        <time>2016-09-27T12:30:08.114Z</time>
      </trkpt>
      <trkpt lat="45.69035" lon="5.62884">
        <ele>331</ele>
        <time>2016-09-27T12:30:19.114Z</time>
      </trkpt>
      <trkpt lat="45.69092" lon="5.62909">
        <ele>330</ele>
        <time>2016-09-27T12:30:35.114Z</time>
      </trkpt>
      <trkpt lat="45.69109" lon="5.62919">
        <ele>331</ele>
        <time>2016-09-27T12:30:41.114Z</time>
      </trkpt>
      <trkpt lat="45.69124" lon="5.62933">
        <ele>331</ele>
        <time>2016-09-27T12:30:47.114Z</time>
      </trkpt>
      <trkpt lat="45.69132" lon="5.62944">
        <ele>332</ele>
        <time>2016-09-27T12:30:50.114Z</time>
      </trkpt>
      <trkpt lat="45.69152" lon="5.62977">
        <ele>332.2</ele>
        <time>2016-09-27T12:30:59.114Z</time>
      </trkpt>
      <trkpt lat="45.69162" lon="5.62981">
        <ele>334</ele>
        <time>2016-09-27T12:31:02.114Z</time>
      </trkpt>
      <trkpt lat="45.69177" lon="5.6298">
        <ele>335</ele>
        <time>2016-09-27T12:31:07.114Z</time>
      </trkpt>
      <trkpt lat="45.69187" lon="5.62979">
        <ele>335</ele>
        <time>2016-09-27T12:31:10.114Z</time>
      </trkpt>
      <trkpt lat="45.6921" lon="5.62985">
        <ele>335</ele>
        <time>2016-09-27T12:31:18.114Z</time>
      </trkpt>
      <trkpt lat="45.69251" lon="5.62998">
        <ele>335.1</ele>
        <time>2016-09-27T12:31:29.114Z</time>
      </trkpt>
      <trkpt lat="45.69266" lon="5.63001">
        <ele>336</ele>
        <time>2016-09-27T12:31:33.114Z</time>
      </trkpt>
      <trkpt lat="45.69332" lon="5.63006">
        <ele>335</ele>
        <time>2016-09-27T12:31:51.114Z</time>
      </trkpt>
      <trkpt lat="45.69339" lon="5.63009">
        <ele>335</ele>
        <time>2016-09-27T12:31:53.114Z</time>
      </trkpt>
      <trkpt lat="45.69345" lon="5.63014">
        <ele>335</ele>
        <time>2016-09-27T12:31:55.114Z</time>
      </trkpt>
      <trkpt lat="45.69356" lon="5.63026">
        <ele>335</ele>
        <time>2016-09-27T12:31:59.114Z</time>
      </trkpt>
      <trkpt lat="45.69361" lon="5.63033">
        <ele>335</ele>
        <time>2016-09-27T12:32:01.114Z</time>
      </trkpt>
      <trkpt lat="45.6938" lon="5.6307">
        <ele>336</ele>
        <time>2016-09-27T12:32:10.114Z</time>
      </trkpt>
      <trkpt lat="45.69383" lon="5.63079">
        <ele>336</ele>
        <time>2016-09-27T12:32:12.114Z</time>
      </trkpt>
      <trkpt lat="45.69386" lon="5.63095">
        <ele>336</ele>
        <time>2016-09-27T12:32:16.114Z</time>
      </trkpt>
      <trkpt lat="45.69387" lon="5.63103">
        <ele>336</ele>
        <time>2016-09-27T12:32:18.114Z</time>
      </trkpt>
      <trkpt lat="45.69387" lon="5.63114">
        <ele>336</ele>
        <time>2016-09-27T12:32:21.114Z</time>
      </trkpt>
      <trkpt lat="45.69384" lon="5.63134">
        <ele>336</ele>
        <time>2016-09-27T12:32:26.114Z</time>
      </trkpt>
      <trkpt lat="45.69374" lon="5.63162">
        <ele>336</ele>
        <time>2016-09-27T12:32:32.114Z</time>
      </trkpt>
      <trkpt lat="45.69371" lon="5.63169">
        <ele>336</ele>
        <time>2016-09-27T12:32:34.114Z</time>
      </trkpt>
      <trkpt lat="45.69359" lon="5.63184">
        <ele>336</ele>
        <time>2016-09-27T12:32:38.114Z</time>
      </trkpt>
      <trkpt lat="45.69339" lon="5.63217">
        <ele>336</ele>
        <time>2016-09-27T12:32:46.114Z</time>
      </trkpt>
      <trkpt lat="45.69335" lon="5.63227">
        <ele>336</ele>
        <time>2016-09-27T12:32:48.114Z</time>
      </trkpt>
      <trkpt lat="45.69328" lon="5.6324">
        <ele>336</ele>
        <time>2016-09-27T12:32:51.114Z</time>
      </trkpt>
      <trkpt lat="45.69297" lon="5.63281">
        <ele>337</ele>
        <time>2016-09-27T12:33:01.114Z</time>
      </trkpt>
      <trkpt lat="45.69291" lon="5.63289">
        <ele>337</ele>
        <time>2016-09-27T12:33:03.114Z</time>
      </trkpt>
      <trkpt lat="45.69276" lon="5.63298">
        <ele>337</ele>
        <time>2016-09-27T12:33:07.114Z</time>
      </trkpt>
      <trkpt lat="45.69269" lon="5.63302">
        <ele>337</ele>
        <time>2016-09-27T12:33:09.114Z</time>
      </trkpt>
      <trkpt lat="45.69261" lon="5.63305">
        <ele>337</ele>
        <time>2016-09-27T12:33:11.114Z</time>
      </trkpt>
      <trkpt lat="45.69253" lon="5.63306">
        <ele>337</ele>
        <time>2016-09-27T12:33:13.114Z</time>
      </trkpt>
      <trkpt lat="45.69228" lon="5.63308">
        <ele>337</ele>
        <time>2016-09-27T12:33:18.114Z</time>
      </trkpt>
      <trkpt lat="45.69056" lon="5.63345">
        <ele>337.1</ele>
        <time>2016-09-27T12:33:49.114Z</time>
      </trkpt>
      <trkpt lat="45.69046" lon="5.63348">
        <ele>338</ele>
        <time>2016-09-27T12:33:51.114Z</time>
      </trkpt>
      <trkpt lat="45.69038" lon="5.63353">
        <ele>338</ele>
        <time>2016-09-27T12:33:53.114Z</time>
      </trkpt>
      <trkpt lat="45.69032" lon="5.63356">
        <ele>338</ele>
        <time>2016-09-27T12:33:55.114Z</time>
      </trkpt>
      <trkpt lat="45.69029" lon="5.6336">
        <ele>340</ele>
        <time>2016-09-27T12:34:02.114Z</time>
      </trkpt>
      <trkpt lat="45.69025" lon="5.63364">
        <ele>339</ele>
        <time>2016-09-27T12:35:17.114Z</time>
      </trkpt>
      <trkpt lat="45.69023" lon="5.63368">
        <ele>339</ele>
        <time>2016-09-27T12:35:19.114Z</time>
      </trkpt>
      <trkpt lat="45.69014" lon="5.63373">
        <ele>339</ele>
        <time>2016-09-27T12:35:23.114Z</time>
      </trkpt>
      <trkpt lat="45.68993" lon="5.63381">
        <ele>340</ele>
        <time>2016-09-27T12:35:39.114Z</time>
      </trkpt>
      <trkpt lat="45.68987" lon="5.63383">
        <ele>340</ele>
        <time>2016-09-27T12:35:43.114Z</time>
      </trkpt>
      <trkpt lat="45.68981" lon="5.63383">
        <ele>340</ele>
        <time>2016-09-27T12:35:45.114Z</time>
      </trkpt>
      <trkpt lat="45.68952" lon="5.63386">
        <ele>340</ele>
        <time>2016-09-27T12:35:52.114Z</time>
      </trkpt>
      <trkpt lat="45.68944" lon="5.63388">
        <ele>340</ele>
        <time>2016-09-27T12:35:54.114Z</time>
      </trkpt>
      <trkpt lat="45.68896" lon="5.63403">
        <ele>342</ele>
        <time>2016-09-27T12:36:14.114Z</time>
      </trkpt>
      <trkpt lat="45.68892" lon="5.63403">
        <ele>342</ele>
        <time>2016-09-27T12:36:25.114Z</time>
      </trkpt>
      <trkpt lat="45.68879" lon="5.63404">
        <ele>341.8</ele>
        <time>2016-09-27T12:36:29.114Z</time>
      </trkpt>
      <trkpt lat="45.68854" lon="5.63414">
        <ele>340</ele>
        <time>2016-09-27T12:36:33.114Z</time>
      </trkpt>
      <trkpt lat="45.68813" lon="5.63437">
        <ele>339</ele>
        <time>2016-09-27T12:36:40.114Z</time>
      </trkpt>
      <trkpt lat="45.68803" lon="5.63442">
        <ele>339</ele>
        <time>2016-09-27T12:36:42.114Z</time>
      </trkpt>
      <trkpt lat="45.68785" lon="5.6345">
        <ele>339</ele>
        <time>2016-09-27T12:36:46.114Z</time>
      </trkpt>
      <trkpt lat="45.68778" lon="5.63455">
        <ele>339</ele>
        <time>2016-09-27T12:36:48.114Z</time>
      </trkpt>
      <trkpt lat="45.68749" lon="5.63482">
        <ele>342</ele>
        <time>2016-09-27T12:37:00.114Z</time>
      </trkpt>
      <trkpt lat="45.68739" lon="5.63486">
        <ele>342.1</ele>
        <time>2016-09-27T12:37:04.114Z</time>
      </trkpt>
      <trkpt lat="45.68727" lon="5.63486">
        <ele>343.1</ele>
        <time>2016-09-27T12:37:09.114Z</time>
      </trkpt>
      <trkpt lat="45.68715" lon="5.63478">
        <ele>344</ele>
        <time>2016-09-27T12:37:19.114Z</time>
      </trkpt>
      <trkpt lat="45.68706" lon="5.63463">
        <ele>346</ele>
        <time>2016-09-27T12:37:41.114Z</time>
      </trkpt>
      <trkpt lat="45.68686" lon="5.63419">
        <ele>347</ele>
        <time>2016-09-27T12:37:55.114Z</time>
      </trkpt>
      <trkpt lat="45.68659" lon="5.63378">
        <ele>353</ele>
        <time>2016-09-27T12:38:10.114Z</time>
      </trkpt>
      <trkpt lat="45.68651" lon="5.6336">
        <ele>353</ele>
        <time>2016-09-27T12:38:16.114Z</time>
      </trkpt>
      <trkpt lat="45.6864" lon="5.63313">
        <ele>356</ele>
        <time>2016-09-27T12:38:31.114Z</time>
      </trkpt>
      <trkpt lat="45.6864" lon="5.63303">
        <ele>356</ele>
        <time>2016-09-27T12:38:34.114Z</time>
      </trkpt>
      <trkpt lat="45.68641" lon="5.63302">
        <ele>359</ele>
        <time>2016-09-27T12:38:44.114Z</time>
      </trkpt>
      <trkpt lat="45.68642" lon="5.63315">
        <ele>358</ele>
        <time>2016-09-27T12:38:48.114Z</time>
      </trkpt>
      <trkpt lat="45.68648" lon="5.63349">
        <ele>357</ele>
        <time>2016-09-27T12:38:54.114Z</time>
      </trkpt>
      <trkpt lat="45.68658" lon="5.63378">
        <ele>357</ele>
        <time>2016-09-27T12:38:58.114Z</time>
      </trkpt>
      <trkpt lat="45.6867" lon="5.634">
        <ele>351</ele>
        <time>2016-09-27T12:39:01.114Z</time>
      </trkpt>
      <trkpt lat="45.68688" lon="5.6343">
        <ele>347.9</ele>
        <time>2016-09-27T12:39:05.114Z</time>
      </trkpt>
      <trkpt lat="45.68708" lon="5.63474">
        <ele>346</ele>
        <time>2016-09-27T12:39:10.114Z</time>
      </trkpt>
      <trkpt lat="45.68712" lon="5.63481">
        <ele>345.9</ele>
        <time>2016-09-27T12:39:12.114Z</time>
      </trkpt>
      <trkpt lat="45.68713" lon="5.63482">
        <ele>345</ele>
        <time>2016-09-27T12:39:17.114Z</time>
      </trkpt>
      <trkpt lat="45.68718" lon="5.63486">
        <ele>345.9</ele>
        <time>2016-09-27T12:39:49.114Z</time>
      </trkpt>
      <trkpt lat="45.68727" lon="5.63489">
        <ele>345</ele>
        <time>2016-09-27T12:39:53.114Z</time>
      </trkpt>
      <trkpt lat="45.68737" lon="5.63488">
        <ele>345</ele>
        <time>2016-09-27T12:39:56.114Z</time>
      </trkpt>
      <trkpt lat="45.68746" lon="5.63486">
        <ele>345</ele>
        <time>2016-09-27T12:39:58.114Z</time>
      </trkpt>
      <trkpt lat="45.68755" lon="5.63479">
        <ele>341</ele>
        <time>2016-09-27T12:40:00.114Z</time>
      </trkpt>
      <trkpt lat="45.68775" lon="5.63458">
        <ele>340.9</ele>
        <time>2016-09-27T12:40:04.114Z</time>
      </trkpt>
      <trkpt lat="45.6886" lon="5.63411">
        <ele>339</ele>
        <time>2016-09-27T12:40:16.114Z</time>
      </trkpt>
      <trkpt lat="45.68872" lon="5.63407">
        <ele>339</ele>
        <time>2016-09-27T12:40:18.114Z</time>
      </trkpt>
      <trkpt lat="45.68883" lon="5.63405">
        <ele>340</ele>
        <time>2016-09-27T12:40:20.114Z</time>
      </trkpt>
      <trkpt lat="45.68893" lon="5.63404">
        <ele>340</ele>
        <time>2016-09-27T12:40:22.114Z</time>
      </trkpt>
      <trkpt lat="45.68902" lon="5.63403">
        <ele>340.1</ele>
        <time>2016-09-27T12:40:24.114Z</time>
      </trkpt>
      <trkpt lat="45.68959" lon="5.63387">
        <ele>341</ele>
        <time>2016-09-27T12:40:35.114Z</time>
      </trkpt>
      <trkpt lat="45.68994" lon="5.63383">
        <ele>340</ele>
        <time>2016-09-27T12:40:41.114Z</time>
      </trkpt>
      <trkpt lat="45.69006" lon="5.63379">
        <ele>340</ele>
        <time>2016-09-27T12:40:43.114Z</time>
      </trkpt>
      <trkpt lat="45.69012" lon="5.63377">
        <ele>340</ele>
        <time>2016-09-27T12:40:44.114Z</time>
      </trkpt>
      <trkpt lat="45.69023" lon="5.63371">
        <ele>340</ele>
        <time>2016-09-27T12:40:46.114Z</time>
      </trkpt>
      <trkpt lat="45.69039" lon="5.63359">
        <ele>339.8</ele>
        <time>2016-09-27T12:40:49.114Z</time>
      </trkpt>
      <trkpt lat="45.69045" lon="5.63356">
        <ele>338</ele>
        <time>2016-09-27T12:40:50.114Z</time>
      </trkpt>
      <trkpt lat="45.69052" lon="5.63353">
        <ele>338</ele>
        <time>2016-09-27T12:40:51.114Z</time>
      </trkpt>
      <trkpt lat="45.69065" lon="5.63349">
        <ele>338</ele>
        <time>2016-09-27T12:40:53.114Z</time>
      </trkpt>
      <trkpt lat="45.69108" lon="5.6334">
        <ele>336</ele>
        <time>2016-09-27T12:41:00.114Z</time>
      </trkpt>
      <trkpt lat="45.69175" lon="5.63324">
        <ele>336</ele>
        <time>2016-09-27T12:41:13.114Z</time>
      </trkpt>
      <trkpt lat="45.69235" lon="5.63312">
        <ele>336.1</ele>
        <time>2016-09-27T12:41:29.114Z</time>
      </trkpt>
      <trkpt lat="45.69257" lon="5.63309">
        <ele>337</ele>
        <time>2016-09-27T12:41:36.114Z</time>
      </trkpt>
      <trkpt lat="45.69264" lon="5.63307">
        <ele>337</ele>
        <time>2016-09-27T12:41:39.114Z</time>
      </trkpt>
      <trkpt lat="45.6928" lon="5.633">
        <ele>337</ele>
        <time>2016-09-27T12:41:46.114Z</time>
      </trkpt>
      <trkpt lat="45.69297" lon="5.63285">
        <ele>337</ele>
        <time>2016-09-27T12:41:52.114Z</time>
      </trkpt>
      <trkpt lat="45.69314" lon="5.63264">
        <ele>337</ele>
        <time>2016-09-27T12:42:01.114Z</time>
      </trkpt>
      <trkpt lat="45.69314" lon="5.63264">
        <ele>337</ele>
        <time>2016-09-27T12:42:03.114Z</time>
      </trkpt>
      <trkpt lat="45.69309" lon="5.63268">
        <ele>337</ele>
        <time>2016-09-27T12:42:24.114Z</time>
      </trkpt>
      <trkpt lat="45.69307" lon="5.63271">
        <ele>337</ele>
        <time>2016-09-27T12:42:25.114Z</time>
      </trkpt>
      <trkpt lat="45.69286" lon="5.63292">
        <ele>337</ele>
        <time>2016-09-27T12:42:31.114Z</time>
      </trkpt>
      <trkpt lat="45.69276" lon="5.63298">
        <ele>337</ele>
        <time>2016-09-27T12:42:33.114Z</time>
      </trkpt>
      <trkpt lat="45.69266" lon="5.63302">
        <ele>337</ele>
        <time>2016-09-27T12:42:35.114Z</time>
      </trkpt>
      <trkpt lat="45.69257" lon="5.63304">
        <ele>337</ele>
        <time>2016-09-27T12:42:37.114Z</time>
      </trkpt>
      <trkpt lat="45.69227" lon="5.63307">
        <ele>336</ele>
        <time>2016-09-27T12:42:43.114Z</time>
      </trkpt>
      <trkpt lat="45.69219" lon="5.63311">
        <ele>336</ele>
        <time>2016-09-27T12:42:46.114Z</time>
      </trkpt>
      <trkpt lat="45.69214" lon="5.63323">
        <ele>336.1</ele>
        <time>2016-09-27T12:42:49.114Z</time>
      </trkpt>
      <trkpt lat="45.69207" lon="5.6333">
        <ele>337</ele>
        <time>2016-09-27T12:42:52.114Z</time>
      </trkpt>
      <trkpt lat="45.69199" lon="5.63333">
        <ele>337</ele>
        <time>2016-09-27T12:42:55.114Z</time>
      </trkpt>
      <trkpt lat="45.69168" lon="5.63349">
        <ele>339</ele>
        <time>2016-09-27T12:43:06.114Z</time>
      </trkpt>
      <trkpt lat="45.69132" lon="5.6336">
        <ele>340.1</ele>
        <time>2016-09-27T12:43:19.114Z</time>
      </trkpt>
      <trkpt lat="45.69125" lon="5.63366">
        <ele>341</ele>
        <time>2016-09-27T12:43:22.114Z</time>
      </trkpt>
      <trkpt lat="45.69118" lon="5.63373">
        <ele>341</ele>
        <time>2016-09-27T12:43:25.114Z</time>
      </trkpt>
      <trkpt lat="45.69111" lon="5.63382">
        <ele>341.2</ele>
        <time>2016-09-27T12:43:29.114Z</time>
      </trkpt>
      <trkpt lat="45.69096" lon="5.63395">
        <ele>343</ele>
        <time>2016-09-27T12:43:36.114Z</time>
      </trkpt>
      <trkpt lat="45.69088" lon="5.63405">
        <ele>346</ele>
        <time>2016-09-27T12:43:40.114Z</time>
      </trkpt>
      <trkpt lat="45.69081" lon="5.63419">
        <ele>347</ele>
        <time>2016-09-27T12:43:46.114Z</time>
      </trkpt>
      <trkpt lat="45.69074" lon="5.63431">
        <ele>347</ele>
        <time>2016-09-27T12:43:50.114Z</time>
      </trkpt>
      <trkpt lat="45.69066" lon="5.63442">
        <ele>347</ele>
        <time>2016-09-27T12:43:54.114Z</time>
      </trkpt>
      <trkpt lat="45.69055" lon="5.63451">
        <ele>347</ele>
        <time>2016-09-27T12:43:58.114Z</time>
      </trkpt>
      <trkpt lat="45.69048" lon="5.63462">
        <ele>347</ele>
        <time>2016-09-27T12:44:02.114Z</time>
      </trkpt>
      <trkpt lat="45.69043" lon="5.63473">
        <ele>347</ele>
        <time>2016-09-27T12:44:06.114Z</time>
      </trkpt>
      <trkpt lat="45.69036" lon="5.63485">
        <ele>349</ele>
        <time>2016-09-27T12:44:10.114Z</time>
      </trkpt>
      <trkpt lat="45.69019" lon="5.635">
        <ele>349</ele>
        <time>2016-09-27T12:44:18.114Z</time>
      </trkpt>
      <trkpt lat="45.69008" lon="5.63507">
        <ele>349</ele>
        <time>2016-09-27T12:44:23.114Z</time>
      </trkpt>
      <trkpt lat="45.68996" lon="5.63512">
        <ele>349</ele>
        <time>2016-09-27T12:44:26.114Z</time>
      </trkpt>
      <trkpt lat="45.68985" lon="5.63516">
        <ele>349</ele>
        <time>2016-09-27T12:44:29.114Z</time>
      </trkpt>
      <trkpt lat="45.68972" lon="5.63522">
        <ele>349</ele>
        <time>2016-09-27T12:44:33.114Z</time>
      </trkpt>
      <trkpt lat="45.68961" lon="5.63529">
        <ele>349</ele>
        <time>2016-09-27T12:44:37.114Z</time>
      </trkpt>
      <trkpt lat="45.68928" lon="5.63542">
        <ele>349</ele>
        <time>2016-09-27T12:44:47.114Z</time>
      </trkpt>
      <trkpt lat="45.68905" lon="5.63555">
        <ele>351</ele>
        <time>2016-09-27T12:44:55.114Z</time>
      </trkpt>
      <trkpt lat="45.68896" lon="5.63563">
        <ele>351</ele>
        <time>2016-09-27T12:44:58.114Z</time>
      </trkpt>
      <trkpt lat="45.68862" lon="5.63607">
        <ele>357</ele>
        <time>2016-09-27T12:45:16.114Z</time>
      </trkpt>
      <trkpt lat="45.68855" lon="5.63619">
        <ele>358</ele>
        <time>2016-09-27T12:45:21.114Z</time>
      </trkpt>
      <trkpt lat="45.68846" lon="5.63628">
        <ele>359</ele>
        <time>2016-09-27T12:45:26.114Z</time>
      </trkpt>
      <trkpt lat="45.68838" lon="5.63642">
        <ele>359</ele>
        <time>2016-09-27T12:45:30.114Z</time>
      </trkpt>
      <trkpt lat="45.68809" lon="5.63671">
        <ele>359</ele>
        <time>2016-09-27T12:45:41.114Z</time>
      </trkpt>
      <trkpt lat="45.68789" lon="5.63686">
        <ele>359</ele>
        <time>2016-09-27T12:45:47.114Z</time>
      </trkpt>
      <trkpt lat="45.6878" lon="5.63694">
        <ele>359</ele>
        <time>2016-09-27T12:45:50.114Z</time>
      </trkpt>
      <trkpt lat="45.68771" lon="5.63701">
        <ele>359</ele>
        <time>2016-09-27T12:45:53.114Z</time>
      </trkpt>
      <trkpt lat="45.68761" lon="5.63711">
        <ele>359</ele>
        <time>2016-09-27T12:45:56.114Z</time>
      </trkpt>
      <trkpt lat="45.6875" lon="5.63718">
        <ele>359</ele>
        <time>2016-09-27T12:45:59.114Z</time>
      </trkpt>
      <trkpt lat="45.68721" lon="5.6375">
        <ele>361</ele>
        <time>2016-09-27T12:46:12.114Z</time>
      </trkpt>
      <trkpt lat="45.6871" lon="5.63758">
        <ele>361</ele>
        <time>2016-09-27T12:46:17.114Z</time>
      </trkpt>
      <trkpt lat="45.68702" lon="5.63767">
        <ele>364</ele>
        <time>2016-09-27T12:46:21.114Z</time>
      </trkpt>
      <trkpt lat="45.68688" lon="5.63789">
        <ele>366</ele>
        <time>2016-09-27T12:46:29.114Z</time>
      </trkpt>
      <trkpt lat="45.68682" lon="5.63796">
        <ele>366</ele>
        <time>2016-09-27T12:46:32.114Z</time>
      </trkpt>
      <trkpt lat="45.68676" lon="5.63805">
        <ele>365</ele>
        <time>2016-09-27T12:46:36.114Z</time>
      </trkpt>
      <trkpt lat="45.68658" lon="5.63849">
        <ele>365</ele>
        <time>2016-09-27T12:46:46.114Z</time>
      </trkpt>
      <trkpt lat="45.68637" lon="5.63882">
        <ele>364</ele>
        <time>2016-09-27T12:46:55.114Z</time>
      </trkpt>
      <trkpt lat="45.68538" lon="5.64019">
        <ele>371</ele>
        <time>2016-09-27T12:47:48.114Z</time>
      </trkpt>
      <trkpt lat="45.68533" lon="5.64029">
        <ele>371</ele>
        <time>2016-09-27T12:47:52.114Z</time>
      </trkpt>
      <trkpt lat="45.68522" lon="5.64044">
        <ele>375</ele>
        <time>2016-09-27T12:48:00.114Z</time>
      </trkpt>
      <trkpt lat="45.68519" lon="5.64056">
        <ele>375</ele>
        <time>2016-09-27T12:48:04.114Z</time>
      </trkpt>
      <trkpt lat="45.68522" lon="5.64067">
        <ele>375</ele>
        <time>2016-09-27T12:48:08.114Z</time>
      </trkpt>
      <trkpt lat="45.68527" lon="5.64076">
        <ele>377</ele>
        <time>2016-09-27T12:48:12.114Z</time>
      </trkpt>
      <trkpt lat="45.68531" lon="5.64088">
        <ele>377</ele>
        <time>2016-09-27T12:48:17.114Z</time>
      </trkpt>
      <trkpt lat="45.68581" lon="5.64194">
        <ele>374</ele>
        <time>2016-09-27T12:48:45.114Z</time>
      </trkpt>
      <trkpt lat="45.68582" lon="5.64211">
        <ele>374</ele>
        <time>2016-09-27T12:48:48.114Z</time>
      </trkpt>
      <trkpt lat="45.68581" lon="5.64226">
        <ele>373</ele>
        <time>2016-09-27T12:48:51.114Z</time>
      </trkpt>
      <trkpt lat="45.68583" lon="5.64242">
        <ele>373</ele>
        <time>2016-09-27T12:48:54.114Z</time>
      </trkpt>
      <trkpt lat="45.68587" lon="5.6426">
        <ele>373</ele>
        <time>2016-09-27T12:48:58.114Z</time>
      </trkpt>
      <trkpt lat="45.68591" lon="5.64273">
        <ele>374</ele>
        <time>2016-09-27T12:49:02.114Z</time>
      </trkpt>
      <trkpt lat="45.68599" lon="5.64285">
        <ele>374</ele>
        <time>2016-09-27T12:50:58.114Z</time>
      </trkpt>
      <trkpt lat="45.68611" lon="5.64299">
        <ele>375</ele>
        <time>2016-09-27T12:51:04.114Z</time>
      </trkpt>
      <trkpt lat="45.68621" lon="5.64308">
        <ele>375</ele>
        <time>2016-09-27T12:51:08.114Z</time>
      </trkpt>
      <trkpt lat="45.68631" lon="5.64314">
        <ele>376</ele>
        <time>2016-09-27T12:51:12.114Z</time>
      </trkpt>
      <trkpt lat="45.68641" lon="5.64324">
        <ele>376</ele>
        <time>2016-09-27T12:51:16.114Z</time>
      </trkpt>
      <trkpt lat="45.6866" lon="5.64349">
        <ele>374</ele>
        <time>2016-09-27T12:51:22.114Z</time>
      </trkpt>
      <trkpt lat="45.68679" lon="5.64368">
        <ele>374</ele>
        <time>2016-09-27T12:51:28.114Z</time>
      </trkpt>
      <trkpt lat="45.68696" lon="5.64389">
        <ele>372</ele>
        <time>2016-09-27T12:51:33.114Z</time>
      </trkpt>
      <trkpt lat="45.68705" lon="5.64398">
        <ele>372</ele>
        <time>2016-09-27T12:51:35.114Z</time>
      </trkpt>
      <trkpt lat="45.68713" lon="5.64415">
        <ele>372</ele>
        <time>2016-09-27T12:51:38.114Z</time>
      </trkpt>
      <trkpt lat="45.68714" lon="5.6443">
        <ele>370</ele>
        <time>2016-09-27T12:51:40.114Z</time>
      </trkpt>
      <trkpt lat="45.68713" lon="5.64445">
        <ele>370</ele>
        <time>2016-09-27T12:51:42.114Z</time>
      </trkpt>
      <trkpt lat="45.68697" lon="5.64478">
        <ele>367</ele>
        <time>2016-09-27T12:51:52.114Z</time>
      </trkpt>
      <trkpt lat="45.68687" lon="5.64493">
        <ele>367</ele>
        <time>2016-09-27T12:52:02.114Z</time>
      </trkpt>
      <trkpt lat="45.68681" lon="5.6449">
        <ele>368</ele>
        <time>2016-09-27T12:54:19.114Z</time>
      </trkpt>
      <trkpt lat="45.68675" lon="5.64489">
        <ele>368</ele>
        <time>2016-09-27T12:54:21.114Z</time>
      </trkpt>
      <trkpt lat="45.68668" lon="5.6449">
        <ele>368</ele>
        <time>2016-09-27T12:54:23.114Z</time>
      </trkpt>
      <trkpt lat="45.68659" lon="5.64496">
        <ele>368</ele>
        <time>2016-09-27T12:54:26.114Z</time>
      </trkpt>
      <trkpt lat="45.68638" lon="5.6452">
        <ele>368</ele>
        <time>2016-09-27T12:54:34.114Z</time>
      </trkpt>
      <trkpt lat="45.68629" lon="5.64527">
        <ele>368</ele>
        <time>2016-09-27T12:54:37.114Z</time>
      </trkpt>
      <trkpt lat="45.68586" lon="5.64551">
        <ele>373</ele>
        <time>2016-09-27T12:54:52.114Z</time>
      </trkpt>
      <trkpt lat="45.68577" lon="5.64558">
        <ele>374</ele>
        <time>2016-09-27T12:54:55.114Z</time>
      </trkpt>
      <trkpt lat="45.68569" lon="5.64567">
        <ele>374</ele>
        <time>2016-09-27T12:54:58.114Z</time>
      </trkpt>
      <trkpt lat="45.68564" lon="5.64573">
        <ele>375</ele>
        <time>2016-09-27T12:55:00.114Z</time>
      </trkpt>
      <trkpt lat="45.68558" lon="5.64585">
        <ele>375</ele>
        <time>2016-09-27T12:55:03.114Z</time>
      </trkpt>
      <trkpt lat="45.68554" lon="5.646">
        <ele>375</ele>
        <time>2016-09-27T12:55:06.114Z</time>
      </trkpt>
      <trkpt lat="45.68543" lon="5.64678">
        <ele>375</ele>
        <time>2016-09-27T12:55:21.114Z</time>
      </trkpt>
      <trkpt lat="45.68541" lon="5.64709">
        <ele>375</ele>
        <time>2016-09-27T12:55:27.114Z</time>
      </trkpt>
      <trkpt lat="45.68539" lon="5.64723">
        <ele>374.8</ele>
        <time>2016-09-27T12:55:29.114Z</time>
      </trkpt>
      <trkpt lat="45.68539" lon="5.6474">
        <ele>373</ele>
        <time>2016-09-27T12:55:31.114Z</time>
      </trkpt>
      <trkpt lat="45.6855" lon="5.64872">
        <ele>358.9</ele>
        <time>2016-09-27T12:55:43.114Z</time>
      </trkpt>
      <trkpt lat="45.68549" lon="5.64885">
        <ele>357</ele>
        <time>2016-09-27T12:55:45.114Z</time>
      </trkpt>
      <trkpt lat="45.68545" lon="5.64895">
        <ele>356</ele>
        <time>2016-09-27T12:55:49.114Z</time>
      </trkpt>
      <trkpt lat="45.68545" lon="5.64895">
        <ele>357</ele>
        <time>2016-09-27T12:55:53.114Z</time>
      </trkpt>
      <trkpt lat="45.68542" lon="5.64897">
        <ele>356</ele>
        <time>2016-09-27T12:56:40.114Z</time>
      </trkpt>
      <trkpt lat="45.68538" lon="5.64894">
        <ele>356</ele>
        <time>2016-09-27T12:56:43.114Z</time>
      </trkpt>
      <trkpt lat="45.68543" lon="5.64893">
        <ele>357</ele>
        <time>2016-09-27T12:56:53.114Z</time>
      </trkpt>
      <trkpt lat="45.68547" lon="5.64898">
        <ele>357</ele>
        <time>2016-09-27T12:57:54.114Z</time>
      </trkpt>
      <trkpt lat="45.68575" lon="5.64914">
        <ele>358</ele>
        <time>2016-09-27T12:58:05.114Z</time>
      </trkpt>
      <trkpt lat="45.68581" lon="5.64917">
        <ele>358</ele>
        <time>2016-09-27T12:58:07.114Z</time>
      </trkpt>
      <trkpt lat="45.68601" lon="5.64922">
        <ele>359</ele>
        <time>2016-09-27T12:58:14.114Z</time>
      </trkpt>
      <trkpt lat="45.68628" lon="5.64932">
        <ele>359</ele>
        <time>2016-09-27T12:58:23.114Z</time>
      </trkpt>
      <trkpt lat="45.68637" lon="5.64936">
        <ele>359</ele>
        <time>2016-09-27T12:58:26.114Z</time>
      </trkpt>
      <trkpt lat="45.68653" lon="5.64946">
        <ele>359</ele>
        <time>2016-09-27T12:58:31.114Z</time>
      </trkpt>
      <trkpt lat="45.68676" lon="5.64965">
        <ele>359</ele>
        <time>2016-09-27T12:58:37.114Z</time>
      </trkpt>
      <trkpt lat="45.68701" lon="5.64994">
        <ele>358</ele>
        <time>2016-09-27T12:58:43.114Z</time>
      </trkpt>
      <trkpt lat="45.68712" lon="5.65003">
        <ele>358</ele>
        <time>2016-09-27T12:58:45.114Z</time>
      </trkpt>
      <trkpt lat="45.68737" lon="5.65019">
        <ele>357.7</ele>
        <time>2016-09-27T12:58:49.114Z</time>
      </trkpt>
      <trkpt lat="45.68773" lon="5.65037">
        <ele>353</ele>
        <time>2016-09-27T12:58:55.114Z</time>
      </trkpt>
      <trkpt lat="45.68793" lon="5.65052">
        <ele>353</ele>
        <time>2016-09-27T12:58:59.114Z</time>
      </trkpt>
      <trkpt lat="45.68794" lon="5.65053">
        <ele>353</ele>
        <time>2016-09-27T12:59:05.114Z</time>
      </trkpt>
      <trkpt lat="45.68795" lon="5.65051">
        <ele>353</ele>
        <time>2016-09-27T13:02:20.114Z</time>
      </trkpt>
      <trkpt lat="45.68832" lon="5.6506">
        <ele>353</ele>
        <time>2016-09-27T13:02:35.114Z</time>
      </trkpt>
      <trkpt lat="45.68854" lon="5.65061">
        <ele>353</ele>
        <time>2016-09-27T13:02:41.114Z</time>
      </trkpt>
      <trkpt lat="45.68883" lon="5.6506">
        <ele>353</ele>
        <time>2016-09-27T13:02:47.114Z</time>
      </trkpt>
      <trkpt lat="45.68893" lon="5.65059">
        <ele>352.9</ele>
        <time>2016-09-27T13:02:49.114Z</time>
      </trkpt>
      <trkpt lat="45.68903" lon="5.65056">
        <ele>352</ele>
        <time>2016-09-27T13:02:51.114Z</time>
      </trkpt>
      <trkpt lat="45.68913" lon="5.65052">
        <ele>352</ele>
        <time>2016-09-27T13:02:53.114Z</time>
      </trkpt>
      <trkpt lat="45.68928" lon="5.65042">
        <ele>352</ele>
        <time>2016-09-27T13:02:56.114Z</time>
      </trkpt>
      <trkpt lat="45.68958" lon="5.65013">
        <ele>345</ele>
        <time>2016-09-27T13:03:01.114Z</time>
      </trkpt>
      <trkpt lat="45.68965" lon="5.65008">
        <ele>344.9</ele>
        <time>2016-09-27T13:03:02.114Z</time>
      </trkpt>
      <trkpt lat="45.68974" lon="5.65004">
        <ele>343.9</ele>
        <time>2016-09-27T13:03:03.114Z</time>
      </trkpt>
      <trkpt lat="45.68983" lon="5.65002">
        <ele>342.9</ele>
        <time>2016-09-27T13:03:04.114Z</time>
      </trkpt>
      <trkpt lat="45.68992" lon="5.65001">
        <ele>341.9</ele>
        <time>2016-09-27T13:03:05.114Z</time>
      </trkpt>
      <trkpt lat="45.69001" lon="5.65003">
        <ele>341</ele>
        <time>2016-09-27T13:03:06.114Z</time>
      </trkpt>
      <trkpt lat="45.6901" lon="5.65006">
        <ele>340.9</ele>
        <time>2016-09-27T13:03:07.114Z</time>
      </trkpt>
      <trkpt lat="45.69018" lon="5.65011">
        <ele>340</ele>
        <time>2016-09-27T13:03:08.114Z</time>
      </trkpt>
      <trkpt lat="45.69057" lon="5.65042">
        <ele>340</ele>
        <time>2016-09-27T13:03:13.114Z</time>
      </trkpt>
      <trkpt lat="45.69072" lon="5.65049">
        <ele>340</ele>
        <time>2016-09-27T13:03:15.114Z</time>
      </trkpt>
      <trkpt lat="45.69085" lon="5.65054">
        <ele>340</ele>
        <time>2016-09-27T13:03:17.114Z</time>
      </trkpt>
      <trkpt lat="45.69152" lon="5.65061">
        <ele>339</ele>
        <time>2016-09-27T13:03:25.114Z</time>
      </trkpt>
      <trkpt lat="45.69161" lon="5.6506">
        <ele>339</ele>
        <time>2016-09-27T13:03:26.114Z</time>
      </trkpt>
      <trkpt lat="45.69212" lon="5.65044">
        <ele>326.8</ele>
        <time>2016-09-27T13:03:31.114Z</time>
      </trkpt>
      <trkpt lat="45.69224" lon="5.65042">
        <ele>324.9</ele>
        <time>2016-09-27T13:03:32.114Z</time>
      </trkpt>
      <trkpt lat="45.69237" lon="5.65042">
        <ele>323.9</ele>
        <time>2016-09-27T13:03:33.114Z</time>
      </trkpt>
      <trkpt lat="45.69249" lon="5.65044">
        <ele>322.9</ele>
        <time>2016-09-27T13:03:34.114Z</time>
      </trkpt>
      <trkpt lat="45.69262" lon="5.65047">
        <ele>322</ele>
        <time>2016-09-27T13:03:35.114Z</time>
      </trkpt>
      <trkpt lat="45.69273" lon="5.65053">
        <ele>321.9</ele>
        <time>2016-09-27T13:03:36.114Z</time>
      </trkpt>
      <trkpt lat="45.69283" lon="5.65062">
        <ele>320.9</ele>
        <time>2016-09-27T13:03:37.114Z</time>
      </trkpt>
      <trkpt lat="45.69293" lon="5.65073">
        <ele>319.9</ele>
        <time>2016-09-27T13:03:38.114Z</time>
      </trkpt>
      <trkpt lat="45.69323" lon="5.65121">
        <ele>318.9</ele>
        <time>2016-09-27T13:03:42.114Z</time>
      </trkpt>
      <trkpt lat="45.69331" lon="5.65131">
        <ele>318</ele>
        <time>2016-09-27T13:03:43.114Z</time>
      </trkpt>
      <trkpt lat="45.6934" lon="5.65138">
        <ele>317.9</ele>
        <time>2016-09-27T13:03:44.114Z</time>
      </trkpt>
      <trkpt lat="45.6935" lon="5.65145">
        <ele>316.9</ele>
        <time>2016-09-27T13:03:45.114Z</time>
      </trkpt>
      <trkpt lat="45.69379" lon="5.65161">
        <ele>316</ele>
        <time>2016-09-27T13:03:48.114Z</time>
      </trkpt>
      <trkpt lat="45.69388" lon="5.65168">
        <ele>315.9</ele>
        <time>2016-09-27T13:03:49.114Z</time>
      </trkpt>
      <trkpt lat="45.69396" lon="5.65176">
        <ele>315</ele>
        <time>2016-09-27T13:03:50.114Z</time>
      </trkpt>
      <trkpt lat="45.69424" lon="5.65209">
        <ele>315.1</ele>
        <time>2016-09-27T13:03:54.114Z</time>
      </trkpt>
      <trkpt lat="45.69435" lon="5.65225">
        <ele>316</ele>
        <time>2016-09-27T13:03:56.114Z</time>
      </trkpt>
      <trkpt lat="45.69444" lon="5.65242">
        <ele>316</ele>
        <time>2016-09-27T13:03:58.114Z</time>
      </trkpt>
      <trkpt lat="45.6945" lon="5.65257">
        <ele>316</ele>
        <time>2016-09-27T13:04:00.114Z</time>
      </trkpt>
      <trkpt lat="45.69452" lon="5.65271">
        <ele>316</ele>
        <time>2016-09-27T13:04:03.114Z</time>
      </trkpt>
      <trkpt lat="45.69459" lon="5.65281">
        <ele>317</ele>
        <time>2016-09-27T13:04:11.114Z</time>
      </trkpt>
      <trkpt lat="45.69485" lon="5.65269">
        <ele>317</ele>
        <time>2016-09-27T13:04:22.114Z</time>
      </trkpt>
      <trkpt lat="45.69502" lon="5.65256">
        <ele>317</ele>
        <time>2016-09-27T13:04:28.114Z</time>
      </trkpt>
      <trkpt lat="45.69511" lon="5.65248">
        <ele>317</ele>
        <time>2016-09-27T13:04:31.114Z</time>
      </trkpt>
      <trkpt lat="45.69523" lon="5.6524">
        <ele>317</ele>
        <time>2016-09-27T13:04:35.114Z</time>
      </trkpt>
      <trkpt lat="45.69641" lon="5.6515">
        <ele>316</ele>
        <time>2016-09-27T13:05:03.114Z</time>
      </trkpt>
      <trkpt lat="45.6967" lon="5.65132">
        <ele>316</ele>
        <time>2016-09-27T13:05:09.114Z</time>
      </trkpt>
      <trkpt lat="45.69679" lon="5.65124">
        <ele>316</ele>
        <time>2016-09-27T13:05:11.114Z</time>
      </trkpt>
      <trkpt lat="45.69688" lon="5.65118">
        <ele>316</ele>
        <time>2016-09-27T13:05:13.114Z</time>
      </trkpt>
      <trkpt lat="45.69738" lon="5.651">
        <ele>316</ele>
        <time>2016-09-27T13:05:23.114Z</time>
      </trkpt>
      <trkpt lat="45.69756" lon="5.65089">
        <ele>316</ele>
        <time>2016-09-27T13:05:27.114Z</time>
      </trkpt>
      <trkpt lat="45.6984" lon="5.65023">
        <ele>319</ele>
        <time>2016-09-27T13:05:47.114Z</time>
      </trkpt>
      <trkpt lat="45.69912" lon="5.64986">
        <ele>323</ele>
        <time>2016-09-27T13:06:06.114Z</time>
      </trkpt>
      <trkpt lat="45.69932" lon="5.64979">
        <ele>324</ele>
        <time>2016-09-27T13:06:12.114Z</time>
      </trkpt>
      <trkpt lat="45.69978" lon="5.64955">
        <ele>326</ele>
        <time>2016-09-27T13:06:26.114Z</time>
      </trkpt>
      <trkpt lat="45.69991" lon="5.6495">
        <ele>328</ele>
        <time>2016-09-27T13:06:30.114Z</time>
      </trkpt>
      <trkpt lat="45.69998" lon="5.64949">
        <ele>328</ele>
        <time>2016-09-27T13:06:32.114Z</time>
      </trkpt>
      <trkpt lat="45.70004" lon="5.64948">
        <ele>328</ele>
        <time>2016-09-27T13:06:34.114Z</time>
      </trkpt>
      <trkpt lat="45.70011" lon="5.64948">
        <ele>328</ele>
        <time>2016-09-27T13:06:36.114Z</time>
      </trkpt>
      <trkpt lat="45.70018" lon="5.6495">
        <ele>328</ele>
        <time>2016-09-27T13:06:38.114Z</time>
      </trkpt>
      <trkpt lat="45.70026" lon="5.64952">
        <ele>328</ele>
        <time>2016-09-27T13:06:40.114Z</time>
      </trkpt>
      <trkpt lat="45.70034" lon="5.64956">
        <ele>328</ele>
        <time>2016-09-27T13:06:42.114Z</time>
      </trkpt>
      <trkpt lat="45.70042" lon="5.64961">
        <ele>328</ele>
        <time>2016-09-27T13:06:44.114Z</time>
      </trkpt>
      <trkpt lat="45.70049" lon="5.64967">
        <ele>328</ele>
        <time>2016-09-27T13:06:46.114Z</time>
      </trkpt>
      <trkpt lat="45.70067" lon="5.64988">
        <ele>330</ele>
        <time>2016-09-27T13:06:51.114Z</time>
      </trkpt>
      <trkpt lat="45.70112" lon="5.65051">
        <ele>332</ele>
        <time>2016-09-27T13:07:18.114Z</time>
      </trkpt>
      <trkpt lat="45.70116" lon="5.65055">
        <ele>332</ele>
        <time>2016-09-27T13:07:25.114Z</time>
      </trkpt>
      <trkpt lat="45.7013" lon="5.65077">
        <ele>332</ele>
        <time>2016-09-27T13:07:37.114Z</time>
      </trkpt>
      <trkpt lat="45.70127" lon="5.6507">
        <ele>332</ele>
        <time>2016-09-27T13:07:49.114Z</time>
      </trkpt>
      <trkpt lat="45.70129" lon="5.65068">
        <ele>332</ele>
        <time>2016-09-27T13:08:07.114Z</time>
      </trkpt>
      <trkpt lat="45.70135" lon="5.65074">
        <ele>332</ele>
        <time>2016-09-27T13:08:10.114Z</time>
      </trkpt>
      <trkpt lat="45.70146" lon="5.65081">
        <ele>332</ele>
        <time>2016-09-27T13:08:13.114Z</time>
      </trkpt>
      <trkpt lat="45.70165" lon="5.65081">
        <ele>332</ele>
        <time>2016-09-27T13:08:17.114Z</time>
      </trkpt>
      <trkpt lat="45.70173" lon="5.6508">
        <ele>331.8</ele>
        <time>2016-09-27T13:08:19.114Z</time>
      </trkpt>
      <trkpt lat="45.70165" lon="5.65084">
        <ele>330</ele>
        <time>2016-09-27T13:08:27.114Z</time>
      </trkpt>
      <trkpt lat="45.70157" lon="5.65083">
        <ele>330</ele>
        <time>2016-09-27T13:08:30.114Z</time>
      </trkpt>
      <trkpt lat="45.70147" lon="5.65082">
        <ele>330</ele>
        <time>2016-09-27T13:08:33.114Z</time>
      </trkpt>
      <trkpt lat="45.70138" lon="5.65077">
        <ele>330</ele>
        <time>2016-09-27T13:08:36.114Z</time>
      </trkpt>
      <trkpt lat="45.70131" lon="5.65069">
        <ele>332</ele>
        <time>2016-09-27T13:08:40.114Z</time>
      </trkpt>
      <trkpt lat="45.70121" lon="5.65071">
        <ele>332</ele>
        <time>2016-09-27T13:08:44.114Z</time>
      </trkpt>
      <trkpt lat="45.70116" lon="5.65075">
        <ele>333</ele>
        <time>2016-09-27T13:08:52.114Z</time>
      </trkpt>
      <trkpt lat="45.70086" lon="5.65101">
        <ele>330</ele>
        <time>2016-09-27T13:09:22.114Z</time>
      </trkpt>
      <trkpt lat="45.70083" lon="5.65107">
        <ele>330</ele>
        <time>2016-09-27T13:09:29.114Z</time>
      </trkpt>
      <trkpt lat="45.70064" lon="5.65133">
        <ele>331</ele>
        <time>2016-09-27T13:09:56.114Z</time>
      </trkpt>
      <trkpt lat="45.70052" lon="5.65161">
        <ele>332</ele>
        <time>2016-09-27T13:10:57.114Z</time>
      </trkpt>
      <trkpt lat="45.70035" lon="5.65183">
        <ele>328</ele>
        <time>2016-09-27T13:11:03.114Z</time>
      </trkpt>
      <trkpt lat="45.70028" lon="5.65196">
        <ele>327</ele>
        <time>2016-09-27T13:11:06.114Z</time>
      </trkpt>
      <trkpt lat="45.70023" lon="5.65209">
        <ele>327</ele>
        <time>2016-09-27T13:11:09.114Z</time>
      </trkpt>
      <trkpt lat="45.69999" lon="5.65242">
        <ele>327</ele>
        <time>2016-09-27T13:11:21.114Z</time>
      </trkpt>
      <trkpt lat="45.69996" lon="5.65247">
        <ele>328</ele>
        <time>2016-09-27T13:11:39.114Z</time>
      </trkpt>
      <trkpt lat="45.69991" lon="5.6525">
        <ele>329</ele>
        <time>2016-09-27T13:11:43.114Z</time>
      </trkpt>
      <trkpt lat="45.6998" lon="5.65253">
        <ele>331</ele>
        <time>2016-09-27T13:11:50.114Z</time>
      </trkpt>
      <trkpt lat="45.69967" lon="5.65276">
        <ele>338</ele>
        <time>2016-09-27T13:12:05.114Z</time>
      </trkpt>
      <trkpt lat="45.69961" lon="5.65288">
        <ele>340</ele>
        <time>2016-09-27T13:12:14.114Z</time>
      </trkpt>
      <trkpt lat="45.69954" lon="5.65294">
        <ele>341</ele>
        <time>2016-09-27T13:12:21.114Z</time>
      </trkpt>
      <trkpt lat="45.69947" lon="5.65298">
        <ele>341</ele>
        <time>2016-09-27T13:12:28.114Z</time>
      </trkpt>
      <trkpt lat="45.69938" lon="5.65306">
        <ele>343</ele>
        <time>2016-09-27T13:12:38.114Z</time>
      </trkpt>
      <trkpt lat="45.69933" lon="5.65314">
        <ele>345</ele>
        <time>2016-09-27T13:12:48.114Z</time>
      </trkpt>
      <trkpt lat="45.69931" lon="5.65318">
        <ele>347</ele>
        <time>2016-09-27T13:13:53.114Z</time>
      </trkpt>
      <trkpt lat="45.6993" lon="5.65327">
        <ele>347</ele>
        <time>2016-09-27T13:13:57.114Z</time>
      </trkpt>
      <trkpt lat="45.69927" lon="5.65341">
        <ele>350</ele>
        <time>2016-09-27T13:14:02.114Z</time>
      </trkpt>
      <trkpt lat="45.69907" lon="5.65371">
        <ele>355.1</ele>
        <time>2016-09-27T13:14:24.114Z</time>
      </trkpt>
      <trkpt lat="45.69906" lon="5.65372">
        <ele>356</ele>
        <time>2016-09-27T13:14:28.114Z</time>
      </trkpt>
      <trkpt lat="45.69903" lon="5.65377">
        <ele>357</ele>
        <time>2016-09-27T13:14:37.114Z</time>
      </trkpt>
      <trkpt lat="45.69903" lon="5.65378">
        <ele>357.1</ele>
        <time>2016-09-27T13:14:39.114Z</time>
      </trkpt>
      <trkpt lat="45.69901" lon="5.65382">
        <ele>359</ele>
        <time>2016-09-27T13:15:11.114Z</time>
      </trkpt>
      <trkpt lat="45.69901" lon="5.6539">
        <ele>359</ele>
        <time>2016-09-27T13:15:18.114Z</time>
      </trkpt>
      <trkpt lat="45.69893" lon="5.65411">
        <ele>365</ele>
        <time>2016-09-27T13:15:40.114Z</time>
      </trkpt>
      <trkpt lat="45.69882" lon="5.65427">
        <ele>368</ele>
        <time>2016-09-27T13:16:00.114Z</time>
      </trkpt>
      <trkpt lat="45.69882" lon="5.65428">
        <ele>368</ele>
        <time>2016-09-27T13:16:04.114Z</time>
      </trkpt>
      <trkpt lat="45.6988" lon="5.65433">
        <ele>368</ele>
        <time>2016-09-27T13:16:11.114Z</time>
      </trkpt>
      <trkpt lat="45.69877" lon="5.65439">
        <ele>368</ele>
        <time>2016-09-27T13:16:14.114Z</time>
      </trkpt>
      <trkpt lat="45.6987" lon="5.65447">
        <ele>368.2</ele>
        <time>2016-09-27T13:16:19.114Z</time>
      </trkpt>
      <trkpt lat="45.69863" lon="5.6546">
        <ele>370</ele>
        <time>2016-09-27T13:16:24.114Z</time>
      </trkpt>
      <trkpt lat="45.69852" lon="5.65486">
        <ele>371</ele>
        <time>2016-09-27T13:16:34.114Z</time>
      </trkpt>
      <trkpt lat="45.69849" lon="5.65503">
        <ele>371</ele>
        <time>2016-09-27T13:16:41.114Z</time>
      </trkpt>
      <trkpt lat="45.69833" lon="5.6553">
        <ele>371</ele>
        <time>2016-09-27T13:16:49.114Z</time>
      </trkpt>
      <trkpt lat="45.69825" lon="5.65539">
        <ele>371</ele>
        <time>2016-09-27T13:16:52.114Z</time>
      </trkpt>
      <trkpt lat="45.69795" lon="5.65558">
        <ele>372</ele>
        <time>2016-09-27T13:17:02.114Z</time>
      </trkpt>
      <trkpt lat="45.69785" lon="5.65559">
        <ele>372</ele>
        <time>2016-09-27T13:17:05.114Z</time>
      </trkpt>
      <trkpt lat="45.69773" lon="5.65559">
        <ele>372.2</ele>
        <time>2016-09-27T13:17:09.114Z</time>
      </trkpt>
      <trkpt lat="45.69762" lon="5.65561">
        <ele>374</ele>
        <time>2016-09-27T13:17:13.114Z</time>
      </trkpt>
      <trkpt lat="45.69739" lon="5.65569">
        <ele>375</ele>
        <time>2016-09-27T13:17:21.114Z</time>
      </trkpt>
      <trkpt lat="45.69727" lon="5.65574">
        <ele>375</ele>
        <time>2016-09-27T13:17:24.114Z</time>
      </trkpt>
      <trkpt lat="45.69717" lon="5.65581">
        <ele>375</ele>
        <time>2016-09-27T13:17:27.114Z</time>
      </trkpt>
      <trkpt lat="45.69694" lon="5.65592">
        <ele>375</ele>
        <time>2016-09-27T13:17:33.114Z</time>
      </trkpt>
      <trkpt lat="45.69676" lon="5.65604">
        <ele>374.9</ele>
        <time>2016-09-27T13:17:39.114Z</time>
      </trkpt>
      <trkpt lat="45.69627" lon="5.65631">
        <ele>373.8</ele>
        <time>2016-09-27T13:17:49.114Z</time>
      </trkpt>
      <trkpt lat="45.69572" lon="5.65674">
        <ele>370</ele>
        <time>2016-09-27T13:18:03.114Z</time>
      </trkpt>
      <trkpt lat="45.69538" lon="5.65685">
        <ele>367.7</ele>
        <time>2016-09-27T13:18:09.114Z</time>
      </trkpt>
      <trkpt lat="45.69526" lon="5.65687">
        <ele>365</ele>
        <time>2016-09-27T13:18:11.114Z</time>
      </trkpt>
      <trkpt lat="45.69514" lon="5.65684">
        <ele>364.9</ele>
        <time>2016-09-27T13:18:14.114Z</time>
      </trkpt>
      <trkpt lat="45.69506" lon="5.6568">
        <ele>364</ele>
        <time>2016-09-27T13:18:16.114Z</time>
      </trkpt>
      <trkpt lat="45.69472" lon="5.65657">
        <ele>363</ele>
        <time>2016-09-27T13:18:28.114Z</time>
      </trkpt>
      <trkpt lat="45.69469" lon="5.65664">
        <ele>362</ele>
        <time>2016-09-27T13:18:33.114Z</time>
      </trkpt>
      <trkpt lat="45.69467" lon="5.65663">
        <ele>362</ele>
        <time>2016-09-27T13:18:42.114Z</time>
      </trkpt>
      <trkpt lat="45.69469" lon="5.65665">
        <ele>362</ele>
        <time>2016-09-27T13:20:25.114Z</time>
      </trkpt>
      <trkpt lat="45.69464" lon="5.65673">
        <ele>362</ele>
        <time>2016-09-27T13:20:28.114Z</time>
      </trkpt>
      <trkpt lat="45.69457" lon="5.6568">
        <ele>362</ele>
        <time>2016-09-27T13:20:31.114Z</time>
      </trkpt>
      <trkpt lat="45.69445" lon="5.65685">
        <ele>364</ele>
        <time>2016-09-27T13:20:40.114Z</time>
      </trkpt>
      <trkpt lat="45.69445" lon="5.65682">
        <ele>364</ele>
        <time>2016-09-27T13:20:49.114Z</time>
      </trkpt>
      <trkpt lat="45.69448" lon="5.65691">
        <ele>364</ele>
        <time>2016-09-27T13:20:54.114Z</time>
      </trkpt>
      <trkpt lat="45.69437" lon="5.65709">
        <ele>363.8</ele>
        <time>2016-09-27T13:20:59.114Z</time>
      </trkpt>
      <trkpt lat="45.6939" lon="5.65767">
        <ele>361</ele>
        <time>2016-09-27T13:21:20.114Z</time>
      </trkpt>
      <trkpt lat="45.69367" lon="5.65787">
        <ele>361</ele>
        <time>2016-09-27T13:21:27.114Z</time>
      </trkpt>
      <trkpt lat="45.69278" lon="5.65849">
        <ele>358</ele>
        <time>2016-09-27T13:21:52.114Z</time>
      </trkpt>
      <trkpt lat="45.69214" lon="5.65906">
        <ele>363</ele>
        <time>2016-09-27T13:22:21.114Z</time>
      </trkpt>
      <trkpt lat="45.69204" lon="5.65913">
        <ele>365</ele>
        <time>2016-09-27T13:22:28.114Z</time>
      </trkpt>
      <trkpt lat="45.69195" lon="5.65917">
        <ele>368</ele>
        <time>2016-09-27T13:22:35.114Z</time>
      </trkpt>
      <trkpt lat="45.69186" lon="5.65923">
        <ele>370.1</ele>
        <time>2016-09-27T13:22:44.114Z</time>
      </trkpt>
      <trkpt lat="45.69178" lon="5.65927">
        <ele>371</ele>
        <time>2016-09-27T13:22:53.114Z</time>
      </trkpt>
      <trkpt lat="45.69169" lon="5.6593">
        <ele>374</ele>
        <time>2016-09-27T13:23:00.114Z</time>
      </trkpt>
      <trkpt lat="45.69148" lon="5.65932">
        <ele>376</ele>
        <time>2016-09-27T13:23:15.114Z</time>
      </trkpt>
      <trkpt lat="45.69139" lon="5.65937">
        <ele>378</ele>
        <time>2016-09-27T13:23:23.114Z</time>
      </trkpt>
      <trkpt lat="45.69129" lon="5.6594">
        <ele>381</ele>
        <time>2016-09-27T13:23:32.114Z</time>
      </trkpt>
      <trkpt lat="45.69112" lon="5.65956">
        <ele>386</ele>
        <time>2016-09-27T13:23:50.114Z</time>
      </trkpt>
      <trkpt lat="45.69103" lon="5.65959">
        <ele>387.1</ele>
        <time>2016-09-27T13:23:59.114Z</time>
      </trkpt>
      <trkpt lat="45.69094" lon="5.65963">
        <ele>388</ele>
        <time>2016-09-27T13:24:06.114Z</time>
      </trkpt>
      <trkpt lat="45.69076" lon="5.65969">
        <ele>392</ele>
        <time>2016-09-27T13:24:22.114Z</time>
      </trkpt>
      <trkpt lat="45.69067" lon="5.65971">
        <ele>395</ele>
        <time>2016-09-27T13:24:31.114Z</time>
      </trkpt>
      <trkpt lat="45.69058" lon="5.65977">
        <ele>396</ele>
        <time>2016-09-27T13:24:42.114Z</time>
      </trkpt>
      <trkpt lat="45.69043" lon="5.65996">
        <ele>402</ele>
        <time>2016-09-27T13:25:01.114Z</time>
      </trkpt>
      <trkpt lat="45.69034" lon="5.66003">
        <ele>402.1</ele>
        <time>2016-09-27T13:25:09.114Z</time>
      </trkpt>
      <trkpt lat="45.69023" lon="5.66004">
        <ele>403</ele>
        <time>2016-09-27T13:25:16.114Z</time>
      </trkpt>
      <trkpt lat="45.68991" lon="5.66004">
        <ele>406</ele>
        <time>2016-09-27T13:25:33.114Z</time>
      </trkpt>
      <trkpt lat="45.68981" lon="5.66005">
        <ele>406</ele>
        <time>2016-09-27T13:25:37.114Z</time>
      </trkpt>
      <trkpt lat="45.6897" lon="5.66008">
        <ele>406</ele>
        <time>2016-09-27T13:25:41.114Z</time>
      </trkpt>
      <trkpt lat="45.6896" lon="5.66012">
        <ele>406</ele>
        <time>2016-09-27T13:25:45.114Z</time>
      </trkpt>
      <trkpt lat="45.68948" lon="5.66015">
        <ele>406.2</ele>
        <time>2016-09-27T13:25:49.114Z</time>
      </trkpt>
      <trkpt lat="45.68938" lon="5.66016">
        <ele>408</ele>
        <time>2016-09-27T13:25:53.114Z</time>
      </trkpt>
      <trkpt lat="45.68927" lon="5.66018">
        <ele>408</ele>
        <time>2016-09-27T13:25:57.114Z</time>
      </trkpt>
      <trkpt lat="45.68914" lon="5.66024">
        <ele>405</ele>
        <time>2016-09-27T13:26:01.114Z</time>
      </trkpt>
      <trkpt lat="45.68903" lon="5.6603">
        <ele>405</ele>
        <time>2016-09-27T13:26:03.114Z</time>
      </trkpt>
      <trkpt lat="45.68892" lon="5.66032">
        <ele>404</ele>
        <time>2016-09-27T13:26:05.114Z</time>
      </trkpt>
      <trkpt lat="45.68868" lon="5.66029">
        <ele>402</ele>
        <time>2016-09-27T13:26:10.114Z</time>
      </trkpt>
      <trkpt lat="45.68862" lon="5.66026">
        <ele>400</ele>
        <time>2016-09-27T13:26:18.114Z</time>
      </trkpt>
      <trkpt lat="45.68857" lon="5.6603">
        <ele>400</ele>
        <time>2016-09-27T13:27:08.114Z</time>
      </trkpt>
      <trkpt lat="45.68847" lon="5.66034">
        <ele>400</ele>
        <time>2016-09-27T13:29:15.114Z</time>
      </trkpt>
      <trkpt lat="45.68768" lon="5.66038">
        <ele>396</ele>
        <time>2016-09-27T13:29:31.114Z</time>
      </trkpt>
      <trkpt lat="45.68752" lon="5.66037">
        <ele>396</ele>
        <time>2016-09-27T13:29:33.114Z</time>
      </trkpt>
      <trkpt lat="45.68737" lon="5.66042">
        <ele>390</ele>
        <time>2016-09-27T13:29:35.114Z</time>
      </trkpt>
      <trkpt lat="45.68723" lon="5.66051">
        <ele>390</ele>
        <time>2016-09-27T13:29:37.114Z</time>
      </trkpt>
      <trkpt lat="45.68708" lon="5.66063">
        <ele>389.7</ele>
        <time>2016-09-27T13:29:39.114Z</time>
      </trkpt>
      <trkpt lat="45.68646" lon="5.66097">
        <ele>383</ele>
        <time>2016-09-27T13:29:47.114Z</time>
      </trkpt>
      <trkpt lat="45.68631" lon="5.661">
        <ele>383</ele>
        <time>2016-09-27T13:29:49.114Z</time>
      </trkpt>
      <trkpt lat="45.68595" lon="5.661">
        <ele>383</ele>
        <time>2016-09-27T13:29:57.114Z</time>
      </trkpt>
      <trkpt lat="45.68583" lon="5.66101">
        <ele>383</ele>
        <time>2016-09-27T13:30:00.114Z</time>
      </trkpt>
      <trkpt lat="45.68571" lon="5.66105">
        <ele>383</ele>
        <time>2016-09-27T13:30:03.114Z</time>
      </trkpt>
      <trkpt lat="45.68548" lon="5.66115">
        <ele>383</ele>
        <time>2016-09-27T13:30:09.114Z</time>
      </trkpt>
      <trkpt lat="45.68537" lon="5.66119">
        <ele>383</ele>
        <time>2016-09-27T13:30:12.114Z</time>
      </trkpt>
      <trkpt lat="45.68512" lon="5.66129">
        <ele>383</ele>
        <time>2016-09-27T13:30:18.114Z</time>
      </trkpt>
      <trkpt lat="45.68502" lon="5.66131">
        <ele>381</ele>
        <time>2016-09-27T13:30:20.114Z</time>
      </trkpt>
      <trkpt lat="45.68492" lon="5.66131">
        <ele>381</ele>
        <time>2016-09-27T13:30:22.114Z</time>
      </trkpt>
      <trkpt lat="45.68466" lon="5.66136">
        <ele>381</ele>
        <time>2016-09-27T13:30:28.114Z</time>
      </trkpt>
      <trkpt lat="45.68456" lon="5.6613">
        <ele>377</ele>
        <time>2016-09-27T13:30:31.114Z</time>
      </trkpt>
      <trkpt lat="45.68449" lon="5.66122">
        <ele>376</ele>
        <time>2016-09-27T13:30:39.114Z</time>
      </trkpt>
      <trkpt lat="45.68447" lon="5.66118">
        <ele>376</ele>
        <time>2016-09-27T13:31:17.114Z</time>
      </trkpt>
      <trkpt lat="45.68447" lon="5.66115">
        <ele>376</ele>
        <time>2016-09-27T13:31:22.114Z</time>
      </trkpt>
      <trkpt lat="45.68432" lon="5.66053">
        <ele>374.7</ele>
        <time>2016-09-27T13:33:29.114Z</time>
      </trkpt>
      <trkpt lat="45.6843" lon="5.6603">
        <ele>371</ele>
        <time>2016-09-27T13:33:31.114Z</time>
      </trkpt>
      <trkpt lat="45.68431" lon="5.66018">
        <ele>371</ele>
        <time>2016-09-27T13:33:32.114Z</time>
      </trkpt>
      <trkpt lat="45.68436" lon="5.65993">
        <ele>370.6</ele>
        <time>2016-09-27T13:33:34.114Z</time>
      </trkpt>
      <trkpt lat="45.68437" lon="5.6598">
        <ele>366</ele>
        <time>2016-09-27T13:33:35.114Z</time>
      </trkpt>
      <trkpt lat="45.68436" lon="5.65967">
        <ele>366</ele>
        <time>2016-09-27T13:33:36.114Z</time>
      </trkpt>
      <trkpt lat="45.68433" lon="5.65954">
        <ele>366</ele>
        <time>2016-09-27T13:33:37.114Z</time>
      </trkpt>
      <trkpt lat="45.68402" lon="5.65868">
        <ele>356</ele>
        <time>2016-09-27T13:33:44.114Z</time>
      </trkpt>
      <trkpt lat="45.68394" lon="5.65856">
        <ele>353.9</ele>
        <time>2016-09-27T13:33:47.114Z</time>
      </trkpt>
      <trkpt lat="45.68373" lon="5.65865">
        <ele>351.9</ele>
        <time>2016-09-27T13:33:52.114Z</time>
      </trkpt>
      <trkpt lat="45.68359" lon="5.65865">
        <ele>350.9</ele>
        <time>2016-09-27T13:33:54.114Z</time>
      </trkpt>
      <trkpt lat="45.68322" lon="5.65849">
        <ele>346.9</ele>
        <time>2016-09-27T13:33:59.114Z</time>
      </trkpt>
      <trkpt lat="45.68297" lon="5.65841">
        <ele>344.8</ele>
        <time>2016-09-27T13:34:02.114Z</time>
      </trkpt>
      <trkpt lat="45.68281" lon="5.65833">
        <ele>341.9</ele>
        <time>2016-09-27T13:34:04.114Z</time>
      </trkpt>
      <trkpt lat="45.68274" lon="5.65828">
        <ele>340.9</ele>
        <time>2016-09-27T13:34:05.114Z</time>
      </trkpt>
      <trkpt lat="45.68267" lon="5.65821">
        <ele>339.9</ele>
        <time>2016-09-27T13:34:06.114Z</time>
      </trkpt>
      <trkpt lat="45.68232" lon="5.65775">
        <ele>333.9</ele>
        <time>2016-09-27T13:34:11.114Z</time>
      </trkpt>
      <trkpt lat="45.68227" lon="5.65764">
        <ele>332.7</ele>
        <time>2016-09-27T13:34:12.114Z</time>
      </trkpt>
      <trkpt lat="45.68219" lon="5.65738">
        <ele>328.9</ele>
        <time>2016-09-27T13:34:14.114Z</time>
      </trkpt>
      <trkpt lat="45.68218" lon="5.65676">
        <ele>322.9</ele>
        <time>2016-09-27T13:34:18.114Z</time>
      </trkpt>
      <trkpt lat="45.68194" lon="5.65551">
        <ele>316</ele>
        <time>2016-09-27T13:34:26.114Z</time>
      </trkpt>
      <trkpt lat="45.68176" lon="5.65498">
        <ele>314.9</ele>
        <time>2016-09-27T13:34:30.114Z</time>
      </trkpt>
      <trkpt lat="45.68175" lon="5.65486">
        <ele>314</ele>
        <time>2016-09-27T13:34:31.114Z</time>
      </trkpt>
      <trkpt lat="45.68175" lon="5.65473">
        <ele>314</ele>
        <time>2016-09-27T13:34:32.114Z</time>
      </trkpt>
      <trkpt lat="45.68177" lon="5.65461">
        <ele>313.9</ele>
        <time>2016-09-27T13:34:33.114Z</time>
      </trkpt>
      <trkpt lat="45.68181" lon="5.65449">
        <ele>313</ele>
        <time>2016-09-27T13:34:34.114Z</time>
      </trkpt>
      <trkpt lat="45.68191" lon="5.65429">
        <ele>313</ele>
        <time>2016-09-27T13:34:36.114Z</time>
      </trkpt>
      <trkpt lat="45.68208" lon="5.65403">
        <ele>312</ele>
        <time>2016-09-27T13:34:39.114Z</time>
      </trkpt>
      <trkpt lat="45.68231" lon="5.65373">
        <ele>312</ele>
        <time>2016-09-27T13:34:43.114Z</time>
      </trkpt>
      <trkpt lat="45.68239" lon="5.65363">
        <ele>311</ele>
        <time>2016-09-27T13:34:46.114Z</time>
      </trkpt>
      <trkpt lat="45.6824" lon="5.65361">
        <ele>311</ele>
        <time>2016-09-27T13:34:52.114Z</time>
      </trkpt>
      <trkpt lat="45.68242" lon="5.65359">
        <ele>311</ele>
        <time>2016-09-27T13:35:41.114Z</time>
      </trkpt>
      <trkpt lat="45.68238" lon="5.65351">
        <ele>311</ele>
        <time>2016-09-27T13:35:44.114Z</time>
      </trkpt>
      <trkpt lat="45.68219" lon="5.65339">
        <ele>311</ele>
        <time>2016-09-27T13:35:51.114Z</time>
      </trkpt>
      <trkpt lat="45.68206" lon="5.65329">
        <ele>311</ele>
        <time>2016-09-27T13:35:55.114Z</time>
      </trkpt>
      <trkpt lat="45.68172" lon="5.65309">
        <ele>311</ele>
        <time>2016-09-27T13:36:04.114Z</time>
      </trkpt>
      <trkpt lat="45.67821" lon="5.65095">
        <ele>309</ele>
        <time>2016-09-27T13:37:11.114Z</time>
      </trkpt>
      <trkpt lat="45.67665" lon="5.64999">
        <ele>309</ele>
        <time>2016-09-27T13:37:41.114Z</time>
      </trkpt>
      <trkpt lat="45.67631" lon="5.64973">
        <ele>309</ele>
        <time>2016-09-27T13:37:47.114Z</time>
      </trkpt>
      <trkpt lat="45.67475" lon="5.64842">
        <ele>306</ele>
        <time>2016-09-27T13:38:17.114Z</time>
      </trkpt>
      <trkpt lat="45.67471" lon="5.64837">
        <ele>306</ele>
        <time>2016-09-27T13:38:18.114Z</time>
      </trkpt>
      <trkpt lat="45.67447" lon="5.64809">
        <ele>307</ele>
        <time>2016-09-27T13:38:24.114Z</time>
      </trkpt>
      <trkpt lat="45.67431" lon="5.64787">
        <ele>307</ele>
        <time>2016-09-27T13:38:28.114Z</time>
      </trkpt>
      <trkpt lat="45.6742" lon="5.64768">
        <ele>307</ele>
        <time>2016-09-27T13:38:31.114Z</time>
      </trkpt>
      <trkpt lat="45.67409" lon="5.64741">
        <ele>307</ele>
        <time>2016-09-27T13:38:35.114Z</time>
      </trkpt>
      <trkpt lat="45.67396" lon="5.64699">
        <ele>306</ele>
        <time>2016-09-27T13:38:41.114Z</time>
      </trkpt>
      <trkpt lat="45.67391" lon="5.6467">
        <ele>306</ele>
        <time>2016-09-27T13:38:45.114Z</time>
      </trkpt>
      <trkpt lat="45.67389" lon="5.64629">
        <ele>306</ele>
        <time>2016-09-27T13:38:50.114Z</time>
      </trkpt>
      <trkpt lat="45.67391" lon="5.64579">
        <ele>306</ele>
        <time>2016-09-27T13:38:56.114Z</time>
      </trkpt>
      <trkpt lat="45.67408" lon="5.64482">
        <ele>305</ele>
        <time>2016-09-27T13:39:08.114Z</time>
      </trkpt>
      <trkpt lat="45.6742" lon="5.6441">
        <ele>305</ele>
        <time>2016-09-27T13:39:17.114Z</time>
      </trkpt>
      <trkpt lat="45.67423" lon="5.64362">
        <ele>304</ele>
        <time>2016-09-27T13:39:23.114Z</time>
      </trkpt>
      <trkpt lat="45.67421" lon="5.64296">
        <ele>304</ele>
        <time>2016-09-27T13:39:31.114Z</time>
      </trkpt>
      <trkpt lat="45.67393" lon="5.63927">
        <ele>300</ele>
        <time>2016-09-27T13:40:15.114Z</time>
      </trkpt>
      <trkpt lat="45.67382" lon="5.63879">
        <ele>300</ele>
        <time>2016-09-27T13:40:22.114Z</time>
      </trkpt>
      <trkpt lat="45.67348" lon="5.63776">
        <ele>300</ele>
        <time>2016-09-27T13:40:41.114Z</time>
      </trkpt>
      <trkpt lat="45.67344" lon="5.63762">
        <ele>300</ele>
        <time>2016-09-27T13:40:44.114Z</time>
      </trkpt>
      <trkpt lat="45.67221" lon="5.63431">
        <ele>298</ele>
        <time>2016-09-27T13:41:35.114Z</time>
      </trkpt>
      <trkpt lat="45.67149" lon="5.63236">
        <ele>297</ele>
        <time>2016-09-27T13:42:00.114Z</time>
      </trkpt>
      <trkpt lat="45.671" lon="5.63104">
        <ele>297</ele>
        <time>2016-09-27T13:42:16.114Z</time>
      </trkpt>
      <trkpt lat="45.66875" lon="5.62538">
        <ele>297</ele>
        <time>2016-09-27T13:43:27.114Z</time>
      </trkpt>
      <trkpt lat="45.6687" lon="5.6252">
        <ele>297</ele>
        <time>2016-09-27T13:43:29.114Z</time>
      </trkpt>
      <trkpt lat="45.6686" lon="5.62464">
        <ele>297</ele>
        <time>2016-09-27T13:43:35.114Z</time>
      </trkpt>
      <trkpt lat="45.66855" lon="5.62447">
        <ele>297</ele>
        <time>2016-09-27T13:43:37.114Z</time>
      </trkpt>
      <trkpt lat="45.66835" lon="5.62409">
        <ele>297</ele>
        <time>2016-09-27T13:43:42.114Z</time>
      </trkpt>
      <trkpt lat="45.66815" lon="5.62374">
        <ele>297</ele>
        <time>2016-09-27T13:43:47.114Z</time>
      </trkpt>
      <trkpt lat="45.66801" lon="5.62341">
        <ele>296</ele>
        <time>2016-09-27T13:43:51.114Z</time>
      </trkpt>
      <trkpt lat="45.6679" lon="5.62301">
        <ele>296</ele>
        <time>2016-09-27T13:43:55.114Z</time>
      </trkpt>
      <trkpt lat="45.66787" lon="5.6227">
        <ele>296</ele>
        <time>2016-09-27T13:43:58.114Z</time>
      </trkpt>
      <trkpt lat="45.66791" lon="5.62197">
        <ele>294</ele>
        <time>2016-09-27T13:44:05.114Z</time>
      </trkpt>
      <trkpt lat="45.66798" lon="5.62131">
        <ele>293</ele>
        <time>2016-09-27T13:44:11.114Z</time>
      </trkpt>
      <trkpt lat="45.66801" lon="5.62088">
        <ele>293</ele>
        <time>2016-09-27T13:44:15.114Z</time>
      </trkpt>
      <trkpt lat="45.668" lon="5.62066">
        <ele>293</ele>
        <time>2016-09-27T13:44:17.114Z</time>
      </trkpt>
      <trkpt lat="45.66799" lon="5.62056">
        <ele>293</ele>
        <time>2016-09-27T13:44:18.114Z</time>
      </trkpt>
      <trkpt lat="45.66772" lon="5.6195">
        <ele>291</ele>
        <time>2016-09-27T13:44:28.114Z</time>
      </trkpt>
      <trkpt lat="45.66759" lon="5.61913">
        <ele>290</ele>
        <time>2016-09-27T13:44:32.114Z</time>
      </trkpt>
      <trkpt lat="45.66699" lon="5.61774">
        <ele>289</ele>
        <time>2016-09-27T13:44:48.114Z</time>
      </trkpt>
      <trkpt lat="45.6665" lon="5.6164">
        <ele>288</ele>
        <time>2016-09-27T13:45:03.114Z</time>
      </trkpt>
      <trkpt lat="45.66625" lon="5.61598">
        <ele>288</ele>
        <time>2016-09-27T13:45:09.114Z</time>
      </trkpt>
      <trkpt lat="45.66605" lon="5.61571">
        <ele>288</ele>
        <time>2016-09-27T13:45:13.114Z</time>
      </trkpt>
      <trkpt lat="45.66601" lon="5.61562">
        <ele>288</ele>
        <time>2016-09-27T13:45:14.114Z</time>
      </trkpt>
      <trkpt lat="45.66596" lon="5.61544">
        <ele>288</ele>
        <time>2016-09-27T13:45:16.114Z</time>
      </trkpt>
      <trkpt lat="45.66594" lon="5.61523">
        <ele>288</ele>
        <time>2016-09-27T13:45:18.114Z</time>
      </trkpt>
      <trkpt lat="45.66595" lon="5.6148">
        <ele>285</ele>
        <time>2016-09-27T13:45:22.114Z</time>
      </trkpt>
      <trkpt lat="45.66592" lon="5.61438">
        <ele>283</ele>
        <time>2016-09-27T13:45:26.114Z</time>
      </trkpt>
      <trkpt lat="45.66596" lon="5.61415">
        <ele>283</ele>
        <time>2016-09-27T13:45:28.114Z</time>
      </trkpt>
      <trkpt lat="45.666" lon="5.61404">
        <ele>282.7</ele>
        <time>2016-09-27T13:45:29.114Z</time>
      </trkpt>
      <trkpt lat="45.66607" lon="5.61395">
        <ele>278.9</ele>
        <time>2016-09-27T13:45:30.114Z</time>
      </trkpt>
      <trkpt lat="45.66616" lon="5.61387">
        <ele>278</ele>
        <time>2016-09-27T13:45:31.114Z</time>
      </trkpt>
      <trkpt lat="45.66734" lon="5.61317">
        <ele>267.9</ele>
        <time>2016-09-27T13:45:43.114Z</time>
      </trkpt>
      <trkpt lat="45.66797" lon="5.61282">
        <ele>261</ele>
        <time>2016-09-27T13:45:49.114Z</time>
      </trkpt>
      <trkpt lat="45.66809" lon="5.61277">
        <ele>260.9</ele>
        <time>2016-09-27T13:45:50.114Z</time>
      </trkpt>
      <trkpt lat="45.66833" lon="5.61271">
        <ele>257.9</ele>
        <time>2016-09-27T13:45:52.114Z</time>
      </trkpt>
      <trkpt lat="45.66846" lon="5.61267">
        <ele>256.8</ele>
        <time>2016-09-27T13:45:53.114Z</time>
      </trkpt>
      <trkpt lat="45.66858" lon="5.6126">
        <ele>254.9</ele>
        <time>2016-09-27T13:45:54.114Z</time>
      </trkpt>
      <trkpt lat="45.66869" lon="5.61252">
        <ele>253.9</ele>
        <time>2016-09-27T13:45:55.114Z</time>
      </trkpt>
      <trkpt lat="45.6688" lon="5.61242">
        <ele>252.9</ele>
        <time>2016-09-27T13:45:56.114Z</time>
      </trkpt>
      <trkpt lat="45.66905" lon="5.61214">
        <ele>250.8</ele>
        <time>2016-09-27T13:45:59.114Z</time>
      </trkpt>
      <trkpt lat="45.66914" lon="5.61209">
        <ele>249</ele>
        <time>2016-09-27T13:46:00.114Z</time>
      </trkpt>
      <trkpt lat="45.66923" lon="5.61206">
        <ele>248.9</ele>
        <time>2016-09-27T13:46:01.114Z</time>
      </trkpt>
      <trkpt lat="45.66964" lon="5.61207">
        <ele>246</ele>
        <time>2016-09-27T13:46:05.114Z</time>
      </trkpt>
      <trkpt lat="45.66974" lon="5.61206">
        <ele>245.9</ele>
        <time>2016-09-27T13:46:06.114Z</time>
      </trkpt>
      <trkpt lat="45.66985" lon="5.61204">
        <ele>244.9</ele>
        <time>2016-09-27T13:46:07.114Z</time>
      </trkpt>
      <trkpt lat="45.66995" lon="5.61201">
        <ele>243.9</ele>
        <time>2016-09-27T13:46:08.114Z</time>
      </trkpt>
      <trkpt lat="45.67005" lon="5.61196">
        <ele>242.9</ele>
        <time>2016-09-27T13:46:09.114Z</time>
      </trkpt>
      <trkpt lat="45.67015" lon="5.61188">
        <ele>241.9</ele>
        <time>2016-09-27T13:46:10.114Z</time>
      </trkpt>
      <trkpt lat="45.67023" lon="5.6118">
        <ele>240.9</ele>
        <time>2016-09-27T13:46:11.114Z</time>
      </trkpt>
      <trkpt lat="45.67031" lon="5.61169">
        <ele>239.9</ele>
        <time>2016-09-27T13:46:12.114Z</time>
      </trkpt>
      <trkpt lat="45.67057" lon="5.61124">
        <ele>236</ele>
        <time>2016-09-27T13:46:16.114Z</time>
      </trkpt>
      <trkpt lat="45.67075" lon="5.61106">
        <ele>235.9</ele>
        <time>2016-09-27T13:46:18.114Z</time>
      </trkpt>
      <trkpt lat="45.67084" lon="5.61098">
        <ele>234.9</ele>
        <time>2016-09-27T13:46:19.114Z</time>
      </trkpt>
      <trkpt lat="45.67094" lon="5.61092">
        <ele>233.9</ele>
        <time>2016-09-27T13:46:20.114Z</time>
      </trkpt>
      <trkpt lat="45.67104" lon="5.61087">
        <ele>232.9</ele>
        <time>2016-09-27T13:46:21.114Z</time>
      </trkpt>
      <trkpt lat="45.67115" lon="5.61084">
        <ele>231.9</ele>
        <time>2016-09-27T13:46:22.114Z</time>
      </trkpt>
      <trkpt lat="45.67125" lon="5.6108">
        <ele>231</ele>
        <time>2016-09-27T13:46:23.114Z</time>
      </trkpt>
      <trkpt lat="45.67136" lon="5.61074">
        <ele>230.9</ele>
        <time>2016-09-27T13:46:24.114Z</time>
      </trkpt>
      <trkpt lat="45.67145" lon="5.61066">
        <ele>230</ele>
        <time>2016-09-27T13:46:25.114Z</time>
      </trkpt>
      <trkpt lat="45.67208" lon="5.61005">
        <ele>224</ele>
        <time>2016-09-27T13:46:32.114Z</time>
      </trkpt>
      <trkpt lat="45.67238" lon="5.60985">
        <ele>222.9</ele>
        <time>2016-09-27T13:46:35.114Z</time>
      </trkpt>
      <trkpt lat="45.67279" lon="5.60962">
        <ele>220</ele>
        <time>2016-09-27T13:46:39.114Z</time>
      </trkpt>
      <trkpt lat="45.67316" lon="5.60935">
        <ele>220</ele>
        <time>2016-09-27T13:46:43.114Z</time>
      </trkpt>
      <trkpt lat="45.67467" lon="5.60795">
        <ele>218</ele>
        <time>2016-09-27T13:47:04.114Z</time>
      </trkpt>
      <trkpt lat="45.67503" lon="5.60751">
        <ele>218</ele>
        <time>2016-09-27T13:47:10.114Z</time>
      </trkpt>
      <trkpt lat="45.67582" lon="5.60646">
        <ele>219</ele>
        <time>2016-09-27T13:47:27.114Z</time>
      </trkpt>
      <trkpt lat="45.6759" lon="5.60638">
        <ele>220</ele>
        <time>2016-09-27T13:47:30.114Z</time>
      </trkpt>
      <trkpt lat="45.67595" lon="5.60631">
        <ele>220</ele>
        <time>2016-09-27T13:47:38.114Z</time>
      </trkpt>
      <trkpt lat="45.67596" lon="5.60626">
        <ele>220</ele>
        <time>2016-09-27T13:48:51.114Z</time>
      </trkpt>
      <trkpt lat="45.67599" lon="5.60617">
        <ele>220</ele>
        <time>2016-09-27T13:48:54.114Z</time>
      </trkpt>
      <trkpt lat="45.67619" lon="5.60575">
        <ele>221</ele>
        <time>2016-09-27T13:49:03.114Z</time>
      </trkpt>
      <trkpt lat="45.6762" lon="5.60569">
        <ele>221</ele>
        <time>2016-09-27T13:49:04.114Z</time>
      </trkpt>
      <trkpt lat="45.67621" lon="5.60562">
        <ele>221</ele>
        <time>2016-09-27T13:49:05.114Z</time>
      </trkpt>
      <trkpt lat="45.67604" lon="5.60451">
        <ele>220</ele>
        <time>2016-09-27T13:49:18.114Z</time>
      </trkpt>
      <trkpt lat="45.67586" lon="5.6033">
        <ele>218</ele>
        <time>2016-09-27T13:49:32.114Z</time>
      </trkpt>
      <trkpt lat="45.67576" lon="5.60204">
        <ele>217</ele>
        <time>2016-09-27T13:49:46.114Z</time>
      </trkpt>
      <trkpt lat="45.67563" lon="5.60147">
        <ele>218</ele>
        <time>2016-09-27T13:49:53.114Z</time>
      </trkpt>
      <trkpt lat="45.675" lon="5.59958">
        <ele>218</ele>
        <time>2016-09-27T13:50:17.114Z</time>
      </trkpt>
      <trkpt lat="45.67321" lon="5.59348">
        <ele>217</ele>
        <time>2016-09-27T13:51:32.114Z</time>
      </trkpt>
      <trkpt lat="45.67037" lon="5.58193">
        <ele>219</ele>
        <time>2016-09-27T13:53:57.114Z</time>
      </trkpt>
      <trkpt lat="45.67035" lon="5.58165">
        <ele>220</ele>
        <time>2016-09-27T13:54:01.114Z</time>
      </trkpt>
      <trkpt lat="45.67035" lon="5.58144">
        <ele>220</ele>
        <time>2016-09-27T13:54:04.114Z</time>
      </trkpt>
      <trkpt lat="45.67044" lon="5.58105">
        <ele>222</ele>
        <time>2016-09-27T13:54:10.114Z</time>
      </trkpt>
      <trkpt lat="45.67055" lon="5.58069">
        <ele>222</ele>
        <time>2016-09-27T13:54:16.114Z</time>
      </trkpt>
      <trkpt lat="45.67155" lon="5.57844">
        <ele>226</ele>
        <time>2016-09-27T13:54:55.114Z</time>
      </trkpt>
      <trkpt lat="45.67173" lon="5.57814">
        <ele>227</ele>
        <time>2016-09-27T13:55:01.114Z</time>
      </trkpt>
      <trkpt lat="45.67193" lon="5.57788">
        <ele>227</ele>
        <time>2016-09-27T13:55:07.114Z</time>
      </trkpt>
      <trkpt lat="45.67208" lon="5.57773">
        <ele>229</ele>
        <time>2016-09-27T13:55:11.114Z</time>
      </trkpt>
      <trkpt lat="45.67248" lon="5.57717">
        <ele>229</ele>
        <time>2016-09-27T13:55:23.114Z</time>
      </trkpt>
      <trkpt lat="45.6727" lon="5.57679">
        <ele>230</ele>
        <time>2016-09-27T13:55:36.114Z</time>
      </trkpt>
      <trkpt lat="45.67268" lon="5.57671">
        <ele>230</ele>
        <time>2016-09-27T13:57:25.114Z</time>
      </trkpt>
      <trkpt lat="45.67262" lon="5.57653">
        <ele>230</ele>
        <time>2016-09-27T13:57:30.114Z</time>
      </trkpt>
      <trkpt lat="45.67258" lon="5.57645">
        <ele>230</ele>
        <time>2016-09-27T13:57:32.114Z</time>
      </trkpt>
      <trkpt lat="45.67246" lon="5.57629">
        <ele>230</ele>
        <time>2016-09-27T13:57:36.114Z</time>
      </trkpt>
      <trkpt lat="45.6724" lon="5.57622">
        <ele>230</ele>
        <time>2016-09-27T13:57:38.114Z</time>
      </trkpt>
      <trkpt lat="45.6721" lon="5.57597">
        <ele>230</ele>
        <time>2016-09-27T13:57:45.114Z</time>
      </trkpt>
      <trkpt lat="45.67193" lon="5.5758">
        <ele>229.9</ele>
        <time>2016-09-27T13:57:49.114Z</time>
      </trkpt>
      <trkpt lat="45.6718" lon="5.57571">
        <ele>229</ele>
        <time>2016-09-27T13:57:52.114Z</time>
      </trkpt>
      <trkpt lat="45.67174" lon="5.57564">
        <ele>229</ele>
        <time>2016-09-27T13:57:54.114Z</time>
      </trkpt>
      <trkpt lat="45.67176" lon="5.57554">
        <ele>229</ele>
        <time>2016-09-27T13:57:56.114Z</time>
      </trkpt>
      <trkpt lat="45.67179" lon="5.57544">
        <ele>229</ele>
        <time>2016-09-27T13:57:58.114Z</time>
      </trkpt>
      <trkpt lat="45.67179" lon="5.57534">
        <ele>225</ele>
        <time>2016-09-27T13:58:00.114Z</time>
      </trkpt>
      <trkpt lat="45.67175" lon="5.57526">
        <ele>225</ele>
        <time>2016-09-27T13:58:02.114Z</time>
      </trkpt>
      <trkpt lat="45.67163" lon="5.57515">
        <ele>225</ele>
        <time>2016-09-27T13:58:05.114Z</time>
      </trkpt>
      <trkpt lat="45.67158" lon="5.57513">
        <ele>225</ele>
        <time>2016-09-27T13:58:06.114Z</time>
      </trkpt>
      <trkpt lat="45.67152" lon="5.57511">
        <ele>225</ele>
        <time>2016-09-27T13:58:07.114Z</time>
      </trkpt>
      <trkpt lat="45.67146" lon="5.57512">
        <ele>225</ele>
        <time>2016-09-27T13:58:08.114Z</time>
      </trkpt>
      <trkpt lat="45.67133" lon="5.57514">
        <ele>223</ele>
        <time>2016-09-27T13:58:10.114Z</time>
      </trkpt>
      <trkpt lat="45.67126" lon="5.57514">
        <ele>223</ele>
        <time>2016-09-27T13:58:11.114Z</time>
      </trkpt>
      <trkpt lat="45.67122" lon="5.57512">
        <ele>223</ele>
        <time>2016-09-27T13:58:12.114Z</time>
      </trkpt>
      <trkpt lat="45.6712" lon="5.57507">
        <ele>223</ele>
        <time>2016-09-27T13:58:13.114Z</time>
      </trkpt>
      <trkpt lat="45.67116" lon="5.57496">
        <ele>220</ele>
        <time>2016-09-27T13:58:15.114Z</time>
      </trkpt>
      <trkpt lat="45.67114" lon="5.5748">
        <ele>220</ele>
        <time>2016-09-27T13:58:18.114Z</time>
      </trkpt>
      <trkpt lat="45.67112" lon="5.57473">
        <ele>219</ele>
        <time>2016-09-27T13:58:20.114Z</time>
      </trkpt>
      <trkpt lat="45.67108" lon="5.5747">
        <ele>219</ele>
        <time>2016-09-27T13:58:23.114Z</time>
      </trkpt>
      <trkpt lat="45.67112" lon="5.57473">
        <ele>218</ele>
        <time>2016-09-27T13:58:32.114Z</time>
      </trkpt>
      <trkpt lat="45.67113" lon="5.57474">
        <ele>218</ele>
        <time>2016-09-27T13:58:37.114Z</time>
      </trkpt>
      <trkpt lat="45.67109" lon="5.57475">
        <ele>219</ele>
        <time>2016-09-27T13:58:58.114Z</time>
      </trkpt>
      <trkpt lat="45.67105" lon="5.57474">
        <ele>218</ele>
        <time>2016-09-27T13:59:00.114Z</time>
      </trkpt>
      <trkpt lat="45.67101" lon="5.57476">
        <ele>218</ele>
        <time>2016-09-27T13:59:02.114Z</time>
      </trkpt>
      <trkpt lat="45.67098" lon="5.57481">
        <ele>218</ele>
        <time>2016-09-27T13:59:05.114Z</time>
      </trkpt>
      <trkpt lat="45.67103" lon="5.57477">
        <ele>218</ele>
        <time>2016-09-27T13:59:13.114Z</time>
      </trkpt>
      <trkpt lat="45.67107" lon="5.57474">
        <ele>218</ele>
        <time>2016-09-27T13:59:17.114Z</time>
      </trkpt>
      <trkpt lat="45.67109" lon="5.57474">
        <ele>218</ele>
        <time>2016-09-27T13:59:23.114Z</time>
      </trkpt>
      <trkpt lat="45.67148" lon="5.57505">
        <ele>221</ele>
        <time>2016-09-27T14:00:22.114Z</time>
      </trkpt>
      <trkpt lat="45.67153" lon="5.57511">
        <ele>221</ele>
        <time>2016-09-27T14:00:25.114Z</time>
      </trkpt>
      <trkpt lat="45.67159" lon="5.57516">
        <ele>221</ele>
        <time>2016-09-27T14:00:28.114Z</time>
      </trkpt>
      <trkpt lat="45.67166" lon="5.5752">
        <ele>224</ele>
        <time>2016-09-27T14:00:31.114Z</time>
      </trkpt>
      <trkpt lat="45.67177" lon="5.57534">
        <ele>225</ele>
        <time>2016-09-27T14:00:37.114Z</time>
      </trkpt>
      <trkpt lat="45.67177" lon="5.57548">
        <ele>226</ele>
        <time>2016-09-27T14:00:41.114Z</time>
      </trkpt>
      <trkpt lat="45.67172" lon="5.57563">
        <ele>227</ele>
        <time>2016-09-27T14:00:51.114Z</time>
      </trkpt>
      <trkpt lat="45.67172" lon="5.57566">
        <ele>228</ele>
        <time>2016-09-27T14:01:00.114Z</time>
      </trkpt>
      <trkpt lat="45.66936" lon="5.57411">
        <ele>224</ele>
        <time>2016-09-27T14:02:03.114Z</time>
      </trkpt>
      <trkpt lat="45.66896" lon="5.5739">
        <ele>224</ele>
        <time>2016-09-27T14:02:13.114Z</time>
      </trkpt>
      <trkpt lat="45.66835" lon="5.57351">
        <ele>223</ele>
        <time>2016-09-27T14:02:25.114Z</time>
      </trkpt>
      <trkpt lat="45.66824" lon="5.57345">
        <ele>223</ele>
        <time>2016-09-27T14:02:27.114Z</time>
      </trkpt>
      <trkpt lat="45.66816" lon="5.57338">
        <ele>222.9</ele>
        <time>2016-09-27T14:02:29.114Z</time>
      </trkpt>
      <trkpt lat="45.66813" lon="5.57328">
        <ele>221</ele>
        <time>2016-09-27T14:02:31.114Z</time>
      </trkpt>
      <trkpt lat="45.66818" lon="5.57317">
        <ele>221</ele>
        <time>2016-09-27T14:02:33.114Z</time>
      </trkpt>
      <trkpt lat="45.66885" lon="5.57221">
        <ele>218</ele>
        <time>2016-09-27T14:02:54.114Z</time>
      </trkpt>
      <trkpt lat="45.6689" lon="5.57215">
        <ele>217</ele>
        <time>2016-09-27T14:03:00.114Z</time>
      </trkpt>
      <trkpt lat="45.66891" lon="5.57215">
        <ele>217</ele>
        <time>2016-09-27T14:03:03.114Z</time>
      </trkpt>
      <trkpt lat="45.6691" lon="5.5717">
        <ele>218</ele>
        <time>2016-09-27T14:03:21.114Z</time>
      </trkpt>
      <trkpt lat="45.66955" lon="5.56967">
        <ele>217</ele>
        <time>2016-09-27T14:03:54.114Z</time>
      </trkpt>
      <trkpt lat="45.66959" lon="5.5692">
        <ele>217</ele>
        <time>2016-09-27T14:04:00.114Z</time>
      </trkpt>
      <trkpt lat="45.66963" lon="5.5686">
        <ele>217</ele>
        <time>2016-09-27T14:04:08.114Z</time>
      </trkpt>
      <trkpt lat="45.66989" lon="5.56657">
        <ele>217</ele>
        <time>2016-09-27T14:04:33.114Z</time>
      </trkpt>
      <trkpt lat="45.66997" lon="5.56626">
        <ele>217</ele>
        <time>2016-09-27T14:04:37.114Z</time>
      </trkpt>
      <trkpt lat="45.67008" lon="5.56599">
        <ele>217</ele>
        <time>2016-09-27T14:04:41.114Z</time>
      </trkpt>
      <trkpt lat="45.67022" lon="5.56576">
        <ele>217</ele>
        <time>2016-09-27T14:04:45.114Z</time>
      </trkpt>
      <trkpt lat="45.67029" lon="5.56565">
        <ele>217</ele>
        <time>2016-09-27T14:04:47.114Z</time>
      </trkpt>
      <trkpt lat="45.67072" lon="5.56502">
        <ele>217</ele>
        <time>2016-09-27T14:04:59.114Z</time>
      </trkpt>
      <trkpt lat="45.67082" lon="5.56481">
        <ele>217</ele>
        <time>2016-09-27T14:05:03.114Z</time>
      </trkpt>
      <trkpt lat="45.67085" lon="5.56471">
        <ele>217</ele>
        <time>2016-09-27T14:05:05.114Z</time>
      </trkpt>
      <trkpt lat="45.6709" lon="5.56463">
        <ele>217</ele>
        <time>2016-09-27T14:05:07.114Z</time>
      </trkpt>
      <trkpt lat="45.67097" lon="5.56457">
        <ele>217</ele>
        <time>2016-09-27T14:05:10.114Z</time>
      </trkpt>
      <trkpt lat="45.67102" lon="5.56452">
        <ele>217</ele>
        <time>2016-09-27T14:05:16.114Z</time>
      </trkpt>
      <trkpt lat="45.67116" lon="5.56438">
        <ele>217</ele>
        <time>2016-09-27T14:06:23.114Z</time>
      </trkpt>
      <trkpt lat="45.67125" lon="5.56428">
        <ele>217</ele>
        <time>2016-09-27T14:06:26.114Z</time>
      </trkpt>
      <trkpt lat="45.67142" lon="5.56414">
        <ele>217</ele>
        <time>2016-09-27T14:06:34.114Z</time>
      </trkpt>
      <trkpt lat="45.67146" lon="5.56415">
        <ele>218</ele>
        <time>2016-09-27T14:07:17.114Z</time>
      </trkpt>
      <trkpt lat="45.67149" lon="5.56418">
        <ele>217</ele>
        <time>2016-09-27T14:07:20.114Z</time>
      </trkpt>
      <trkpt lat="45.67153" lon="5.56417">
        <ele>217</ele>
        <time>2016-09-27T14:07:27.114Z</time>
      </trkpt>
      <trkpt lat="45.67157" lon="5.5641">
        <ele>216</ele>
        <time>2016-09-27T14:07:30.114Z</time>
      </trkpt>
      <trkpt lat="45.67156" lon="5.56409">
        <ele>216</ele>
        <time>2016-09-27T14:07:38.114Z</time>
      </trkpt>
      <trkpt lat="45.67155" lon="5.56404">
        <ele>216</ele>
        <time>2016-09-27T14:07:47.114Z</time>
      </trkpt>
      <trkpt lat="45.67156" lon="5.56402">
        <ele>217</ele>
        <time>2016-09-27T14:07:51.114Z</time>
      </trkpt>
      <trkpt lat="45.67158" lon="5.56401">
        <ele>217</ele>
        <time>2016-09-27T14:07:56.114Z</time>
      </trkpt>
      <trkpt lat="45.67161" lon="5.56395">
        <ele>217</ele>
        <time>2016-09-27T14:08:01.114Z</time>
      </trkpt>
      <trkpt lat="45.67167" lon="5.56385">
        <ele>217</ele>
        <time>2016-09-27T14:08:05.114Z</time>
      </trkpt>
      <trkpt lat="45.67173" lon="5.56378">
        <ele>217</ele>
        <time>2016-09-27T14:08:08.114Z</time>
      </trkpt>
      <trkpt lat="45.67184" lon="5.56361">
        <ele>217</ele>
        <time>2016-09-27T14:08:13.114Z</time>
      </trkpt>
      <trkpt lat="45.6721" lon="5.56325">
        <ele>217</ele>
        <time>2016-09-27T14:08:24.114Z</time>
      </trkpt>
      <trkpt lat="45.67222" lon="5.56305">
        <ele>217.1</ele>
        <time>2016-09-27T14:08:29.114Z</time>
      </trkpt>
      <trkpt lat="45.6723" lon="5.56287">
        <ele>218</ele>
        <time>2016-09-27T14:08:33.114Z</time>
      </trkpt>
      <trkpt lat="45.67237" lon="5.56267">
        <ele>218</ele>
        <time>2016-09-27T14:08:37.114Z</time>
      </trkpt>
      <trkpt lat="45.67258" lon="5.5613">
        <ele>217</ele>
        <time>2016-09-27T14:09:03.114Z</time>
      </trkpt>
      <trkpt lat="45.6727" lon="5.56084">
        <ele>217</ele>
        <time>2016-09-27T14:09:12.114Z</time>
      </trkpt>
      <trkpt lat="45.67291" lon="5.5604">
        <ele>217</ele>
        <time>2016-09-27T14:09:21.114Z</time>
      </trkpt>
      <trkpt lat="45.67378" lon="5.5591">
        <ele>216</ele>
        <time>2016-09-27T14:09:51.114Z</time>
      </trkpt>
      <trkpt lat="45.67397" lon="5.55888">
        <ele>216</ele>
        <time>2016-09-27T14:09:57.114Z</time>
      </trkpt>
      <trkpt lat="45.67424" lon="5.55866">
        <ele>217</ele>
        <time>2016-09-27T14:10:05.114Z</time>
      </trkpt>
      <trkpt lat="45.67439" lon="5.55856">
        <ele>217</ele>
        <time>2016-09-27T14:10:09.114Z</time>
      </trkpt>
      <trkpt lat="45.6747" lon="5.5584">
        <ele>217</ele>
        <time>2016-09-27T14:10:17.114Z</time>
      </trkpt>
      <trkpt lat="45.67478" lon="5.55838">
        <ele>217</ele>
        <time>2016-09-27T14:10:19.114Z</time>
      </trkpt>
      <trkpt lat="45.67511" lon="5.55834">
        <ele>217</ele>
        <time>2016-09-27T14:10:27.114Z</time>
      </trkpt>
      <trkpt lat="45.67537" lon="5.55834">
        <ele>217</ele>
        <time>2016-09-27T14:10:33.114Z</time>
      </trkpt>
      <trkpt lat="45.67574" lon="5.55841">
        <ele>217</ele>
        <time>2016-09-27T14:10:42.114Z</time>
      </trkpt>
      <trkpt lat="45.67585" lon="5.55842">
        <ele>217</ele>
        <time>2016-09-27T14:10:45.114Z</time>
      </trkpt>
      <trkpt lat="45.67623" lon="5.55838">
        <ele>217</ele>
        <time>2016-09-27T14:10:54.114Z</time>
      </trkpt>
      <trkpt lat="45.67644" lon="5.55841">
        <ele>217</ele>
        <time>2016-09-27T14:10:59.114Z</time>
      </trkpt>
      <trkpt lat="45.67655" lon="5.55845">
        <ele>217</ele>
        <time>2016-09-27T14:11:04.114Z</time>
      </trkpt>
      <trkpt lat="45.67663" lon="5.55847">
        <ele>217</ele>
        <time>2016-09-27T14:11:07.114Z</time>
      </trkpt>
      <trkpt lat="45.67674" lon="5.55845">
        <ele>217</ele>
        <time>2016-09-27T14:11:10.114Z</time>
      </trkpt>
      <trkpt lat="45.6769" lon="5.55846">
        <ele>217</ele>
        <time>2016-09-27T14:11:14.114Z</time>
      </trkpt>
      <trkpt lat="45.67697" lon="5.55844">
        <ele>217</ele>
        <time>2016-09-27T14:11:16.114Z</time>
      </trkpt>
      <trkpt lat="45.67715" lon="5.55832">
        <ele>217</ele>
        <time>2016-09-27T14:11:22.114Z</time>
      </trkpt>
      <trkpt lat="45.67724" lon="5.55825">
        <ele>217</ele>
        <time>2016-09-27T14:11:25.114Z</time>
      </trkpt>
      <trkpt lat="45.67752" lon="5.55793">
        <ele>218</ele>
        <time>2016-09-27T14:11:34.114Z</time>
      </trkpt>
      <trkpt lat="45.6776" lon="5.55788">
        <ele>218</ele>
        <time>2016-09-27T14:11:36.114Z</time>
      </trkpt>
      <trkpt lat="45.67784" lon="5.55781">
        <ele>218</ele>
        <time>2016-09-27T14:11:45.114Z</time>
      </trkpt>
      <trkpt lat="45.67796" lon="5.55764">
        <ele>217</ele>
        <time>2016-09-27T14:11:54.114Z</time>
      </trkpt>
      <trkpt lat="45.67805" lon="5.55754">
        <ele>216.9</ele>
        <time>2016-09-27T14:11:59.114Z</time>
      </trkpt>
      <trkpt lat="45.67811" lon="5.55744">
        <ele>216</ele>
        <time>2016-09-27T14:12:02.114Z</time>
      </trkpt>
      <trkpt lat="45.67827" lon="5.55729">
        <ele>216</ele>
        <time>2016-09-27T14:12:08.114Z</time>
      </trkpt>
      <trkpt lat="45.6802" lon="5.55473">
        <ele>216</ele>
        <time>2016-09-27T14:13:08.114Z</time>
      </trkpt>
      <trkpt lat="45.68029" lon="5.55464">
        <ele>216</ele>
        <time>2016-09-27T14:13:10.114Z</time>
      </trkpt>
      <trkpt lat="45.6804" lon="5.55453">
        <ele>216</ele>
        <time>2016-09-27T14:13:13.114Z</time>
      </trkpt>
      <trkpt lat="45.6805" lon="5.55448">
        <ele>216</ele>
        <time>2016-09-27T14:13:15.114Z</time>
      </trkpt>
      <trkpt lat="45.6806" lon="5.55444">
        <ele>216</ele>
        <time>2016-09-27T14:13:17.114Z</time>
      </trkpt>
      <trkpt lat="45.6807" lon="5.55442">
        <ele>216</ele>
        <time>2016-09-27T14:13:19.114Z</time>
      </trkpt>
      <trkpt lat="45.68084" lon="5.55442">
        <ele>216</ele>
        <time>2016-09-27T14:13:22.114Z</time>
      </trkpt>
      <trkpt lat="45.68156" lon="5.55457">
        <ele>216</ele>
        <time>2016-09-27T14:13:36.114Z</time>
      </trkpt>
      <trkpt lat="45.68223" lon="5.55461">
        <ele>216</ele>
        <time>2016-09-27T14:13:50.114Z</time>
      </trkpt>
      <trkpt lat="45.68292" lon="5.5547">
        <ele>216</ele>
        <time>2016-09-27T14:14:04.114Z</time>
      </trkpt>
      <trkpt lat="45.68302" lon="5.5547">
        <ele>216</ele>
        <time>2016-09-27T14:14:06.114Z</time>
      </trkpt>
      <trkpt lat="45.68332" lon="5.55465">
        <ele>216</ele>
        <time>2016-09-27T14:14:12.114Z</time>
      </trkpt>
      <trkpt lat="45.68446" lon="5.55422">
        <ele>217</ele>
        <time>2016-09-27T14:14:36.114Z</time>
      </trkpt>
      <trkpt lat="45.6857" lon="5.55363">
        <ele>216</ele>
        <time>2016-09-27T14:15:04.114Z</time>
      </trkpt>
      <trkpt lat="45.68591" lon="5.55349">
        <ele>216</ele>
        <time>2016-09-27T14:15:09.114Z</time>
      </trkpt>
      <trkpt lat="45.68603" lon="5.55339">
        <ele>216</ele>
        <time>2016-09-27T14:15:12.114Z</time>
      </trkpt>
      <trkpt lat="45.68623" lon="5.55319">
        <ele>216</ele>
        <time>2016-09-27T14:15:17.114Z</time>
      </trkpt>
      <trkpt lat="45.68645" lon="5.55291">
        <ele>216</ele>
        <time>2016-09-27T14:15:23.114Z</time>
      </trkpt>
      <trkpt lat="45.68668" lon="5.55252">
        <ele>216</ele>
        <time>2016-09-27T14:15:30.114Z</time>
      </trkpt>
      <trkpt lat="45.68777" lon="5.55027">
        <ele>216</ele>
        <time>2016-09-27T14:16:08.114Z</time>
      </trkpt>
      <trkpt lat="45.68921" lon="5.548">
        <ele>216</ele>
        <time>2016-09-27T14:16:53.114Z</time>
      </trkpt>
      <trkpt lat="45.69039" lon="5.54647">
        <ele>215</ele>
        <time>2016-09-27T14:17:24.114Z</time>
      </trkpt>
      <trkpt lat="45.6924" lon="5.54423">
        <ele>215</ele>
        <time>2016-09-27T14:18:13.114Z</time>
      </trkpt>
      <trkpt lat="45.69266" lon="5.544">
        <ele>215</ele>
        <time>2016-09-27T14:18:19.114Z</time>
      </trkpt>
      <trkpt lat="45.69276" lon="5.54394">
        <ele>215</ele>
        <time>2016-09-27T14:18:21.114Z</time>
      </trkpt>
      <trkpt lat="45.69285" lon="5.54388">
        <ele>215</ele>
        <time>2016-09-27T14:18:23.114Z</time>
      </trkpt>
      <trkpt lat="45.69306" lon="5.54381">
        <ele>215</ele>
        <time>2016-09-27T14:18:27.114Z</time>
      </trkpt>
      <trkpt lat="45.69321" lon="5.54377">
        <ele>215</ele>
        <time>2016-09-27T14:18:30.114Z</time>
      </trkpt>
      <trkpt lat="45.6934" lon="5.54374">
        <ele>215</ele>
        <time>2016-09-27T14:18:34.114Z</time>
      </trkpt>
      <trkpt lat="45.69349" lon="5.54374">
        <ele>215</ele>
        <time>2016-09-27T14:18:36.114Z</time>
      </trkpt>
      <trkpt lat="45.69456" lon="5.54393">
        <ele>215</ele>
        <time>2016-09-27T14:18:58.114Z</time>
      </trkpt>
      <trkpt lat="45.69476" lon="5.54399">
        <ele>215</ele>
        <time>2016-09-27T14:19:02.114Z</time>
      </trkpt>
      <trkpt lat="45.69497" lon="5.54407">
        <ele>215</ele>
        <time>2016-09-27T14:19:06.114Z</time>
      </trkpt>
      <trkpt lat="45.69508" lon="5.54413">
        <ele>215</ele>
        <time>2016-09-27T14:19:08.114Z</time>
      </trkpt>
      <trkpt lat="45.69518" lon="5.5442">
        <ele>215</ele>
        <time>2016-09-27T14:19:10.114Z</time>
      </trkpt>
      <trkpt lat="45.69536" lon="5.54437">
        <ele>215</ele>
        <time>2016-09-27T14:19:14.114Z</time>
      </trkpt>
      <trkpt lat="45.69594" lon="5.54507">
        <ele>215</ele>
        <time>2016-09-27T14:19:28.114Z</time>
      </trkpt>
      <trkpt lat="45.69603" lon="5.54516">
        <ele>215</ele>
        <time>2016-09-27T14:19:30.114Z</time>
      </trkpt>
      <trkpt lat="45.69633" lon="5.54535">
        <ele>215</ele>
        <time>2016-09-27T14:19:36.114Z</time>
      </trkpt>
      <trkpt lat="45.69714" lon="5.54575">
        <ele>215</ele>
        <time>2016-09-27T14:19:52.114Z</time>
      </trkpt>
      <trkpt lat="45.69743" lon="5.54594">
        <ele>215</ele>
        <time>2016-09-27T14:19:58.114Z</time>
      </trkpt>
      <trkpt lat="45.69761" lon="5.5461">
        <ele>215</ele>
        <time>2016-09-27T14:20:02.114Z</time>
      </trkpt>
      <trkpt lat="45.69773" lon="5.54628">
        <ele>215</ele>
        <time>2016-09-27T14:20:06.114Z</time>
      </trkpt>
      <trkpt lat="45.69789" lon="5.54643">
        <ele>215</ele>
        <time>2016-09-27T14:20:15.114Z</time>
      </trkpt>
      <trkpt lat="45.69795" lon="5.54651">
        <ele>215</ele>
        <time>2016-09-27T14:20:17.114Z</time>
      </trkpt>
      <trkpt lat="45.69812" lon="5.54668">
        <ele>215</ele>
        <time>2016-09-27T14:20:21.114Z</time>
      </trkpt>
      <trkpt lat="45.69822" lon="5.54674">
        <ele>215</ele>
        <time>2016-09-27T14:20:23.114Z</time>
      </trkpt>
      <trkpt lat="45.69832" lon="5.54676">
        <ele>215</ele>
        <time>2016-09-27T14:20:25.114Z</time>
      </trkpt>
      <trkpt lat="45.69842" lon="5.54675">
        <ele>215</ele>
        <time>2016-09-27T14:20:27.114Z</time>
      </trkpt>
      <trkpt lat="45.69852" lon="5.54672">
        <ele>215</ele>
        <time>2016-09-27T14:20:29.114Z</time>
      </trkpt>
      <trkpt lat="45.69862" lon="5.54669">
        <ele>215</ele>
        <time>2016-09-27T14:20:31.114Z</time>
      </trkpt>
      <trkpt lat="45.6987" lon="5.54662">
        <ele>215</ele>
        <time>2016-09-27T14:20:33.114Z</time>
      </trkpt>
      <trkpt lat="45.6989" lon="5.54644">
        <ele>215</ele>
        <time>2016-09-27T14:20:39.114Z</time>
      </trkpt>
      <trkpt lat="45.69898" lon="5.54642">
        <ele>215</ele>
        <time>2016-09-27T14:20:41.114Z</time>
      </trkpt>
      <trkpt lat="45.69907" lon="5.54647">
        <ele>215</ele>
        <time>2016-09-27T14:20:43.114Z</time>
      </trkpt>
      <trkpt lat="45.69914" lon="5.54658">
        <ele>215</ele>
        <time>2016-09-27T14:20:45.114Z</time>
      </trkpt>
      <trkpt lat="45.69948" lon="5.54732">
        <ele>215</ele>
        <time>2016-09-27T14:21:03.114Z</time>
      </trkpt>
      <trkpt lat="45.69956" lon="5.54742">
        <ele>215</ele>
        <time>2016-09-27T14:21:07.114Z</time>
      </trkpt>
      <trkpt lat="45.69985" lon="5.54792">
        <ele>215</ele>
        <time>2016-09-27T14:21:16.114Z</time>
      </trkpt>
      <trkpt lat="45.70001" lon="5.54813">
        <ele>215</ele>
        <time>2016-09-27T14:21:20.114Z</time>
      </trkpt>
      <trkpt lat="45.7001" lon="5.54822">
        <ele>215</ele>
        <time>2016-09-27T14:21:22.114Z</time>
      </trkpt>
      <trkpt lat="45.7002" lon="5.54829">
        <ele>215</ele>
        <time>2016-09-27T14:21:24.114Z</time>
      </trkpt>
      <trkpt lat="45.7003" lon="5.54832">
        <ele>215</ele>
        <time>2016-09-27T14:21:26.114Z</time>
      </trkpt>
      <trkpt lat="45.70039" lon="5.54832">
        <ele>215</ele>
        <time>2016-09-27T14:21:28.114Z</time>
      </trkpt>
      <trkpt lat="45.70048" lon="5.54833">
        <ele>215</ele>
        <time>2016-09-27T14:21:30.114Z</time>
      </trkpt>
      <trkpt lat="45.70068" lon="5.5484">
        <ele>215</ele>
        <time>2016-09-27T14:21:36.114Z</time>
      </trkpt>
      <trkpt lat="45.70079" lon="5.54847">
        <ele>215</ele>
        <time>2016-09-27T14:21:46.114Z</time>
      </trkpt>
      <trkpt lat="45.70081" lon="5.54849">
        <ele>215</ele>
        <time>2016-09-27T14:59:53.114Z</time>
      </trkpt>
      <trkpt lat="45.70097" lon="5.54868">
        <ele>215</ele>
        <time>2016-09-27T15:00:01.114Z</time>
      </trkpt>
      <trkpt lat="45.70115" lon="5.54893">
        <ele>215</ele>
        <time>2016-09-27T15:00:09.114Z</time>
      </trkpt>
      <trkpt lat="45.70123" lon="5.54909">
        <ele>215</ele>
        <time>2016-09-27T15:00:13.114Z</time>
      </trkpt>
      <trkpt lat="45.70137" lon="5.54945">
        <ele>215</ele>
        <time>2016-09-27T15:00:21.114Z</time>
      </trkpt>
      <trkpt lat="45.70147" lon="5.54974">
        <ele>215</ele>
        <time>2016-09-27T15:00:27.114Z</time>
      </trkpt>
      <trkpt lat="45.70163" lon="5.55005">
        <ele>215</ele>
        <time>2016-09-27T15:00:34.114Z</time>
      </trkpt>
      <trkpt lat="45.70171" lon="5.55018">
        <ele>215</ele>
        <time>2016-09-27T15:00:37.114Z</time>
      </trkpt>
      <trkpt lat="45.70177" lon="5.55025">
        <ele>215</ele>
        <time>2016-09-27T15:00:39.114Z</time>
      </trkpt>
      <trkpt lat="45.70187" lon="5.55034">
        <ele>215</ele>
        <time>2016-09-27T15:00:42.114Z</time>
      </trkpt>
      <trkpt lat="45.70194" lon="5.5504">
        <ele>215</ele>
        <time>2016-09-27T15:00:44.114Z</time>
      </trkpt>
      <trkpt lat="45.70205" lon="5.55046">
        <ele>215</ele>
        <time>2016-09-27T15:00:47.114Z</time>
      </trkpt>
      <trkpt lat="45.7028" lon="5.55077">
        <ele>215</ele>
        <time>2016-09-27T15:01:07.114Z</time>
      </trkpt>
      <trkpt lat="45.70284" lon="5.55078">
        <ele>215</ele>
        <time>2016-09-27T15:01:08.114Z</time>
      </trkpt>
      <trkpt lat="45.70304" lon="5.55082">
        <ele>215</ele>
        <time>2016-09-27T15:01:13.114Z</time>
      </trkpt>
      <trkpt lat="45.70323" lon="5.55084">
        <ele>215</ele>
        <time>2016-09-27T15:01:18.114Z</time>
      </trkpt>
      <trkpt lat="45.70335" lon="5.55084">
        <ele>215</ele>
        <time>2016-09-27T15:01:21.114Z</time>
      </trkpt>
      <trkpt lat="45.70356" lon="5.55082">
        <ele>215</ele>
        <time>2016-09-27T15:01:26.114Z</time>
      </trkpt>
      <trkpt lat="45.70401" lon="5.55073">
        <ele>215</ele>
        <time>2016-09-27T15:01:37.114Z</time>
      </trkpt>
      <trkpt lat="45.70442" lon="5.5506">
        <ele>215</ele>
        <time>2016-09-27T15:01:47.114Z</time>
      </trkpt>
      <trkpt lat="45.7052" lon="5.55026">
        <ele>215</ele>
        <time>2016-09-27T15:02:07.114Z</time>
      </trkpt>
      <trkpt lat="45.70993" lon="5.54784">
        <ele>215</ele>
        <time>2016-09-27T15:04:02.114Z</time>
      </trkpt>
      <trkpt lat="45.71001" lon="5.5478">
        <ele>215</ele>
        <time>2016-09-27T15:04:04.114Z</time>
      </trkpt>
      <trkpt lat="45.71009" lon="5.54777">
        <ele>215</ele>
        <time>2016-09-27T15:04:06.114Z</time>
      </trkpt>
      <trkpt lat="45.71018" lon="5.54778">
        <ele>215</ele>
        <time>2016-09-27T15:04:08.114Z</time>
      </trkpt>
      <trkpt lat="45.71033" lon="5.54782">
        <ele>215</ele>
        <time>2016-09-27T15:04:12.114Z</time>
      </trkpt>
      <trkpt lat="45.7104" lon="5.54782">
        <ele>215</ele>
        <time>2016-09-27T15:04:14.114Z</time>
      </trkpt>
      <trkpt lat="45.71047" lon="5.54776">
        <ele>215</ele>
        <time>2016-09-27T15:04:16.114Z</time>
      </trkpt>
      <trkpt lat="45.71051" lon="5.54767">
        <ele>215</ele>
        <time>2016-09-27T15:04:18.114Z</time>
      </trkpt>
      <trkpt lat="45.71054" lon="5.54757">
        <ele>215</ele>
        <time>2016-09-27T15:04:20.114Z</time>
      </trkpt>
      <trkpt lat="45.71053" lon="5.54746">
        <ele>215</ele>
        <time>2016-09-27T15:04:22.114Z</time>
      </trkpt>
      <trkpt lat="45.71049" lon="5.5473">
        <ele>215</ele>
        <time>2016-09-27T15:04:25.114Z</time>
      </trkpt>
      <trkpt lat="45.71049" lon="5.54725">
        <ele>215</ele>
        <time>2016-09-27T15:04:26.114Z</time>
      </trkpt>
      <trkpt lat="45.71056" lon="5.54721">
        <ele>215</ele>
        <time>2016-09-27T15:04:28.114Z</time>
      </trkpt>
      <trkpt lat="45.71062" lon="5.54725">
        <ele>215</ele>
        <time>2016-09-27T15:04:30.114Z</time>
      </trkpt>
      <trkpt lat="45.71067" lon="5.54732">
        <ele>215</ele>
        <time>2016-09-27T15:04:32.114Z</time>
      </trkpt>
      <trkpt lat="45.71081" lon="5.54743">
        <ele>215</ele>
        <time>2016-09-27T15:04:36.114Z</time>
      </trkpt>
      <trkpt lat="45.7115" lon="5.5479">
        <ele>215</ele>
        <time>2016-09-27T15:04:56.114Z</time>
      </trkpt>
      <trkpt lat="45.71172" lon="5.54809">
        <ele>222</ele>
        <time>2016-09-27T15:05:03.114Z</time>
      </trkpt>
      <trkpt lat="45.71324" lon="5.54925">
        <ele>221</ele>
        <time>2016-09-27T15:05:42.114Z</time>
      </trkpt>
      <trkpt lat="45.71332" lon="5.54926">
        <ele>221</ele>
        <time>2016-09-27T15:05:44.114Z</time>
      </trkpt>
      <trkpt lat="45.7135" lon="5.54896">
        <ele>218</ele>
        <time>2016-09-27T15:05:52.114Z</time>
      </trkpt>
      <trkpt lat="45.71353" lon="5.54886">
        <ele>218</ele>
        <time>2016-09-27T15:05:55.114Z</time>
      </trkpt>
      <trkpt lat="45.7138" lon="5.54846">
        <ele>218</ele>
        <time>2016-09-27T15:06:05.114Z</time>
      </trkpt>
      <trkpt lat="45.71373" lon="5.5485">
        <ele>218</ele>
        <time>2016-09-27T15:06:10.114Z</time>
      </trkpt>
      <trkpt lat="45.71348" lon="5.54883">
        <ele>218</ele>
        <time>2016-09-27T15:06:18.114Z</time>
      </trkpt>
      <trkpt lat="45.71338" lon="5.54899">
        <ele>218</ele>
        <time>2016-09-27T15:06:22.114Z</time>
      </trkpt>
      <trkpt lat="45.71334" lon="5.54901">
        <ele>218</ele>
        <time>2016-09-27T15:06:28.114Z</time>
      </trkpt>
      <trkpt lat="45.71329" lon="5.54898">
        <ele>218</ele>
        <time>2016-09-27T15:06:35.114Z</time>
      </trkpt>
      <trkpt lat="45.71323" lon="5.54891">
        <ele>218</ele>
        <time>2016-09-27T15:06:38.114Z</time>
      </trkpt>
      <trkpt lat="45.71315" lon="5.54886">
        <ele>217</ele>
        <time>2016-09-27T15:06:41.114Z</time>
      </trkpt>
      <trkpt lat="45.71311" lon="5.54878">
        <ele>217</ele>
        <time>2016-09-27T15:06:43.114Z</time>
      </trkpt>
      <trkpt lat="45.71308" lon="5.54868">
        <ele>217</ele>
        <time>2016-09-27T15:06:45.114Z</time>
      </trkpt>
      <trkpt lat="45.71311" lon="5.54857">
        <ele>217</ele>
        <time>2016-09-27T15:06:47.114Z</time>
      </trkpt>
      <trkpt lat="45.71318" lon="5.54843">
        <ele>216</ele>
        <time>2016-09-27T15:06:50.114Z</time>
      </trkpt>
      <trkpt lat="45.71349" lon="5.548">
        <ele>216</ele>
        <time>2016-09-27T15:07:01.114Z</time>
      </trkpt>
      <trkpt lat="45.7136" lon="5.54786">
        <ele>216</ele>
        <time>2016-09-27T15:07:05.114Z</time>
      </trkpt>
      <trkpt lat="45.7137" lon="5.5477">
        <ele>216</ele>
        <time>2016-09-27T15:07:09.114Z</time>
      </trkpt>
      <trkpt lat="45.71444" lon="5.54622">
        <ele>216</ele>
        <time>2016-09-27T15:07:42.114Z</time>
      </trkpt>
      <trkpt lat="45.71448" lon="5.54611">
        <ele>216</ele>
        <time>2016-09-27T15:07:44.114Z</time>
      </trkpt>
      <trkpt lat="45.71463" lon="5.54537">
        <ele>216</ele>
        <time>2016-09-27T15:07:58.114Z</time>
      </trkpt>
      <trkpt lat="45.71466" lon="5.54507">
        <ele>216</ele>
        <time>2016-09-27T15:08:03.114Z</time>
      </trkpt>
      <trkpt lat="45.71465" lon="5.54468">
        <ele>216</ele>
        <time>2016-09-27T15:08:09.114Z</time>
      </trkpt>
      <trkpt lat="45.71455" lon="5.54355">
        <ele>216</ele>
        <time>2016-09-27T15:08:27.114Z</time>
      </trkpt>
      <trkpt lat="45.71456" lon="5.54017">
        <ele>216</ele>
        <time>2016-09-27T15:09:21.114Z</time>
      </trkpt>
      <trkpt lat="45.7147" lon="5.53869">
        <ele>216</ele>
        <time>2016-09-27T15:09:45.114Z</time>
      </trkpt>
      <trkpt lat="45.71478" lon="5.53837">
        <ele>215</ele>
        <time>2016-09-27T15:09:51.114Z</time>
      </trkpt>
      <trkpt lat="45.71492" lon="5.53794">
        <ele>215</ele>
        <time>2016-09-27T15:09:59.114Z</time>
      </trkpt>
      <trkpt lat="45.71497" lon="5.53771">
        <ele>215</ele>
        <time>2016-09-27T15:10:03.114Z</time>
      </trkpt>
      <trkpt lat="45.71501" lon="5.53711">
        <ele>216</ele>
        <time>2016-09-27T15:10:14.114Z</time>
      </trkpt>
      <trkpt lat="45.71506" lon="5.53613">
        <ele>216</ele>
        <time>2016-09-27T15:10:30.114Z</time>
      </trkpt>
      <trkpt lat="45.71517" lon="5.53522">
        <ele>216</ele>
        <time>2016-09-27T15:10:46.114Z</time>
      </trkpt>
      <trkpt lat="45.71519" lon="5.53511">
        <ele>216</ele>
        <time>2016-09-27T15:10:49.114Z</time>
      </trkpt>
      <trkpt lat="45.7152" lon="5.53503">
        <ele>216</ele>
        <time>2016-09-27T15:10:53.114Z</time>
      </trkpt>
      <trkpt lat="45.71519" lon="5.53494">
        <ele>216</ele>
        <time>2016-09-27T15:10:57.114Z</time>
      </trkpt>
      <trkpt lat="45.71565" lon="5.53072">
        <ele>215</ele>
        <time>2016-09-27T15:12:40.114Z</time>
      </trkpt>
      <trkpt lat="45.71567" lon="5.53061">
        <ele>215</ele>
        <time>2016-09-27T15:12:42.114Z</time>
      </trkpt>
      <trkpt lat="45.71571" lon="5.5305">
        <ele>215</ele>
        <time>2016-09-27T15:12:44.114Z</time>
      </trkpt>
      <trkpt lat="45.71579" lon="5.53015">
        <ele>215</ele>
        <time>2016-09-27T15:12:50.114Z</time>
      </trkpt>
      <trkpt lat="45.71605" lon="5.52899">
        <ele>215</ele>
        <time>2016-09-27T15:13:10.114Z</time>
      </trkpt>
      <trkpt lat="45.71644" lon="5.52791">
        <ele>215</ele>
        <time>2016-09-27T15:13:29.114Z</time>
      </trkpt>
      <trkpt lat="45.71671" lon="5.52738">
        <ele>215</ele>
        <time>2016-09-27T15:13:39.114Z</time>
      </trkpt>
      <trkpt lat="45.7172" lon="5.52662">
        <ele>216</ele>
        <time>2016-09-27T15:13:55.114Z</time>
      </trkpt>
      <trkpt lat="45.71741" lon="5.52636">
        <ele>215</ele>
        <time>2016-09-27T15:14:01.114Z</time>
      </trkpt>
      <trkpt lat="45.71764" lon="5.52614">
        <ele>215</ele>
        <time>2016-09-27T15:14:07.114Z</time>
      </trkpt>
      <trkpt lat="45.7178" lon="5.52602">
        <ele>215</ele>
        <time>2016-09-27T15:14:11.114Z</time>
      </trkpt>
      <trkpt lat="45.71797" lon="5.5259">
        <ele>215</ele>
        <time>2016-09-27T15:14:15.114Z</time>
      </trkpt>
      <trkpt lat="45.71828" lon="5.52573">
        <ele>215</ele>
        <time>2016-09-27T15:14:22.114Z</time>
      </trkpt>
      <trkpt lat="45.71846" lon="5.52566">
        <ele>215</ele>
        <time>2016-09-27T15:14:26.114Z</time>
      </trkpt>
      <trkpt lat="45.71865" lon="5.52562">
        <ele>215</ele>
        <time>2016-09-27T15:14:30.114Z</time>
      </trkpt>
      <trkpt lat="45.71892" lon="5.52551">
        <ele>215</ele>
        <time>2016-09-27T15:14:36.114Z</time>
      </trkpt>
      <trkpt lat="45.71917" lon="5.52537">
        <ele>215</ele>
        <time>2016-09-27T15:14:42.114Z</time>
      </trkpt>
      <trkpt lat="45.71927" lon="5.5254">
        <ele>215</ele>
        <time>2016-09-27T15:14:44.114Z</time>
      </trkpt>
      <trkpt lat="45.71933" lon="5.52549">
        <ele>215</ele>
        <time>2016-09-27T15:14:46.114Z</time>
      </trkpt>
      <trkpt lat="45.71968" lon="5.52667">
        <ele>214</ele>
        <time>2016-09-27T15:15:04.114Z</time>
      </trkpt>
      <trkpt lat="45.71973" lon="5.52679">
        <ele>214</ele>
        <time>2016-09-27T15:15:06.114Z</time>
      </trkpt>
      <trkpt lat="45.7198" lon="5.52688">
        <ele>214</ele>
        <time>2016-09-27T15:15:08.114Z</time>
      </trkpt>
      <trkpt lat="45.71988" lon="5.52693">
        <ele>214</ele>
        <time>2016-09-27T15:15:10.114Z</time>
      </trkpt>
      <trkpt lat="45.72001" lon="5.52696">
        <ele>214</ele>
        <time>2016-09-27T15:15:13.114Z</time>
      </trkpt>
      <trkpt lat="45.72024" lon="5.52697">
        <ele>214</ele>
        <time>2016-09-27T15:15:18.114Z</time>
      </trkpt>
      <trkpt lat="45.72034" lon="5.52694">
        <ele>215</ele>
        <time>2016-09-27T15:15:20.114Z</time>
      </trkpt>
      <trkpt lat="45.72068" lon="5.52693">
        <ele>215</ele>
        <time>2016-09-27T15:15:27.114Z</time>
      </trkpt>
      <trkpt lat="45.72081" lon="5.52692">
        <ele>215</ele>
        <time>2016-09-27T15:15:30.114Z</time>
      </trkpt>
      <trkpt lat="45.72108" lon="5.52683">
        <ele>215</ele>
        <time>2016-09-27T15:15:36.114Z</time>
      </trkpt>
      <trkpt lat="45.7213" lon="5.52674">
        <ele>215</ele>
        <time>2016-09-27T15:15:41.114Z</time>
      </trkpt>
      <trkpt lat="45.72231" lon="5.52599">
        <ele>214</ele>
        <time>2016-09-27T15:16:05.114Z</time>
      </trkpt>
      <trkpt lat="45.72239" lon="5.52597">
        <ele>214</ele>
        <time>2016-09-27T15:16:07.114Z</time>
      </trkpt>
      <trkpt lat="45.72245" lon="5.52603">
        <ele>214.1</ele>
        <time>2016-09-27T15:16:09.114Z</time>
      </trkpt>
      <trkpt lat="45.72246" lon="5.52606">
        <ele>215</ele>
        <time>2016-09-27T15:16:14.114Z</time>
      </trkpt>
      <trkpt lat="45.72245" lon="5.52591">
        <ele>215</ele>
        <time>2016-09-27T15:16:24.114Z</time>
      </trkpt>
      <trkpt lat="45.72252" lon="5.52582">
        <ele>215</ele>
        <time>2016-09-27T15:16:27.114Z</time>
      </trkpt>
      <trkpt lat="45.72267" lon="5.52567">
        <ele>215</ele>
        <time>2016-09-27T15:16:31.114Z</time>
      </trkpt>
      <trkpt lat="45.7229" lon="5.5255">
        <ele>215</ele>
        <time>2016-09-27T15:16:37.114Z</time>
      </trkpt>
      <trkpt lat="45.72312" lon="5.52536">
        <ele>215</ele>
        <time>2016-09-27T15:16:43.114Z</time>
      </trkpt>
      <trkpt lat="45.72354" lon="5.52508">
        <ele>215</ele>
        <time>2016-09-27T15:16:55.114Z</time>
      </trkpt>
      <trkpt lat="45.72386" lon="5.52481">
        <ele>214</ele>
        <time>2016-09-27T15:17:05.114Z</time>
      </trkpt>
      <trkpt lat="45.72393" lon="5.52477">
        <ele>214</ele>
        <time>2016-09-27T15:17:07.114Z</time>
      </trkpt>
      <trkpt lat="45.72402" lon="5.52475">
        <ele>214</ele>
        <time>2016-09-27T15:17:09.114Z</time>
      </trkpt>
      <trkpt lat="45.7241" lon="5.52476">
        <ele>214</ele>
        <time>2016-09-27T15:17:11.114Z</time>
      </trkpt>
      <trkpt lat="45.72419" lon="5.52479">
        <ele>214</ele>
        <time>2016-09-27T15:17:13.114Z</time>
      </trkpt>
      <trkpt lat="45.72448" lon="5.52499">
        <ele>214</ele>
        <time>2016-09-27T15:17:21.114Z</time>
      </trkpt>
      <trkpt lat="45.72456" lon="5.52502">
        <ele>214</ele>
        <time>2016-09-27T15:17:23.114Z</time>
      </trkpt>
      <trkpt lat="45.72472" lon="5.52499">
        <ele>214</ele>
        <time>2016-09-27T15:17:27.114Z</time>
      </trkpt>
      <trkpt lat="45.72483" lon="5.5249">
        <ele>214</ele>
        <time>2016-09-27T15:17:30.114Z</time>
      </trkpt>
      <trkpt lat="45.72517" lon="5.52457">
        <ele>215</ele>
        <time>2016-09-27T15:17:40.114Z</time>
      </trkpt>
      <trkpt lat="45.72525" lon="5.52452">
        <ele>215</ele>
        <time>2016-09-27T15:17:42.114Z</time>
      </trkpt>
      <trkpt lat="45.72533" lon="5.52449">
        <ele>215</ele>
        <time>2016-09-27T15:17:44.114Z</time>
      </trkpt>
      <trkpt lat="45.72541" lon="5.52451">
        <ele>215</ele>
        <time>2016-09-27T15:17:46.114Z</time>
      </trkpt>
      <trkpt lat="45.72548" lon="5.52457">
        <ele>215</ele>
        <time>2016-09-27T15:17:48.114Z</time>
      </trkpt>
      <trkpt lat="45.72554" lon="5.52466">
        <ele>215</ele>
        <time>2016-09-27T15:17:50.114Z</time>
      </trkpt>
      <trkpt lat="45.72559" lon="5.52476">
        <ele>215</ele>
        <time>2016-09-27T15:17:52.114Z</time>
      </trkpt>
      <trkpt lat="45.72589" lon="5.52551">
        <ele>215</ele>
        <time>2016-09-27T15:18:07.114Z</time>
      </trkpt>
      <trkpt lat="45.72594" lon="5.5256">
        <ele>215</ele>
        <time>2016-09-27T15:18:09.114Z</time>
      </trkpt>
      <trkpt lat="45.72597" lon="5.52564">
        <ele>215</ele>
        <time>2016-09-27T15:18:10.114Z</time>
      </trkpt>
      <trkpt lat="45.72607" lon="5.52574">
        <ele>215</ele>
        <time>2016-09-27T15:18:13.114Z</time>
      </trkpt>
      <trkpt lat="45.72653" lon="5.52607">
        <ele>215</ele>
        <time>2016-09-27T15:18:26.114Z</time>
      </trkpt>
      <trkpt lat="45.72693" lon="5.52643">
        <ele>216</ele>
        <time>2016-09-27T15:18:37.114Z</time>
      </trkpt>
      <trkpt lat="45.72701" lon="5.52648">
        <ele>216</ele>
        <time>2016-09-27T15:18:39.114Z</time>
      </trkpt>
      <trkpt lat="45.72723" lon="5.52657">
        <ele>216</ele>
        <time>2016-09-27T15:18:50.114Z</time>
      </trkpt>
      <trkpt lat="45.72728" lon="5.52656">
        <ele>217</ele>
        <time>2016-09-27T15:19:33.114Z</time>
      </trkpt>
      <trkpt lat="45.7273" lon="5.52655">
        <ele>217</ele>
        <time>2016-09-27T15:19:34.114Z</time>
      </trkpt>
      <trkpt lat="45.72742" lon="5.52647">
        <ele>217</ele>
        <time>2016-09-27T15:19:38.114Z</time>
      </trkpt>
      <trkpt lat="45.72893" lon="5.52526">
        <ele>217</ele>
        <time>2016-09-27T15:20:13.114Z</time>
      </trkpt>
      <trkpt lat="45.72912" lon="5.52515">
        <ele>217</ele>
        <time>2016-09-27T15:20:17.114Z</time>
      </trkpt>
      <trkpt lat="45.7294" lon="5.52501">
        <ele>217</ele>
        <time>2016-09-27T15:20:23.114Z</time>
      </trkpt>
      <trkpt lat="45.7295" lon="5.52498">
        <ele>217</ele>
        <time>2016-09-27T15:20:25.114Z</time>
      </trkpt>
      <trkpt lat="45.72961" lon="5.52498">
        <ele>217</ele>
        <time>2016-09-27T15:20:27.114Z</time>
      </trkpt>
      <trkpt lat="45.7297" lon="5.52501">
        <ele>217</ele>
        <time>2016-09-27T15:20:29.114Z</time>
      </trkpt>
      <trkpt lat="45.72987" lon="5.52513">
        <ele>217</ele>
        <time>2016-09-27T15:20:33.114Z</time>
      </trkpt>
      <trkpt lat="45.73067" lon="5.52591">
        <ele>217</ele>
        <time>2016-09-27T15:21:03.114Z</time>
      </trkpt>
      <trkpt lat="45.73073" lon="5.5259">
        <ele>217</ele>
        <time>2016-09-27T15:21:12.114Z</time>
      </trkpt>
      <trkpt lat="45.73081" lon="5.52582">
        <ele>217</ele>
        <time>2016-09-27T15:21:15.114Z</time>
      </trkpt>
      <trkpt lat="45.73151" lon="5.52456">
        <ele>217</ele>
        <time>2016-09-27T15:21:39.114Z</time>
      </trkpt>
      <trkpt lat="45.7318" lon="5.52392">
        <ele>217</ele>
        <time>2016-09-27T15:21:50.114Z</time>
      </trkpt>
      <trkpt lat="45.73238" lon="5.52303">
        <ele>217</ele>
        <time>2016-09-27T15:22:08.114Z</time>
      </trkpt>
      <trkpt lat="45.73249" lon="5.52291">
        <ele>217</ele>
        <time>2016-09-27T15:22:12.114Z</time>
      </trkpt>
      <trkpt lat="45.73256" lon="5.52284">
        <ele>217</ele>
        <time>2016-09-27T15:22:15.114Z</time>
      </trkpt>
      <trkpt lat="45.73256" lon="5.52283">
        <ele>222</ele>
        <time>2016-09-27T15:22:20.114Z</time>
      </trkpt>
      <trkpt lat="45.73309" lon="5.52223">
        <ele>224.1</ele>
        <time>2016-09-27T15:23:04.114Z</time>
      </trkpt>
      <trkpt lat="45.73319" lon="5.52214">
        <ele>225</ele>
        <time>2016-09-27T15:23:07.114Z</time>
      </trkpt>
      <trkpt lat="45.73328" lon="5.52208">
        <ele>227</ele>
        <time>2016-09-27T15:23:10.114Z</time>
      </trkpt>
      <trkpt lat="45.73338" lon="5.52205">
        <ele>227</ele>
        <time>2016-09-27T15:23:13.114Z</time>
      </trkpt>
      <trkpt lat="45.73347" lon="5.52205">
        <ele>229</ele>
        <time>2016-09-27T15:23:16.114Z</time>
      </trkpt>
      <trkpt lat="45.73357" lon="5.52207">
        <ele>230</ele>
        <time>2016-09-27T15:23:20.114Z</time>
      </trkpt>
      <trkpt lat="45.73366" lon="5.52211">
        <ele>230.1</ele>
        <time>2016-09-27T15:23:24.114Z</time>
      </trkpt>
      <trkpt lat="45.73375" lon="5.52216">
        <ele>231.2</ele>
        <time>2016-09-27T15:23:29.114Z</time>
      </trkpt>
      <trkpt lat="45.73385" lon="5.52223">
        <ele>233.2</ele>
        <time>2016-09-27T15:23:34.114Z</time>
      </trkpt>
      <trkpt lat="45.73392" lon="5.52232">
        <ele>235</ele>
        <time>2016-09-27T15:23:38.114Z</time>
      </trkpt>
      <trkpt lat="45.73423" lon="5.52285">
        <ele>237</ele>
        <time>2016-09-27T15:23:56.114Z</time>
      </trkpt>
      <trkpt lat="45.73431" lon="5.52293">
        <ele>238</ele>
        <time>2016-09-27T15:24:00.114Z</time>
      </trkpt>
      <trkpt lat="45.73437" lon="5.52295">
        <ele>238</ele>
        <time>2016-09-27T15:24:03.114Z</time>
      </trkpt>
      <trkpt lat="45.73445" lon="5.52292">
        <ele>238</ele>
        <time>2016-09-27T15:24:06.114Z</time>
      </trkpt>
      <trkpt lat="45.73452" lon="5.52287">
        <ele>238.2</ele>
        <time>2016-09-27T15:24:09.114Z</time>
      </trkpt>
      <trkpt lat="45.73463" lon="5.52274">
        <ele>240</ele>
        <time>2016-09-27T15:24:15.114Z</time>
      </trkpt>
      <trkpt lat="45.73466" lon="5.52268">
        <ele>241</ele>
        <time>2016-09-27T15:24:20.114Z</time>
      </trkpt>
      <trkpt lat="45.73469" lon="5.52267">
        <ele>241</ele>
        <time>2016-09-27T15:24:55.114Z</time>
      </trkpt>
      <trkpt lat="45.7347" lon="5.52267">
        <ele>242</ele>
        <time>2016-09-27T15:25:00.114Z</time>
      </trkpt>
      <trkpt lat="45.73468" lon="5.5227">
        <ele>241</ele>
        <time>2016-09-27T15:25:31.114Z</time>
      </trkpt>
      <trkpt lat="45.73472" lon="5.52274">
        <ele>241</ele>
        <time>2016-09-27T15:25:34.114Z</time>
      </trkpt>
      <trkpt lat="45.73479" lon="5.52276">
        <ele>241.1</ele>
        <time>2016-09-27T15:25:39.114Z</time>
      </trkpt>
      <trkpt lat="45.73495" lon="5.52269">
        <ele>242</ele>
        <time>2016-09-27T15:25:47.114Z</time>
      </trkpt>
      <trkpt lat="45.73502" lon="5.52269">
        <ele>244</ele>
        <time>2016-09-27T15:25:50.114Z</time>
      </trkpt>
      <trkpt lat="45.73513" lon="5.52264">
        <ele>244</ele>
        <time>2016-09-27T15:25:55.114Z</time>
      </trkpt>
      <trkpt lat="45.73539" lon="5.52238">
        <ele>246</ele>
        <time>2016-09-27T15:26:07.114Z</time>
      </trkpt>
      <trkpt lat="45.73544" lon="5.52231">
        <ele>247</ele>
        <time>2016-09-27T15:26:11.114Z</time>
      </trkpt>
      <trkpt lat="45.73548" lon="5.52217">
        <ele>247</ele>
        <time>2016-09-27T15:26:14.114Z</time>
      </trkpt>
      <trkpt lat="45.73553" lon="5.52171">
        <ele>248</ele>
        <time>2016-09-27T15:26:23.114Z</time>
      </trkpt>
      <trkpt lat="45.73559" lon="5.52163">
        <ele>248</ele>
        <time>2016-09-27T15:26:30.114Z</time>
      </trkpt>
      <trkpt lat="45.73558" lon="5.52159">
        <ele>248</ele>
        <time>2016-09-27T15:27:21.114Z</time>
      </trkpt>
      <trkpt lat="45.73576" lon="5.52105">
        <ele>246</ele>
        <time>2016-09-27T15:27:40.114Z</time>
      </trkpt>
      <trkpt lat="45.73587" lon="5.52082">
        <ele>246</ele>
        <time>2016-09-27T15:27:44.114Z</time>
      </trkpt>
      <trkpt lat="45.73633" lon="5.5201">
        <ele>253</ele>
        <time>2016-09-27T15:28:06.114Z</time>
      </trkpt>
      <trkpt lat="45.73639" lon="5.52005">
        <ele>253.1</ele>
        <time>2016-09-27T15:28:09.114Z</time>
      </trkpt>
      <trkpt lat="45.73646" lon="5.52001">
        <ele>254</ele>
        <time>2016-09-27T15:28:12.114Z</time>
      </trkpt>
      <trkpt lat="45.73653" lon="5.51999">
        <ele>254</ele>
        <time>2016-09-27T15:28:15.114Z</time>
      </trkpt>
      <trkpt lat="45.7366" lon="5.51998">
        <ele>254</ele>
        <time>2016-09-27T15:28:18.114Z</time>
      </trkpt>
      <trkpt lat="45.73676" lon="5.52001">
        <ele>259</ele>
        <time>2016-09-27T15:28:25.114Z</time>
      </trkpt>
      <trkpt lat="45.73685" lon="5.52003">
        <ele>259.1</ele>
        <time>2016-09-27T15:28:29.114Z</time>
      </trkpt>
      <trkpt lat="45.73693" lon="5.52007">
        <ele>260</ele>
        <time>2016-09-27T15:28:33.114Z</time>
      </trkpt>
      <trkpt lat="45.73698" lon="5.52019">
        <ele>261</ele>
        <time>2016-09-27T15:28:38.114Z</time>
      </trkpt>
      <trkpt lat="45.73677" lon="5.52078">
        <ele>267</ele>
        <time>2016-09-27T15:28:58.114Z</time>
      </trkpt>
      <trkpt lat="45.73672" lon="5.52115">
        <ele>268.1</ele>
        <time>2016-09-27T15:29:09.114Z</time>
      </trkpt>
      <trkpt lat="45.73668" lon="5.52253">
        <ele>279</ele>
        <time>2016-09-27T15:29:51.114Z</time>
      </trkpt>
      <trkpt lat="45.73659" lon="5.52288">
        <ele>280</ele>
        <time>2016-09-27T15:30:04.114Z</time>
      </trkpt>
      <trkpt lat="45.73653" lon="5.52301">
        <ele>280.2</ele>
        <time>2016-09-27T15:30:09.114Z</time>
      </trkpt>
      <trkpt lat="45.73607" lon="5.52458">
        <ele>295</ele>
        <time>2016-09-27T15:31:01.114Z</time>
      </trkpt>
      <trkpt lat="45.73603" lon="5.52467">
        <ele>295.1</ele>
        <time>2016-09-27T15:31:04.114Z</time>
      </trkpt>
      <trkpt lat="45.73571" lon="5.52514">
        <ele>297</ele>
        <time>2016-09-27T15:31:23.114Z</time>
      </trkpt>
      <trkpt lat="45.73565" lon="5.52521">
        <ele>297</ele>
        <time>2016-09-27T15:31:26.114Z</time>
      </trkpt>
      <trkpt lat="45.73559" lon="5.52527">
        <ele>297.3</ele>
        <time>2016-09-27T15:31:29.114Z</time>
      </trkpt>
      <trkpt lat="45.73552" lon="5.52531">
        <ele>300</ele>
        <time>2016-09-27T15:31:32.114Z</time>
      </trkpt>
      <trkpt lat="45.73534" lon="5.52534">
        <ele>303.1</ele>
        <time>2016-09-27T15:31:39.114Z</time>
      </trkpt>
      <trkpt lat="45.73525" lon="5.5254">
        <ele>304</ele>
        <time>2016-09-27T15:31:43.114Z</time>
      </trkpt>
      <trkpt lat="45.73509" lon="5.52558">
        <ele>307</ele>
        <time>2016-09-27T15:31:51.114Z</time>
      </trkpt>
      <trkpt lat="45.73499" lon="5.52572">
        <ele>308</ele>
        <time>2016-09-27T15:31:57.114Z</time>
      </trkpt>
      <trkpt lat="45.73494" lon="5.5258">
        <ele>310</ele>
        <time>2016-09-27T15:32:00.114Z</time>
      </trkpt>
      <trkpt lat="45.73492" lon="5.52589">
        <ele>310</ele>
        <time>2016-09-27T15:32:03.114Z</time>
      </trkpt>
      <trkpt lat="45.73494" lon="5.52598">
        <ele>311</ele>
        <time>2016-09-27T15:32:06.114Z</time>
      </trkpt>
      <trkpt lat="45.735" lon="5.52602">
        <ele>311.1</ele>
        <time>2016-09-27T15:32:09.114Z</time>
      </trkpt>
      <trkpt lat="45.73506" lon="5.52606">
        <ele>312</ele>
        <time>2016-09-27T15:32:12.114Z</time>
      </trkpt>
      <trkpt lat="45.73513" lon="5.52609">
        <ele>312</ele>
        <time>2016-09-27T15:32:15.114Z</time>
      </trkpt>
      <trkpt lat="45.73518" lon="5.52612">
        <ele>312</ele>
        <time>2016-09-27T15:32:17.114Z</time>
      </trkpt>
      <trkpt lat="45.73525" lon="5.52616">
        <ele>313</ele>
        <time>2016-09-27T15:32:20.114Z</time>
      </trkpt>
      <trkpt lat="45.73532" lon="5.5262">
        <ele>313</ele>
        <time>2016-09-27T15:32:23.114Z</time>
      </trkpt>
      <trkpt lat="45.73538" lon="5.52628">
        <ele>313</ele>
        <time>2016-09-27T15:32:26.114Z</time>
      </trkpt>
      <trkpt lat="45.73543" lon="5.52637">
        <ele>313.2</ele>
        <time>2016-09-27T15:32:29.114Z</time>
      </trkpt>
      <trkpt lat="45.73546" lon="5.52646">
        <ele>315</ele>
        <time>2016-09-27T15:32:32.114Z</time>
      </trkpt>
      <trkpt lat="45.73549" lon="5.52656">
        <ele>315</ele>
        <time>2016-09-27T15:32:35.114Z</time>
      </trkpt>
      <trkpt lat="45.7355" lon="5.52666">
        <ele>315</ele>
        <time>2016-09-27T15:32:38.114Z</time>
      </trkpt>
      <trkpt lat="45.73551" lon="5.5268">
        <ele>317</ele>
        <time>2016-09-27T15:32:42.114Z</time>
      </trkpt>
      <trkpt lat="45.73549" lon="5.52693">
        <ele>319</ele>
        <time>2016-09-27T15:32:46.114Z</time>
      </trkpt>
      <trkpt lat="45.73546" lon="5.52707">
        <ele>320</ele>
        <time>2016-09-27T15:32:50.114Z</time>
      </trkpt>
      <trkpt lat="45.73544" lon="5.52715">
        <ele>320</ele>
        <time>2016-09-27T15:32:52.114Z</time>
      </trkpt>
      <trkpt lat="45.73496" lon="5.52825">
        <ele>325</ele>
        <time>2016-09-27T15:33:23.114Z</time>
      </trkpt>
      <trkpt lat="45.73487" lon="5.5286">
        <ele>328</ele>
        <time>2016-09-27T15:33:31.114Z</time>
      </trkpt>
      <trkpt lat="45.73485" lon="5.52872">
        <ele>328</ele>
        <time>2016-09-27T15:33:34.114Z</time>
      </trkpt>
      <trkpt lat="45.73482" lon="5.52881">
        <ele>328</ele>
        <time>2016-09-27T15:33:36.114Z</time>
      </trkpt>
      <trkpt lat="45.7348" lon="5.52898">
        <ele>329</ele>
        <time>2016-09-27T15:33:40.114Z</time>
      </trkpt>
      <trkpt lat="45.73481" lon="5.52911">
        <ele>329</ele>
        <time>2016-09-27T15:33:43.114Z</time>
      </trkpt>
      <trkpt lat="45.73483" lon="5.52926">
        <ele>329</ele>
        <time>2016-09-27T15:33:47.114Z</time>
      </trkpt>
      <trkpt lat="45.73487" lon="5.52939">
        <ele>331</ele>
        <time>2016-09-27T15:33:50.114Z</time>
      </trkpt>
      <trkpt lat="45.73495" lon="5.52947">
        <ele>331</ele>
        <time>2016-09-27T15:33:53.114Z</time>
      </trkpt>
      <trkpt lat="45.73503" lon="5.52949">
        <ele>331</ele>
        <time>2016-09-27T15:33:56.114Z</time>
      </trkpt>
      <trkpt lat="45.7351" lon="5.52948">
        <ele>331</ele>
        <time>2016-09-27T15:33:58.114Z</time>
      </trkpt>
      <trkpt lat="45.73538" lon="5.52929">
        <ele>335</ele>
        <time>2016-09-27T15:34:08.114Z</time>
      </trkpt>
      <trkpt lat="45.73545" lon="5.52923">
        <ele>335</ele>
        <time>2016-09-27T15:34:11.114Z</time>
      </trkpt>
      <trkpt lat="45.73576" lon="5.52905">
        <ele>336</ele>
        <time>2016-09-27T15:34:22.114Z</time>
      </trkpt>
      <trkpt lat="45.73582" lon="5.52902">
        <ele>336</ele>
        <time>2016-09-27T15:34:24.114Z</time>
      </trkpt>
      <trkpt lat="45.73589" lon="5.52901">
        <ele>336</ele>
        <time>2016-09-27T15:34:26.114Z</time>
      </trkpt>
      <trkpt lat="45.73595" lon="5.529">
        <ele>336</ele>
        <time>2016-09-27T15:34:28.114Z</time>
      </trkpt>
      <trkpt lat="45.73602" lon="5.529">
        <ele>338</ele>
        <time>2016-09-27T15:34:30.114Z</time>
      </trkpt>
      <trkpt lat="45.73609" lon="5.52901">
        <ele>338</ele>
        <time>2016-09-27T15:34:32.114Z</time>
      </trkpt>
      <trkpt lat="45.7362" lon="5.529">
        <ele>338</ele>
        <time>2016-09-27T15:34:36.114Z</time>
      </trkpt>
      <trkpt lat="45.73627" lon="5.52899">
        <ele>338</ele>
        <time>2016-09-27T15:34:38.114Z</time>
      </trkpt>
      <trkpt lat="45.73633" lon="5.52896">
        <ele>340</ele>
        <time>2016-09-27T15:34:40.114Z</time>
      </trkpt>
      <trkpt lat="45.73639" lon="5.52891">
        <ele>340</ele>
        <time>2016-09-27T15:34:42.114Z</time>
      </trkpt>
      <trkpt lat="45.73649" lon="5.5288">
        <ele>342</ele>
        <time>2016-09-27T15:34:46.114Z</time>
      </trkpt>
      <trkpt lat="45.73655" lon="5.52875">
        <ele>342</ele>
        <time>2016-09-27T15:34:48.114Z</time>
      </trkpt>
      <trkpt lat="45.73667" lon="5.52869">
        <ele>342</ele>
        <time>2016-09-27T15:34:52.114Z</time>
      </trkpt>
      <trkpt lat="45.73692" lon="5.52862">
        <ele>345</ele>
        <time>2016-09-27T15:35:00.114Z</time>
      </trkpt>
      <trkpt lat="45.73699" lon="5.52859">
        <ele>345</ele>
        <time>2016-09-27T15:35:02.114Z</time>
      </trkpt>
      <trkpt lat="45.73705" lon="5.52857">
        <ele>345</ele>
        <time>2016-09-27T15:35:04.114Z</time>
      </trkpt>
      <trkpt lat="45.73713" lon="5.52857">
        <ele>345</ele>
        <time>2016-09-27T15:35:06.114Z</time>
      </trkpt>
      <trkpt lat="45.7372" lon="5.52859">
        <ele>345</ele>
        <time>2016-09-27T15:35:08.114Z</time>
      </trkpt>
      <trkpt lat="45.73726" lon="5.52862">
        <ele>347</ele>
        <time>2016-09-27T15:35:10.114Z</time>
      </trkpt>
      <trkpt lat="45.73732" lon="5.52865">
        <ele>347</ele>
        <time>2016-09-27T15:35:12.114Z</time>
      </trkpt>
      <trkpt lat="45.73738" lon="5.5287">
        <ele>347</ele>
        <time>2016-09-27T15:35:14.114Z</time>
      </trkpt>
      <trkpt lat="45.73742" lon="5.52876">
        <ele>347</ele>
        <time>2016-09-27T15:35:16.114Z</time>
      </trkpt>
      <trkpt lat="45.73746" lon="5.52882">
        <ele>347</ele>
        <time>2016-09-27T15:35:18.114Z</time>
      </trkpt>
      <trkpt lat="45.73762" lon="5.52934">
        <ele>351</ele>
        <time>2016-09-27T15:35:32.114Z</time>
      </trkpt>
      <trkpt lat="45.73763" lon="5.52945">
        <ele>351</ele>
        <time>2016-09-27T15:35:35.114Z</time>
      </trkpt>
      <trkpt lat="45.73772" lon="5.5297">
        <ele>352</ele>
        <time>2016-09-27T15:35:42.114Z</time>
      </trkpt>
      <trkpt lat="45.73791" lon="5.53009">
        <ele>353</ele>
        <time>2016-09-27T15:35:53.114Z</time>
      </trkpt>
      <trkpt lat="45.73797" lon="5.5303">
        <ele>353.3</ele>
        <time>2016-09-27T15:35:59.114Z</time>
      </trkpt>
      <trkpt lat="45.73799" lon="5.53045">
        <ele>356</ele>
        <time>2016-09-27T15:36:03.114Z</time>
      </trkpt>
      <trkpt lat="45.738" lon="5.5306">
        <ele>357</ele>
        <time>2016-09-27T15:36:07.114Z</time>
      </trkpt>
      <trkpt lat="45.73794" lon="5.53117">
        <ele>359</ele>
        <time>2016-09-27T15:36:21.114Z</time>
      </trkpt>
      <trkpt lat="45.73799" lon="5.53162">
        <ele>361</ele>
        <time>2016-09-27T15:36:31.114Z</time>
      </trkpt>
      <trkpt lat="45.73809" lon="5.5322">
        <ele>365</ele>
        <time>2016-09-27T15:36:51.114Z</time>
      </trkpt>
      <trkpt lat="45.73821" lon="5.53213">
        <ele>366</ele>
        <time>2016-09-27T15:37:24.114Z</time>
      </trkpt>
      <trkpt lat="45.73827" lon="5.53208">
        <ele>366</ele>
        <time>2016-09-27T15:37:27.114Z</time>
      </trkpt>
      <trkpt lat="45.73831" lon="5.53201">
        <ele>366</ele>
        <time>2016-09-27T15:37:30.114Z</time>
      </trkpt>
      <trkpt lat="45.7385" lon="5.53133">
        <ele>368</ele>
        <time>2016-09-27T15:37:48.114Z</time>
      </trkpt>
      <trkpt lat="45.73861" lon="5.53112">
        <ele>368</ele>
        <time>2016-09-27T15:37:54.114Z</time>
      </trkpt>
      <trkpt lat="45.73874" lon="5.53091">
        <ele>371</ele>
        <time>2016-09-27T15:38:00.114Z</time>
      </trkpt>
      <trkpt lat="45.73925" lon="5.53029">
        <ele>371.1</ele>
        <time>2016-09-27T15:38:19.114Z</time>
      </trkpt>
      <trkpt lat="45.73932" lon="5.53022">
        <ele>372</ele>
        <time>2016-09-27T15:38:22.114Z</time>
      </trkpt>
      <trkpt lat="45.73955" lon="5.52996">
        <ele>374</ele>
        <time>2016-09-27T15:38:32.114Z</time>
      </trkpt>
      <trkpt lat="45.73965" lon="5.52987">
        <ele>374</ele>
        <time>2016-09-27T15:38:36.114Z</time>
      </trkpt>
      <trkpt lat="45.7399" lon="5.5297">
        <ele>376</ele>
        <time>2016-09-27T15:38:45.114Z</time>
      </trkpt>
      <trkpt lat="45.74006" lon="5.52963">
        <ele>377</ele>
        <time>2016-09-27T15:38:51.114Z</time>
      </trkpt>
      <trkpt lat="45.74022" lon="5.5296">
        <ele>377</ele>
        <time>2016-09-27T15:38:57.114Z</time>
      </trkpt>
      <trkpt lat="45.74029" lon="5.52958">
        <ele>381</ele>
        <time>2016-09-27T15:39:00.114Z</time>
      </trkpt>
      <trkpt lat="45.74037" lon="5.52954">
        <ele>381</ele>
        <time>2016-09-27T15:39:03.114Z</time>
      </trkpt>
      <trkpt lat="45.74042" lon="5.5295">
        <ele>382</ele>
        <time>2016-09-27T15:39:05.114Z</time>
      </trkpt>
      <trkpt lat="45.74047" lon="5.52946">
        <ele>382</ele>
        <time>2016-09-27T15:39:07.114Z</time>
      </trkpt>
      <trkpt lat="45.74053" lon="5.52943">
        <ele>382.1</ele>
        <time>2016-09-27T15:39:09.114Z</time>
      </trkpt>
      <trkpt lat="45.74061" lon="5.52942">
        <ele>383</ele>
        <time>2016-09-27T15:39:12.114Z</time>
      </trkpt>
      <trkpt lat="45.74069" lon="5.52946">
        <ele>384</ele>
        <time>2016-09-27T15:39:15.114Z</time>
      </trkpt>
      <trkpt lat="45.74077" lon="5.52951">
        <ele>384</ele>
        <time>2016-09-27T15:39:18.114Z</time>
      </trkpt>
      <trkpt lat="45.741" lon="5.52958">
        <ele>385</ele>
        <time>2016-09-27T15:39:26.114Z</time>
      </trkpt>
      <trkpt lat="45.74107" lon="5.52963">
        <ele>385</ele>
        <time>2016-09-27T15:39:28.114Z</time>
      </trkpt>
      <trkpt lat="45.74119" lon="5.52974">
        <ele>385</ele>
        <time>2016-09-27T15:39:32.114Z</time>
      </trkpt>
      <trkpt lat="45.74153" lon="5.52998">
        <ele>387</ele>
        <time>2016-09-27T15:39:42.114Z</time>
      </trkpt>
      <trkpt lat="45.74176" lon="5.5301">
        <ele>387</ele>
        <time>2016-09-27T15:39:48.114Z</time>
      </trkpt>
      <trkpt lat="45.74184" lon="5.53013">
        <ele>386</ele>
        <time>2016-09-27T15:39:50.114Z</time>
      </trkpt>
      <trkpt lat="45.74193" lon="5.53014">
        <ele>386</ele>
        <time>2016-09-27T15:39:52.114Z</time>
      </trkpt>
      <trkpt lat="45.74201" lon="5.53013">
        <ele>386</ele>
        <time>2016-09-27T15:39:54.114Z</time>
      </trkpt>
      <trkpt lat="45.74211" lon="5.53008">
        <ele>386</ele>
        <time>2016-09-27T15:39:56.114Z</time>
      </trkpt>
      <trkpt lat="45.74222" lon="5.53005">
        <ele>386</ele>
        <time>2016-09-27T15:39:58.114Z</time>
      </trkpt>
      <trkpt lat="45.74243" lon="5.53005">
        <ele>383</ele>
        <time>2016-09-27T15:40:02.114Z</time>
      </trkpt>
      <trkpt lat="45.74255" lon="5.53006">
        <ele>383</ele>
        <time>2016-09-27T15:40:04.114Z</time>
      </trkpt>
      <trkpt lat="45.7426" lon="5.53008">
        <ele>383</ele>
        <time>2016-09-27T15:40:05.114Z</time>
      </trkpt>
      <trkpt lat="45.74266" lon="5.53011">
        <ele>383</ele>
        <time>2016-09-27T15:40:06.114Z</time>
      </trkpt>
      <trkpt lat="45.74271" lon="5.53015">
        <ele>383</ele>
        <time>2016-09-27T15:40:07.114Z</time>
      </trkpt>
      <trkpt lat="45.74276" lon="5.53021">
        <ele>383</ele>
        <time>2016-09-27T15:40:08.114Z</time>
      </trkpt>
      <trkpt lat="45.74285" lon="5.53045">
        <ele>382</ele>
        <time>2016-09-27T15:40:12.114Z</time>
      </trkpt>
      <trkpt lat="45.74311" lon="5.53152">
        <ele>386</ele>
        <time>2016-09-27T15:40:31.114Z</time>
      </trkpt>
      <trkpt lat="45.74317" lon="5.53158">
        <ele>386.3</ele>
        <time>2016-09-27T15:40:34.114Z</time>
      </trkpt>
      <trkpt lat="45.74324" lon="5.53159">
        <ele>389</ele>
        <time>2016-09-27T15:40:37.114Z</time>
      </trkpt>
      <trkpt lat="45.74336" lon="5.53153">
        <ele>390</ele>
        <time>2016-09-27T15:40:42.114Z</time>
      </trkpt>
      <trkpt lat="45.74342" lon="5.53152">
        <ele>392</ele>
        <time>2016-09-27T15:40:45.114Z</time>
      </trkpt>
      <trkpt lat="45.74352" lon="5.53153">
        <ele>392.1</ele>
        <time>2016-09-27T15:40:49.114Z</time>
      </trkpt>
      <trkpt lat="45.74367" lon="5.53161">
        <ele>395</ele>
        <time>2016-09-27T15:40:55.114Z</time>
      </trkpt>
      <trkpt lat="45.74373" lon="5.53162">
        <ele>395</ele>
        <time>2016-09-27T15:40:57.114Z</time>
      </trkpt>
      <trkpt lat="45.74384" lon="5.53163">
        <ele>395</ele>
        <time>2016-09-27T15:41:01.114Z</time>
      </trkpt>
      <trkpt lat="45.74391" lon="5.53161">
        <ele>395</ele>
        <time>2016-09-27T15:41:04.114Z</time>
      </trkpt>
      <trkpt lat="45.74398" lon="5.53157">
        <ele>395</ele>
        <time>2016-09-27T15:41:08.114Z</time>
      </trkpt>
      <trkpt lat="45.74402" lon="5.53156">
        <ele>396</ele>
        <time>2016-09-27T15:41:10.114Z</time>
      </trkpt>
      <trkpt lat="45.74406" lon="5.53156">
        <ele>396</ele>
        <time>2016-09-27T15:41:12.114Z</time>
      </trkpt>
      <trkpt lat="45.7441" lon="5.53156">
        <ele>396</ele>
        <time>2016-09-27T15:41:14.114Z</time>
      </trkpt>
      <trkpt lat="45.7442" lon="5.53157">
        <ele>396</ele>
        <time>2016-09-27T15:41:18.114Z</time>
      </trkpt>
      <trkpt lat="45.74439" lon="5.53168">
        <ele>398</ele>
        <time>2016-09-27T15:41:26.114Z</time>
      </trkpt>
      <trkpt lat="45.74455" lon="5.53179">
        <ele>400</ele>
        <time>2016-09-27T15:41:32.114Z</time>
      </trkpt>
      <trkpt lat="45.74471" lon="5.53196">
        <ele>400</ele>
        <time>2016-09-27T15:41:38.114Z</time>
      </trkpt>
      <trkpt lat="45.74475" lon="5.53203">
        <ele>400</ele>
        <time>2016-09-27T15:41:40.114Z</time>
      </trkpt>
      <trkpt lat="45.74482" lon="5.53208">
        <ele>400</ele>
        <time>2016-09-27T15:41:42.114Z</time>
      </trkpt>
      <trkpt lat="45.74489" lon="5.53203">
        <ele>400</ele>
        <time>2016-09-27T15:41:44.114Z</time>
      </trkpt>
      <trkpt lat="45.74518" lon="5.53151">
        <ele>397</ele>
        <time>2016-09-27T15:41:52.114Z</time>
      </trkpt>
      <trkpt lat="45.74525" lon="5.53144">
        <ele>396.8</ele>
        <time>2016-09-27T15:41:54.114Z</time>
      </trkpt>
      <trkpt lat="45.74534" lon="5.53143">
        <ele>395</ele>
        <time>2016-09-27T15:41:56.114Z</time>
      </trkpt>
      <trkpt lat="45.74585" lon="5.5317">
        <ele>396</ele>
        <time>2016-09-27T15:42:08.114Z</time>
      </trkpt>
      <trkpt lat="45.7464" lon="5.53193">
        <ele>397</ele>
        <time>2016-09-27T15:42:22.114Z</time>
      </trkpt>
      <trkpt lat="45.74655" lon="5.53203">
        <ele>397</ele>
        <time>2016-09-27T15:42:26.114Z</time>
      </trkpt>
      <trkpt lat="45.74662" lon="5.53209">
        <ele>397</ele>
        <time>2016-09-27T15:42:28.114Z</time>
      </trkpt>
      <trkpt lat="45.74667" lon="5.53215">
        <ele>397</ele>
        <time>2016-09-27T15:42:30.114Z</time>
      </trkpt>
      <trkpt lat="45.74672" lon="5.53223">
        <ele>397</ele>
        <time>2016-09-27T15:42:35.114Z</time>
      </trkpt>
      <trkpt lat="45.74668" lon="5.53232">
        <ele>397.1</ele>
        <time>2016-09-27T15:42:39.114Z</time>
      </trkpt>
      <trkpt lat="45.74662" lon="5.53242">
        <ele>398</ele>
        <time>2016-09-27T15:42:42.114Z</time>
      </trkpt>
      <trkpt lat="45.74664" lon="5.53255">
        <ele>398</ele>
        <time>2016-09-27T15:42:45.114Z</time>
      </trkpt>
      <trkpt lat="45.74673" lon="5.5327">
        <ele>398.2</ele>
        <time>2016-09-27T15:42:49.114Z</time>
      </trkpt>
      <trkpt lat="45.7469" lon="5.53294">
        <ele>400</ele>
        <time>2016-09-27T15:42:55.114Z</time>
      </trkpt>
      <trkpt lat="45.74694" lon="5.53303">
        <ele>400</ele>
        <time>2016-09-27T15:42:57.114Z</time>
      </trkpt>
      <trkpt lat="45.74696" lon="5.53314">
        <ele>400.2</ele>
        <time>2016-09-27T15:42:59.114Z</time>
      </trkpt>
      <trkpt lat="45.74694" lon="5.53326">
        <ele>402</ele>
        <time>2016-09-27T15:43:01.114Z</time>
      </trkpt>
      <trkpt lat="45.74689" lon="5.53336">
        <ele>402</ele>
        <time>2016-09-27T15:43:03.114Z</time>
      </trkpt>
      <trkpt lat="45.74677" lon="5.53355">
        <ele>402</ele>
        <time>2016-09-27T15:43:07.114Z</time>
      </trkpt>
      <trkpt lat="45.74619" lon="5.53424">
        <ele>402</ele>
        <time>2016-09-27T15:43:23.114Z</time>
      </trkpt>
      <trkpt lat="45.74608" lon="5.53444">
        <ele>402</ele>
        <time>2016-09-27T15:43:27.114Z</time>
      </trkpt>
      <trkpt lat="45.74603" lon="5.53454">
        <ele>402</ele>
        <time>2016-09-27T15:43:29.114Z</time>
      </trkpt>
      <trkpt lat="45.74597" lon="5.53459">
        <ele>402</ele>
        <time>2016-09-27T15:43:36.114Z</time>
      </trkpt>
    </trkseg>
  </trk>
</gpx>